<?xml version="1.0" encoding="UTF-8" standalone="no" ?>
<gpx xmlns="http://www.topografix.com/GPX/1/1" xmlns:xsi="http://www.w3.org/2001/XMLSchema-instance" xsi:schemaLocation="http://www.topografix.com/GPX/1/1 http://www.topografix.com/GPX/1/1/gpx.xsd" version="1.1" creator="VisuGPX - https://www.visugpx.com">
  <metadata>
    <name>Laubert - Arzenc sur Randon (giraldes)23km</name>
    <desc><![CDATA[J2 via Lac de Charpal truc fotunio]]></desc>
  </metadata>
  <wpt lat="44.736" lon="3.77861">
    <ele>1030.2</ele>
    <cmt><![CDATA[1 les ecuries de palhere]]></cmt>
    <extensions>
      <visugpx:TrackPointExtension xmlns:visugpx="https://www.visugpx.com/editgpx/">
        <visugpx:dec>-72,-102</visugpx:dec>
      </visugpx:TrackPointExtension>
    </extensions>
  </wpt>
  <wpt lat="44.66873" lon="3.59677">
    <ele>1297.8</ele>
    <name><![CDATA[Le Giraldes]]></name>
    <type><![CDATA[hotel]]></type>
    <extensions>
      <visugpx:TrackPointExtension xmlns:visugpx="https://www.visugpx.com/editgpx/">
        <visugpx:dec>-37,-97</visugpx:dec>
      </visugpx:TrackPointExtension>
    </extensions>
  </wpt>
  <wpt lat="44.58342" lon="3.6327">
    <ele>1219.7</ele>
    <name><![CDATA[La Pontiere]]></name>
    <type><![CDATA[hotel]]></type>
    <extensions>
      <visugpx:TrackPointExtension xmlns:visugpx="https://www.visugpx.com/editgpx/">
        <visugpx:dec>-177,-4</visugpx:dec>
      </visugpx:TrackPointExtension>
    </extensions>
  </wpt>
  <trk>
    <name><![CDATA[2025-07-13 17:45:54]]></name>
    <desc><![CDATA[]]></desc>
    <extensions>
      <line xmlns="http://www.topografix.com/GPX/gpx_style/0/2">
        <color>0008ff</color>
        <opacity>1</opacity>
        <width>4</width>
      </line>
    </extensions>
    <trkseg>
      <trkpt lat="44.58255" lon="3.63517">
        <ele>1234.47</ele>
        <time>2025-07-13T07:23:53Z</time>
      </trkpt>
      <trkpt lat="44.58273" lon="3.6351">
        <ele>1211.88</ele>
        <time>2025-07-13T07:24:18Z</time>
      </trkpt>
      <trkpt lat="44.58274" lon="3.6351">
        <ele>1213.32</ele>
        <time>2025-07-13T07:24:38Z</time>
      </trkpt>
      <trkpt lat="44.58274" lon="3.6351">
        <ele>1211.4</ele>
        <time>2025-07-13T07:25:08Z</time>
      </trkpt>
      <trkpt lat="44.58271" lon="3.63505">
        <ele>1210.44</ele>
        <time>2025-07-13T07:25:36Z</time>
      </trkpt>
      <trkpt lat="44.58272" lon="3.6351">
        <ele>1211.4</ele>
        <time>2025-07-13T07:25:55Z</time>
      </trkpt>
      <trkpt lat="44.58272" lon="3.6351">
        <ele>1211.4</ele>
        <time>2025-07-13T07:26:09Z</time>
      </trkpt>
      <trkpt lat="44.58273" lon="3.63508">
        <ele>1210.92</ele>
        <time>2025-07-13T07:26:38Z</time>
      </trkpt>
      <trkpt lat="44.58273" lon="3.63511">
        <ele>1208.03</ele>
        <time>2025-07-13T07:27:02Z</time>
      </trkpt>
      <trkpt lat="44.58274" lon="3.6351">
        <ele>1207.55</ele>
        <time>2025-07-13T07:27:20Z</time>
      </trkpt>
      <trkpt lat="44.58274" lon="3.63511">
        <ele>1209</ele>
        <time>2025-07-13T07:27:40Z</time>
      </trkpt>
      <trkpt lat="44.58273" lon="3.63507">
        <ele>1209</ele>
        <time>2025-07-13T07:28:03Z</time>
      </trkpt>
      <trkpt lat="44.58273" lon="3.63505">
        <ele>1210.44</ele>
        <time>2025-07-13T07:28:38Z</time>
      </trkpt>
      <trkpt lat="44.58274" lon="3.63509">
        <ele>1208.03</ele>
        <time>2025-07-13T07:29:01Z</time>
      </trkpt>
      <trkpt lat="44.58274" lon="3.63507">
        <ele>1208.03</ele>
        <time>2025-07-13T07:29:27Z</time>
      </trkpt>
      <trkpt lat="44.58271" lon="3.63514">
        <ele>1209</ele>
        <time>2025-07-13T07:29:45Z</time>
      </trkpt>
      <trkpt lat="44.58273" lon="3.63514">
        <ele>1210.44</ele>
        <time>2025-07-13T07:30:09Z</time>
      </trkpt>
      <trkpt lat="44.58274" lon="3.63517">
        <ele>1207.55</ele>
        <time>2025-07-13T07:30:24Z</time>
      </trkpt>
      <trkpt lat="44.58276" lon="3.63521">
        <ele>1208.51</ele>
        <time>2025-07-13T07:30:47Z</time>
      </trkpt>
      <trkpt lat="44.58275" lon="3.6352">
        <ele>1208.51</ele>
        <time>2025-07-13T07:30:54Z</time>
      </trkpt>
      <trkpt lat="44.58272" lon="3.63518">
        <ele>1208.51</ele>
        <time>2025-07-13T07:31:07Z</time>
      </trkpt>
      <trkpt lat="44.58273" lon="3.63521">
        <ele>1207.07</ele>
        <time>2025-07-13T07:31:20Z</time>
      </trkpt>
      <trkpt lat="44.58281" lon="3.63532">
        <ele>1207.07</ele>
        <time>2025-07-13T07:31:34Z</time>
      </trkpt>
      <trkpt lat="44.58287" lon="3.63533">
        <ele>1206.11</ele>
        <time>2025-07-13T07:31:48Z</time>
      </trkpt>
      <trkpt lat="44.58291" lon="3.63537">
        <ele>1206.11</ele>
        <time>2025-07-13T07:32:07Z</time>
      </trkpt>
      <trkpt lat="44.58276" lon="3.63534">
        <ele>1210.92</ele>
        <time>2025-07-13T07:34:24Z</time>
      </trkpt>
      <trkpt lat="44.58276" lon="3.63532">
        <ele>1201.3</ele>
        <time>2025-07-13T07:34:36Z</time>
      </trkpt>
      <trkpt lat="44.58276" lon="3.63533">
        <ele>1202.27</ele>
        <time>2025-07-13T07:34:37Z</time>
      </trkpt>
      <trkpt lat="44.58272" lon="3.63534">
        <ele>1207.07</ele>
        <time>2025-07-13T07:34:52Z</time>
      </trkpt>
      <trkpt lat="44.58269" lon="3.6354">
        <ele>1208.03</ele>
        <time>2025-07-13T07:35:06Z</time>
      </trkpt>
      <trkpt lat="44.58272" lon="3.63545">
        <ele>1208.03</ele>
        <time>2025-07-13T07:35:21Z</time>
      </trkpt>
      <trkpt lat="44.58272" lon="3.63543">
        <ele>1208.03</ele>
        <time>2025-07-13T07:35:23Z</time>
      </trkpt>
      <trkpt lat="44.58276" lon="3.63525">
        <ele>1208.03</ele>
        <time>2025-07-13T07:35:41Z</time>
      </trkpt>
      <trkpt lat="44.58274" lon="3.6352">
        <ele>1209</ele>
        <time>2025-07-13T07:35:57Z</time>
      </trkpt>
      <trkpt lat="44.58272" lon="3.63518">
        <ele>1207.07</ele>
        <time>2025-07-13T07:36:21Z</time>
      </trkpt>
      <trkpt lat="44.58271" lon="3.63511">
        <ele>1206.59</ele>
        <time>2025-07-13T07:36:37Z</time>
      </trkpt>
      <trkpt lat="44.58273" lon="3.63509">
        <ele>1208.51</ele>
        <time>2025-07-13T07:37:05Z</time>
      </trkpt>
      <trkpt lat="44.58278" lon="3.63507">
        <ele>1209.96</ele>
        <time>2025-07-13T07:37:32Z</time>
      </trkpt>
      <trkpt lat="44.58275" lon="3.6351">
        <ele>1205.63</ele>
        <time>2025-07-13T07:37:53Z</time>
      </trkpt>
      <trkpt lat="44.58275" lon="3.63507">
        <ele>1204.67</ele>
        <time>2025-07-13T07:38:22Z</time>
      </trkpt>
      <trkpt lat="44.58276" lon="3.63522">
        <ele>1203.71</ele>
        <time>2025-07-13T07:38:38Z</time>
      </trkpt>
      <trkpt lat="44.58279" lon="3.63523">
        <ele>1202.27</ele>
        <time>2025-07-13T07:38:57Z</time>
      </trkpt>
      <trkpt lat="44.58279" lon="3.63527">
        <ele>1203.71</ele>
        <time>2025-07-13T07:39:23Z</time>
      </trkpt>
      <trkpt lat="44.58278" lon="3.63532">
        <ele>1201.3</ele>
        <time>2025-07-13T07:39:37Z</time>
      </trkpt>
      <trkpt lat="44.58276" lon="3.6353">
        <ele>1200.82</ele>
        <time>2025-07-13T07:39:55Z</time>
      </trkpt>
      <trkpt lat="44.58277" lon="3.63527">
        <ele>1200.82</ele>
        <time>2025-07-13T07:40:12Z</time>
      </trkpt>
      <trkpt lat="44.58279" lon="3.63531">
        <ele>1201.79</ele>
        <time>2025-07-13T07:40:29Z</time>
      </trkpt>
      <trkpt lat="44.58278" lon="3.63538">
        <ele>1203.23</ele>
        <time>2025-07-13T07:40:35Z</time>
      </trkpt>
      <trkpt lat="44.5828" lon="3.63548">
        <ele>1206.59</ele>
        <time>2025-07-13T07:40:47Z</time>
      </trkpt>
      <trkpt lat="44.58283" lon="3.63555">
        <ele>1206.11</ele>
        <time>2025-07-13T07:40:54Z</time>
      </trkpt>
      <trkpt lat="44.58286" lon="3.6356">
        <ele>1205.63</ele>
        <time>2025-07-13T07:40:59Z</time>
      </trkpt>
      <trkpt lat="44.58299" lon="3.6357">
        <ele>1207.55</ele>
        <time>2025-07-13T07:41:15Z</time>
      </trkpt>
      <trkpt lat="44.58302" lon="3.63577">
        <ele>1206.11</ele>
        <time>2025-07-13T07:41:21Z</time>
      </trkpt>
      <trkpt lat="44.58309" lon="3.6361">
        <ele>1201.3</ele>
        <time>2025-07-13T07:41:42Z</time>
      </trkpt>
      <trkpt lat="44.5831" lon="3.63638">
        <ele>1199.86</ele>
        <time>2025-07-13T07:42:02Z</time>
      </trkpt>
      <trkpt lat="44.58312" lon="3.63664">
        <ele>1198.9</ele>
        <time>2025-07-13T07:42:19Z</time>
      </trkpt>
      <trkpt lat="44.58328" lon="3.63702">
        <ele>1195.06</ele>
        <time>2025-07-13T07:42:45Z</time>
      </trkpt>
      <trkpt lat="44.58339" lon="3.63729">
        <ele>1193.61</ele>
        <time>2025-07-13T07:43:05Z</time>
      </trkpt>
      <trkpt lat="44.58353" lon="3.63764">
        <ele>1191.69</ele>
        <time>2025-07-13T07:43:27Z</time>
      </trkpt>
      <trkpt lat="44.58366" lon="3.63799">
        <ele>1192.65</ele>
        <time>2025-07-13T07:43:50Z</time>
      </trkpt>
      <trkpt lat="44.58378" lon="3.63833">
        <ele>1194.58</ele>
        <time>2025-07-13T07:44:13Z</time>
      </trkpt>
      <trkpt lat="44.58393" lon="3.6387">
        <ele>1196.5</ele>
        <time>2025-07-13T07:44:35Z</time>
      </trkpt>
      <trkpt lat="44.58403" lon="3.6389">
        <ele>1196.98</ele>
        <time>2025-07-13T07:44:51Z</time>
      </trkpt>
      <trkpt lat="44.58403" lon="3.63889">
        <ele>1198.9</ele>
        <time>2025-07-13T07:44:55Z</time>
      </trkpt>
      <trkpt lat="44.58409" lon="3.63886">
        <ele>1199.38</ele>
        <time>2025-07-13T07:45:03Z</time>
      </trkpt>
      <trkpt lat="44.58412" lon="3.63877">
        <ele>1197.46</ele>
        <time>2025-07-13T07:45:19Z</time>
      </trkpt>
      <trkpt lat="44.58412" lon="3.63878">
        <ele>1197.46</ele>
        <time>2025-07-13T07:45:37Z</time>
      </trkpt>
      <trkpt lat="44.58414" lon="3.63877">
        <ele>1196.98</ele>
        <time>2025-07-13T07:45:47Z</time>
      </trkpt>
      <trkpt lat="44.58412" lon="3.63875">
        <ele>1197.94</ele>
        <time>2025-07-13T07:45:57Z</time>
      </trkpt>
      <trkpt lat="44.58412" lon="3.63879">
        <ele>1197.46</ele>
        <time>2025-07-13T07:46:15Z</time>
      </trkpt>
      <trkpt lat="44.58415" lon="3.63876">
        <ele>1199.38</ele>
        <time>2025-07-13T07:46:30Z</time>
      </trkpt>
      <trkpt lat="44.58413" lon="3.63881">
        <ele>1198.9</ele>
        <time>2025-07-13T07:46:46Z</time>
      </trkpt>
      <trkpt lat="44.58409" lon="3.63887">
        <ele>1197.46</ele>
        <time>2025-07-13T07:47:04Z</time>
      </trkpt>
      <trkpt lat="44.58403" lon="3.63893">
        <ele>1199.38</ele>
        <time>2025-07-13T07:47:16Z</time>
      </trkpt>
      <trkpt lat="44.58399" lon="3.63889">
        <ele>1197.46</ele>
        <time>2025-07-13T07:47:27Z</time>
      </trkpt>
      <trkpt lat="44.584" lon="3.63889">
        <ele>1197.46</ele>
        <time>2025-07-13T07:47:28Z</time>
      </trkpt>
      <trkpt lat="44.58406" lon="3.63885">
        <ele>1197.46</ele>
        <time>2025-07-13T07:47:40Z</time>
      </trkpt>
      <trkpt lat="44.58417" lon="3.63877">
        <ele>1197.94</ele>
        <time>2025-07-13T07:47:55Z</time>
      </trkpt>
      <trkpt lat="44.58418" lon="3.63872">
        <ele>1197.46</ele>
        <time>2025-07-13T07:48:09Z</time>
      </trkpt>
      <trkpt lat="44.5842" lon="3.6387">
        <ele>1198.42</ele>
        <time>2025-07-13T07:48:23Z</time>
      </trkpt>
      <trkpt lat="44.58422" lon="3.63871">
        <ele>1197.46</ele>
        <time>2025-07-13T07:48:43Z</time>
      </trkpt>
      <trkpt lat="44.58422" lon="3.6387">
        <ele>1196.98</ele>
        <time>2025-07-13T07:49:08Z</time>
      </trkpt>
      <trkpt lat="44.58425" lon="3.63868">
        <ele>1195.06</ele>
        <time>2025-07-13T07:49:34Z</time>
      </trkpt>
      <trkpt lat="44.58427" lon="3.63866">
        <ele>1196.02</ele>
        <time>2025-07-13T07:49:57Z</time>
      </trkpt>
      <trkpt lat="44.58446" lon="3.63856">
        <ele>1196.02</ele>
        <time>2025-07-13T07:50:16Z</time>
      </trkpt>
      <trkpt lat="44.58464" lon="3.63849">
        <ele>1199.38</ele>
        <time>2025-07-13T07:50:32Z</time>
      </trkpt>
      <trkpt lat="44.5848" lon="3.6384">
        <ele>1200.34</ele>
        <time>2025-07-13T07:50:47Z</time>
      </trkpt>
      <trkpt lat="44.58494" lon="3.6383">
        <ele>1200.82</ele>
        <time>2025-07-13T07:51:03Z</time>
      </trkpt>
      <trkpt lat="44.58502" lon="3.63818">
        <ele>1200.34</ele>
        <time>2025-07-13T07:51:21Z</time>
      </trkpt>
      <trkpt lat="44.58516" lon="3.63795">
        <ele>1199.38</ele>
        <time>2025-07-13T07:51:39Z</time>
      </trkpt>
      <trkpt lat="44.58526" lon="3.63772">
        <ele>1199.86</ele>
        <time>2025-07-13T07:51:55Z</time>
      </trkpt>
      <trkpt lat="44.5854" lon="3.63746">
        <ele>1198.9</ele>
        <time>2025-07-13T07:52:12Z</time>
      </trkpt>
      <trkpt lat="44.58556" lon="3.63722">
        <ele>1198.42</ele>
        <time>2025-07-13T07:52:28Z</time>
      </trkpt>
      <trkpt lat="44.58574" lon="3.63698">
        <ele>1197.94</ele>
        <time>2025-07-13T07:52:47Z</time>
      </trkpt>
      <trkpt lat="44.58592" lon="3.63681">
        <ele>1196.98</ele>
        <time>2025-07-13T07:53:04Z</time>
      </trkpt>
      <trkpt lat="44.58613" lon="3.6366">
        <ele>1197.94</ele>
        <time>2025-07-13T07:53:23Z</time>
      </trkpt>
      <trkpt lat="44.58632" lon="3.63636">
        <ele>1198.9</ele>
        <time>2025-07-13T07:53:43Z</time>
      </trkpt>
      <trkpt lat="44.58648" lon="3.63612">
        <ele>1201.79</ele>
        <time>2025-07-13T07:53:59Z</time>
      </trkpt>
      <trkpt lat="44.58657" lon="3.63575">
        <ele>1207.07</ele>
        <time>2025-07-13T07:54:18Z</time>
      </trkpt>
      <trkpt lat="44.58665" lon="3.63546">
        <ele>1211.4</ele>
        <time>2025-07-13T07:54:34Z</time>
      </trkpt>
      <trkpt lat="44.58678" lon="3.63513">
        <ele>1214.76</ele>
        <time>2025-07-13T07:54:50Z</time>
      </trkpt>
      <trkpt lat="44.58694" lon="3.63485">
        <ele>1219.57</ele>
        <time>2025-07-13T07:55:07Z</time>
      </trkpt>
      <trkpt lat="44.58703" lon="3.63474">
        <ele>1225.82</ele>
        <time>2025-07-13T07:55:15Z</time>
      </trkpt>
      <trkpt lat="44.58705" lon="3.63459">
        <ele>1228.22</ele>
        <time>2025-07-13T07:55:29Z</time>
      </trkpt>
      <trkpt lat="44.58703" lon="3.63456">
        <ele>1229.66</ele>
        <time>2025-07-13T07:55:43Z</time>
      </trkpt>
      <trkpt lat="44.58704" lon="3.6346">
        <ele>1229.66</ele>
        <time>2025-07-13T07:55:50Z</time>
      </trkpt>
      <trkpt lat="44.58704" lon="3.63462">
        <ele>1230.14</ele>
        <time>2025-07-13T07:55:51Z</time>
      </trkpt>
      <trkpt lat="44.58705" lon="3.63465">
        <ele>1230.14</ele>
        <time>2025-07-13T07:55:52Z</time>
      </trkpt>
      <trkpt lat="44.58706" lon="3.63465">
        <ele>1230.14</ele>
        <time>2025-07-13T07:55:53Z</time>
      </trkpt>
      <trkpt lat="44.58707" lon="3.63467">
        <ele>1230.62</ele>
        <time>2025-07-13T07:55:54Z</time>
      </trkpt>
      <trkpt lat="44.58708" lon="3.63467">
        <ele>1230.62</ele>
        <time>2025-07-13T07:55:55Z</time>
      </trkpt>
      <trkpt lat="44.5871" lon="3.63467">
        <ele>1230.62</ele>
        <time>2025-07-13T07:55:57Z</time>
      </trkpt>
      <trkpt lat="44.58711" lon="3.63466">
        <ele>1230.62</ele>
        <time>2025-07-13T07:55:58Z</time>
      </trkpt>
      <trkpt lat="44.58713" lon="3.63464">
        <ele>1230.62</ele>
        <time>2025-07-13T07:55:59Z</time>
      </trkpt>
      <trkpt lat="44.58714" lon="3.63463">
        <ele>1231.11</ele>
        <time>2025-07-13T07:56:00Z</time>
      </trkpt>
      <trkpt lat="44.58726" lon="3.63451">
        <ele>1231.59</ele>
        <time>2025-07-13T07:56:14Z</time>
      </trkpt>
      <trkpt lat="44.5874" lon="3.6343">
        <ele>1230.14</ele>
        <time>2025-07-13T07:56:29Z</time>
      </trkpt>
      <trkpt lat="44.58751" lon="3.63409">
        <ele>1230.62</ele>
        <time>2025-07-13T07:56:45Z</time>
      </trkpt>
      <trkpt lat="44.58767" lon="3.63383">
        <ele>1229.66</ele>
        <time>2025-07-13T07:57:06Z</time>
      </trkpt>
      <trkpt lat="44.58786" lon="3.6336">
        <ele>1229.18</ele>
        <time>2025-07-13T07:57:25Z</time>
      </trkpt>
      <trkpt lat="44.58805" lon="3.63342">
        <ele>1228.7</ele>
        <time>2025-07-13T07:57:43Z</time>
      </trkpt>
      <trkpt lat="44.58818" lon="3.63329">
        <ele>1231.11</ele>
        <time>2025-07-13T07:58:00Z</time>
      </trkpt>
      <trkpt lat="44.58837" lon="3.63307">
        <ele>1237.83</ele>
        <time>2025-07-13T07:58:17Z</time>
      </trkpt>
      <trkpt lat="44.58851" lon="3.63299">
        <ele>1237.83</ele>
        <time>2025-07-13T07:58:33Z</time>
      </trkpt>
      <trkpt lat="44.58865" lon="3.63286">
        <ele>1238.32</ele>
        <time>2025-07-13T07:58:47Z</time>
      </trkpt>
      <trkpt lat="44.5889" lon="3.63266">
        <ele>1236.39</ele>
        <time>2025-07-13T07:59:02Z</time>
      </trkpt>
      <trkpt lat="44.5891" lon="3.63246">
        <ele>1234.95</ele>
        <time>2025-07-13T07:59:17Z</time>
      </trkpt>
      <trkpt lat="44.58922" lon="3.63219">
        <ele>1240.24</ele>
        <time>2025-07-13T07:59:34Z</time>
      </trkpt>
      <trkpt lat="44.5894" lon="3.63199">
        <ele>1243.6</ele>
        <time>2025-07-13T07:59:51Z</time>
      </trkpt>
      <trkpt lat="44.58955" lon="3.6318">
        <ele>1246.49</ele>
        <time>2025-07-13T08:00:06Z</time>
      </trkpt>
      <trkpt lat="44.58978" lon="3.63161">
        <ele>1249.37</ele>
        <time>2025-07-13T08:00:24Z</time>
      </trkpt>
      <trkpt lat="44.59005" lon="3.63142">
        <ele>1254.66</ele>
        <time>2025-07-13T08:00:47Z</time>
      </trkpt>
      <trkpt lat="44.59033" lon="3.63135">
        <ele>1258.02</ele>
        <time>2025-07-13T08:01:07Z</time>
      </trkpt>
      <trkpt lat="44.5906" lon="3.63133">
        <ele>1260.91</ele>
        <time>2025-07-13T08:01:28Z</time>
      </trkpt>
      <trkpt lat="44.59084" lon="3.63135">
        <ele>1263.79</ele>
        <time>2025-07-13T08:01:46Z</time>
      </trkpt>
      <trkpt lat="44.59107" lon="3.63138">
        <ele>1267.64</ele>
        <time>2025-07-13T08:02:03Z</time>
      </trkpt>
      <trkpt lat="44.59132" lon="3.63145">
        <ele>1270.52</ele>
        <time>2025-07-13T08:02:22Z</time>
      </trkpt>
      <trkpt lat="44.59155" lon="3.63144">
        <ele>1273.4</ele>
        <time>2025-07-13T08:02:39Z</time>
      </trkpt>
      <trkpt lat="44.59179" lon="3.63133">
        <ele>1273.4</ele>
        <time>2025-07-13T08:02:57Z</time>
      </trkpt>
      <trkpt lat="44.59208" lon="3.63119">
        <ele>1271.96</ele>
        <time>2025-07-13T08:03:17Z</time>
      </trkpt>
      <trkpt lat="44.59233" lon="3.6311">
        <ele>1271</ele>
        <time>2025-07-13T08:03:34Z</time>
      </trkpt>
      <trkpt lat="44.59255" lon="3.63099">
        <ele>1271</ele>
        <time>2025-07-13T08:03:51Z</time>
      </trkpt>
      <trkpt lat="44.59279" lon="3.6309">
        <ele>1271.96</ele>
        <time>2025-07-13T08:04:10Z</time>
      </trkpt>
      <trkpt lat="44.59301" lon="3.63084">
        <ele>1273.4</ele>
        <time>2025-07-13T08:04:26Z</time>
      </trkpt>
      <trkpt lat="44.59326" lon="3.63074">
        <ele>1274.85</ele>
        <time>2025-07-13T08:04:45Z</time>
      </trkpt>
      <trkpt lat="44.59341" lon="3.63051">
        <ele>1273.88</ele>
        <time>2025-07-13T08:05:02Z</time>
      </trkpt>
      <trkpt lat="44.59348" lon="3.63004">
        <ele>1270.04</ele>
        <time>2025-07-13T08:05:24Z</time>
      </trkpt>
      <trkpt lat="44.59354" lon="3.62969">
        <ele>1267.16</ele>
        <time>2025-07-13T08:05:42Z</time>
      </trkpt>
      <trkpt lat="44.59358" lon="3.62931">
        <ele>1263.79</ele>
        <time>2025-07-13T08:05:59Z</time>
      </trkpt>
      <trkpt lat="44.59366" lon="3.62888">
        <ele>1262.83</ele>
        <time>2025-07-13T08:06:18Z</time>
      </trkpt>
      <trkpt lat="44.59373" lon="3.62855">
        <ele>1265.71</ele>
        <time>2025-07-13T08:06:30Z</time>
      </trkpt>
      <trkpt lat="44.59383" lon="3.62834">
        <ele>1270.52</ele>
        <time>2025-07-13T08:06:46Z</time>
      </trkpt>
      <trkpt lat="44.59397" lon="3.62815">
        <ele>1277.25</ele>
        <time>2025-07-13T08:07:05Z</time>
      </trkpt>
      <trkpt lat="44.59419" lon="3.62801">
        <ele>1280.61</ele>
        <time>2025-07-13T08:07:23Z</time>
      </trkpt>
      <trkpt lat="44.59442" lon="3.6279">
        <ele>1282.06</ele>
        <time>2025-07-13T08:07:40Z</time>
      </trkpt>
      <trkpt lat="44.59459" lon="3.62771">
        <ele>1285.42</ele>
        <time>2025-07-13T08:07:58Z</time>
      </trkpt>
      <trkpt lat="44.59483" lon="3.62753">
        <ele>1287.34</ele>
        <time>2025-07-13T08:08:18Z</time>
      </trkpt>
      <trkpt lat="44.59496" lon="3.62741">
        <ele>1287.82</ele>
        <time>2025-07-13T08:08:29Z</time>
      </trkpt>
      <trkpt lat="44.59498" lon="3.62741">
        <ele>1288.3</ele>
        <time>2025-07-13T08:08:30Z</time>
      </trkpt>
      <trkpt lat="44.59519" lon="3.62725">
        <ele>1287.34</ele>
        <time>2025-07-13T08:08:49Z</time>
      </trkpt>
      <trkpt lat="44.59542" lon="3.62705">
        <ele>1293.11</ele>
        <time>2025-07-13T08:09:09Z</time>
      </trkpt>
      <trkpt lat="44.59564" lon="3.62688">
        <ele>1289.75</ele>
        <time>2025-07-13T08:09:28Z</time>
      </trkpt>
      <trkpt lat="44.59581" lon="3.6266">
        <ele>1288.3</ele>
        <time>2025-07-13T08:09:45Z</time>
      </trkpt>
      <trkpt lat="44.59591" lon="3.62633">
        <ele>1287.82</ele>
        <time>2025-07-13T08:10:00Z</time>
      </trkpt>
      <trkpt lat="44.59597" lon="3.62607">
        <ele>1287.82</ele>
        <time>2025-07-13T08:10:15Z</time>
      </trkpt>
      <trkpt lat="44.59608" lon="3.62579">
        <ele>1285.42</ele>
        <time>2025-07-13T08:10:31Z</time>
      </trkpt>
      <trkpt lat="44.59608" lon="3.62578">
        <ele>1284.94</ele>
        <time>2025-07-13T08:10:32Z</time>
      </trkpt>
      <trkpt lat="44.59613" lon="3.62547">
        <ele>1283.98</ele>
        <time>2025-07-13T08:10:49Z</time>
      </trkpt>
      <trkpt lat="44.59624" lon="3.62518">
        <ele>1283.02</ele>
        <time>2025-07-13T08:11:06Z</time>
      </trkpt>
      <trkpt lat="44.59632" lon="3.62489">
        <ele>1283.5</ele>
        <time>2025-07-13T08:11:23Z</time>
      </trkpt>
      <trkpt lat="44.59635" lon="3.62478">
        <ele>1283.02</ele>
        <time>2025-07-13T08:11:30Z</time>
      </trkpt>
      <trkpt lat="44.59636" lon="3.62477">
        <ele>1284.46</ele>
        <time>2025-07-13T08:11:31Z</time>
      </trkpt>
      <trkpt lat="44.59636" lon="3.62476">
        <ele>1285.42</ele>
        <time>2025-07-13T08:11:32Z</time>
      </trkpt>
      <trkpt lat="44.59648" lon="3.62466">
        <ele>1287.82</ele>
        <time>2025-07-13T08:11:42Z</time>
      </trkpt>
      <trkpt lat="44.5967" lon="3.62467">
        <ele>1291.67</ele>
        <time>2025-07-13T08:11:56Z</time>
      </trkpt>
      <trkpt lat="44.5969" lon="3.62471">
        <ele>1295.03</ele>
        <time>2025-07-13T08:12:12Z</time>
      </trkpt>
      <trkpt lat="44.59708" lon="3.62466">
        <ele>1297.44</ele>
        <time>2025-07-13T08:12:28Z</time>
      </trkpt>
      <trkpt lat="44.59719" lon="3.62458">
        <ele>1302.24</ele>
        <time>2025-07-13T08:12:39Z</time>
      </trkpt>
      <trkpt lat="44.5974" lon="3.62449">
        <ele>1309.93</ele>
        <time>2025-07-13T08:12:56Z</time>
      </trkpt>
      <trkpt lat="44.59755" lon="3.62445">
        <ele>1310.9</ele>
        <time>2025-07-13T08:13:07Z</time>
      </trkpt>
      <trkpt lat="44.59776" lon="3.62438">
        <ele>1313.78</ele>
        <time>2025-07-13T08:13:22Z</time>
      </trkpt>
      <trkpt lat="44.59788" lon="3.62435">
        <ele>1313.3</ele>
        <time>2025-07-13T08:13:29Z</time>
      </trkpt>
      <trkpt lat="44.5981" lon="3.62429">
        <ele>1313.78</ele>
        <time>2025-07-13T08:13:45Z</time>
      </trkpt>
      <trkpt lat="44.59829" lon="3.6242">
        <ele>1314.74</ele>
        <time>2025-07-13T08:14:01Z</time>
      </trkpt>
      <trkpt lat="44.59846" lon="3.62412">
        <ele>1317.62</ele>
        <time>2025-07-13T08:14:16Z</time>
      </trkpt>
      <trkpt lat="44.59847" lon="3.62411">
        <ele>1317.62</ele>
        <time>2025-07-13T08:14:17Z</time>
      </trkpt>
      <trkpt lat="44.59865" lon="3.62404">
        <ele>1320.99</ele>
        <time>2025-07-13T08:14:31Z</time>
      </trkpt>
      <trkpt lat="44.59883" lon="3.624">
        <ele>1322.91</ele>
        <time>2025-07-13T08:14:44Z</time>
      </trkpt>
      <trkpt lat="44.59904" lon="3.62396">
        <ele>1323.39</ele>
        <time>2025-07-13T08:14:58Z</time>
      </trkpt>
      <trkpt lat="44.59929" lon="3.62398">
        <ele>1321.95</ele>
        <time>2025-07-13T08:15:14Z</time>
      </trkpt>
      <trkpt lat="44.59932" lon="3.62398">
        <ele>1321.47</ele>
        <time>2025-07-13T08:15:16Z</time>
      </trkpt>
      <trkpt lat="44.59933" lon="3.62399">
        <ele>1321.47</ele>
        <time>2025-07-13T08:15:17Z</time>
      </trkpt>
      <trkpt lat="44.59949" lon="3.62414">
        <ele>1320.03</ele>
        <time>2025-07-13T08:15:30Z</time>
      </trkpt>
      <trkpt lat="44.59963" lon="3.62421">
        <ele>1320.99</ele>
        <time>2025-07-13T08:15:41Z</time>
      </trkpt>
      <trkpt lat="44.59965" lon="3.62422">
        <ele>1320.99</ele>
        <time>2025-07-13T08:15:42Z</time>
      </trkpt>
      <trkpt lat="44.59979" lon="3.62422">
        <ele>1322.43</ele>
        <time>2025-07-13T08:15:54Z</time>
      </trkpt>
      <trkpt lat="44.59997" lon="3.62419">
        <ele>1324.83</ele>
        <time>2025-07-13T08:16:09Z</time>
      </trkpt>
      <trkpt lat="44.60017" lon="3.62413">
        <ele>1323.39</ele>
        <time>2025-07-13T08:16:24Z</time>
      </trkpt>
      <trkpt lat="44.60037" lon="3.62402">
        <ele>1323.39</ele>
        <time>2025-07-13T08:16:38Z</time>
      </trkpt>
      <trkpt lat="44.60043" lon="3.62398">
        <ele>1323.39</ele>
        <time>2025-07-13T08:16:43Z</time>
      </trkpt>
      <trkpt lat="44.60057" lon="3.62386">
        <ele>1325.31</ele>
        <time>2025-07-13T08:16:58Z</time>
      </trkpt>
      <trkpt lat="44.60071" lon="3.62377">
        <ele>1328.2</ele>
        <time>2025-07-13T08:17:09Z</time>
      </trkpt>
      <trkpt lat="44.60073" lon="3.62376">
        <ele>1328.2</ele>
        <time>2025-07-13T08:17:10Z</time>
      </trkpt>
      <trkpt lat="44.60074" lon="3.62375">
        <ele>1328.2</ele>
        <time>2025-07-13T08:17:11Z</time>
      </trkpt>
      <trkpt lat="44.60075" lon="3.62374">
        <ele>1328.68</ele>
        <time>2025-07-13T08:17:12Z</time>
      </trkpt>
      <trkpt lat="44.60076" lon="3.62373">
        <ele>1328.68</ele>
        <time>2025-07-13T08:17:13Z</time>
      </trkpt>
      <trkpt lat="44.60095" lon="3.62365">
        <ele>1328.68</ele>
        <time>2025-07-13T08:17:25Z</time>
      </trkpt>
      <trkpt lat="44.60112" lon="3.62356">
        <ele>1331.08</ele>
        <time>2025-07-13T08:17:39Z</time>
      </trkpt>
      <trkpt lat="44.60114" lon="3.62355">
        <ele>1331.56</ele>
        <time>2025-07-13T08:17:41Z</time>
      </trkpt>
      <trkpt lat="44.60115" lon="3.62354">
        <ele>1332.04</ele>
        <time>2025-07-13T08:17:42Z</time>
      </trkpt>
      <trkpt lat="44.60116" lon="3.62353">
        <ele>1332.04</ele>
        <time>2025-07-13T08:17:43Z</time>
      </trkpt>
      <trkpt lat="44.60132" lon="3.62345">
        <ele>1338.29</ele>
        <time>2025-07-13T08:17:58Z</time>
      </trkpt>
      <trkpt lat="44.60147" lon="3.6234">
        <ele>1341.18</ele>
        <time>2025-07-13T08:18:10Z</time>
      </trkpt>
      <trkpt lat="44.60164" lon="3.62333">
        <ele>1340.7</ele>
        <time>2025-07-13T08:18:23Z</time>
      </trkpt>
      <trkpt lat="44.60169" lon="3.6233">
        <ele>1340.22</ele>
        <time>2025-07-13T08:18:28Z</time>
      </trkpt>
      <trkpt lat="44.60189" lon="3.62321">
        <ele>1337.81</ele>
        <time>2025-07-13T08:18:43Z</time>
      </trkpt>
      <trkpt lat="44.60202" lon="3.62309">
        <ele>1338.29</ele>
        <time>2025-07-13T08:18:58Z</time>
      </trkpt>
      <trkpt lat="44.60221" lon="3.62295">
        <ele>1337.33</ele>
        <time>2025-07-13T08:19:13Z</time>
      </trkpt>
      <trkpt lat="44.60232" lon="3.62278">
        <ele>1339.25</ele>
        <time>2025-07-13T08:19:27Z</time>
      </trkpt>
      <trkpt lat="44.60243" lon="3.62255">
        <ele>1340.22</ele>
        <time>2025-07-13T08:19:42Z</time>
      </trkpt>
      <trkpt lat="44.60244" lon="3.62252">
        <ele>1340.7</ele>
        <time>2025-07-13T08:19:44Z</time>
      </trkpt>
      <trkpt lat="44.60249" lon="3.62247">
        <ele>1340.7</ele>
        <time>2025-07-13T08:19:48Z</time>
      </trkpt>
      <trkpt lat="44.60251" lon="3.62246">
        <ele>1340.7</ele>
        <time>2025-07-13T08:19:49Z</time>
      </trkpt>
      <trkpt lat="44.60269" lon="3.62237">
        <ele>1342.62</ele>
        <time>2025-07-13T08:20:04Z</time>
      </trkpt>
      <trkpt lat="44.60278" lon="3.62232">
        <ele>1346.46</ele>
        <time>2025-07-13T08:20:12Z</time>
      </trkpt>
      <trkpt lat="44.60279" lon="3.62231">
        <ele>1346.94</ele>
        <time>2025-07-13T08:20:13Z</time>
      </trkpt>
      <trkpt lat="44.6028" lon="3.6223">
        <ele>1347.43</ele>
        <time>2025-07-13T08:20:14Z</time>
      </trkpt>
      <trkpt lat="44.60285" lon="3.62224">
        <ele>1348.39</ele>
        <time>2025-07-13T08:20:20Z</time>
      </trkpt>
      <trkpt lat="44.60286" lon="3.62223">
        <ele>1348.87</ele>
        <time>2025-07-13T08:20:21Z</time>
      </trkpt>
      <trkpt lat="44.60287" lon="3.62221">
        <ele>1348.87</ele>
        <time>2025-07-13T08:20:22Z</time>
      </trkpt>
      <trkpt lat="44.60287" lon="3.6222">
        <ele>1348.87</ele>
        <time>2025-07-13T08:20:23Z</time>
      </trkpt>
      <trkpt lat="44.60288" lon="3.62219">
        <ele>1348.87</ele>
        <time>2025-07-13T08:20:24Z</time>
      </trkpt>
      <trkpt lat="44.60289" lon="3.62217">
        <ele>1348.87</ele>
        <time>2025-07-13T08:20:25Z</time>
      </trkpt>
      <trkpt lat="44.6029" lon="3.62216">
        <ele>1348.39</ele>
        <time>2025-07-13T08:20:26Z</time>
      </trkpt>
      <trkpt lat="44.60291" lon="3.62215">
        <ele>1348.39</ele>
        <time>2025-07-13T08:20:27Z</time>
      </trkpt>
      <trkpt lat="44.60292" lon="3.62214">
        <ele>1347.91</ele>
        <time>2025-07-13T08:20:28Z</time>
      </trkpt>
      <trkpt lat="44.60292" lon="3.62212">
        <ele>1347.91</ele>
        <time>2025-07-13T08:20:29Z</time>
      </trkpt>
      <trkpt lat="44.60293" lon="3.62211">
        <ele>1347.43</ele>
        <time>2025-07-13T08:20:30Z</time>
      </trkpt>
      <trkpt lat="44.60296" lon="3.62206">
        <ele>1346.46</ele>
        <time>2025-07-13T08:20:35Z</time>
      </trkpt>
      <trkpt lat="44.60297" lon="3.62204">
        <ele>1346.46</ele>
        <time>2025-07-13T08:20:36Z</time>
      </trkpt>
      <trkpt lat="44.60297" lon="3.62202">
        <ele>1346.46</ele>
        <time>2025-07-13T08:20:37Z</time>
      </trkpt>
      <trkpt lat="44.60298" lon="3.62201">
        <ele>1345.98</ele>
        <time>2025-07-13T08:20:38Z</time>
      </trkpt>
      <trkpt lat="44.603" lon="3.62181">
        <ele>1345.5</ele>
        <time>2025-07-13T08:20:51Z</time>
      </trkpt>
      <trkpt lat="44.60301" lon="3.62174">
        <ele>1345.02</ele>
        <time>2025-07-13T08:20:54Z</time>
      </trkpt>
      <trkpt lat="44.60309" lon="3.62152">
        <ele>1345.5</ele>
        <time>2025-07-13T08:21:08Z</time>
      </trkpt>
      <trkpt lat="44.60317" lon="3.62127">
        <ele>1345.02</ele>
        <time>2025-07-13T08:21:22Z</time>
      </trkpt>
      <trkpt lat="44.60327" lon="3.62106">
        <ele>1346.94</ele>
        <time>2025-07-13T08:21:37Z</time>
      </trkpt>
      <trkpt lat="44.60331" lon="3.62103">
        <ele>1347.43</ele>
        <time>2025-07-13T08:21:41Z</time>
      </trkpt>
      <trkpt lat="44.60332" lon="3.62101">
        <ele>1347.43</ele>
        <time>2025-07-13T08:21:42Z</time>
      </trkpt>
      <trkpt lat="44.60335" lon="3.62099">
        <ele>1347.91</ele>
        <time>2025-07-13T08:21:45Z</time>
      </trkpt>
      <trkpt lat="44.60336" lon="3.62099">
        <ele>1348.39</ele>
        <time>2025-07-13T08:21:46Z</time>
      </trkpt>
      <trkpt lat="44.60345" lon="3.62097">
        <ele>1350.79</ele>
        <time>2025-07-13T08:21:54Z</time>
      </trkpt>
      <trkpt lat="44.60346" lon="3.62096">
        <ele>1350.79</ele>
        <time>2025-07-13T08:21:55Z</time>
      </trkpt>
      <trkpt lat="44.60347" lon="3.62095">
        <ele>1350.79</ele>
        <time>2025-07-13T08:21:56Z</time>
      </trkpt>
      <trkpt lat="44.60348" lon="3.62095">
        <ele>1351.27</ele>
        <time>2025-07-13T08:21:57Z</time>
      </trkpt>
      <trkpt lat="44.6035" lon="3.62094">
        <ele>1351.75</ele>
        <time>2025-07-13T08:21:58Z</time>
      </trkpt>
      <trkpt lat="44.60371" lon="3.62101">
        <ele>1353.19</ele>
        <time>2025-07-13T08:22:15Z</time>
      </trkpt>
      <trkpt lat="44.60386" lon="3.62107">
        <ele>1355.12</ele>
        <time>2025-07-13T08:22:28Z</time>
      </trkpt>
      <trkpt lat="44.604" lon="3.62112">
        <ele>1357.52</ele>
        <time>2025-07-13T08:22:42Z</time>
      </trkpt>
      <trkpt lat="44.60402" lon="3.62109">
        <ele>1358</ele>
        <time>2025-07-13T08:22:48Z</time>
      </trkpt>
      <trkpt lat="44.60402" lon="3.62108">
        <ele>1358</ele>
        <time>2025-07-13T08:22:49Z</time>
      </trkpt>
      <trkpt lat="44.6039" lon="3.62082">
        <ele>1356.56</ele>
        <time>2025-07-13T08:23:08Z</time>
      </trkpt>
      <trkpt lat="44.60381" lon="3.62056">
        <ele>1357.04</ele>
        <time>2025-07-13T08:23:24Z</time>
      </trkpt>
      <trkpt lat="44.60374" lon="3.62029">
        <ele>1357.04</ele>
        <time>2025-07-13T08:23:40Z</time>
      </trkpt>
      <trkpt lat="44.60369" lon="3.62">
        <ele>1358</ele>
        <time>2025-07-13T08:23:57Z</time>
      </trkpt>
      <trkpt lat="44.60365" lon="3.61968">
        <ele>1357.52</ele>
        <time>2025-07-13T08:24:15Z</time>
      </trkpt>
      <trkpt lat="44.60363" lon="3.61933">
        <ele>1358.48</ele>
        <time>2025-07-13T08:24:35Z</time>
      </trkpt>
      <trkpt lat="44.60364" lon="3.61901">
        <ele>1358.96</ele>
        <time>2025-07-13T08:24:53Z</time>
      </trkpt>
      <trkpt lat="44.60366" lon="3.61869">
        <ele>1359.92</ele>
        <time>2025-07-13T08:25:11Z</time>
      </trkpt>
      <trkpt lat="44.60369" lon="3.61836">
        <ele>1360.4</ele>
        <time>2025-07-13T08:25:29Z</time>
      </trkpt>
      <trkpt lat="44.60372" lon="3.61802">
        <ele>1361.36</ele>
        <time>2025-07-13T08:25:47Z</time>
      </trkpt>
      <trkpt lat="44.60374" lon="3.61771">
        <ele>1362.81</ele>
        <time>2025-07-13T08:26:05Z</time>
      </trkpt>
      <trkpt lat="44.60377" lon="3.61737">
        <ele>1363.29</ele>
        <time>2025-07-13T08:26:24Z</time>
      </trkpt>
      <trkpt lat="44.60381" lon="3.61705">
        <ele>1362.81</ele>
        <time>2025-07-13T08:26:42Z</time>
      </trkpt>
      <trkpt lat="44.60386" lon="3.6168">
        <ele>1361.84</ele>
        <time>2025-07-13T08:26:58Z</time>
      </trkpt>
      <trkpt lat="44.6039" lon="3.61651">
        <ele>1363.77</ele>
        <time>2025-07-13T08:27:14Z</time>
      </trkpt>
      <trkpt lat="44.60398" lon="3.61627">
        <ele>1363.77</ele>
        <time>2025-07-13T08:27:29Z</time>
      </trkpt>
      <trkpt lat="44.60408" lon="3.61602">
        <ele>1364.73</ele>
        <time>2025-07-13T08:27:45Z</time>
      </trkpt>
      <trkpt lat="44.60414" lon="3.6159">
        <ele>1363.77</ele>
        <time>2025-07-13T08:27:53Z</time>
      </trkpt>
      <trkpt lat="44.60414" lon="3.61588">
        <ele>1363.77</ele>
        <time>2025-07-13T08:27:54Z</time>
      </trkpt>
      <trkpt lat="44.60415" lon="3.61586">
        <ele>1363.77</ele>
        <time>2025-07-13T08:27:55Z</time>
      </trkpt>
      <trkpt lat="44.60416" lon="3.61584">
        <ele>1363.77</ele>
        <time>2025-07-13T08:27:56Z</time>
      </trkpt>
      <trkpt lat="44.60417" lon="3.61583">
        <ele>1363.77</ele>
        <time>2025-07-13T08:27:57Z</time>
      </trkpt>
      <trkpt lat="44.60427" lon="3.61565">
        <ele>1364.25</ele>
        <time>2025-07-13T08:28:10Z</time>
      </trkpt>
      <trkpt lat="44.60436" lon="3.61538">
        <ele>1364.25</ele>
        <time>2025-07-13T08:28:25Z</time>
      </trkpt>
      <trkpt lat="44.60443" lon="3.61516">
        <ele>1363.77</ele>
        <time>2025-07-13T08:28:38Z</time>
      </trkpt>
      <trkpt lat="44.60443" lon="3.61514">
        <ele>1363.77</ele>
        <time>2025-07-13T08:28:39Z</time>
      </trkpt>
      <trkpt lat="44.60444" lon="3.61512">
        <ele>1363.77</ele>
        <time>2025-07-13T08:28:40Z</time>
      </trkpt>
      <trkpt lat="44.60445" lon="3.61509">
        <ele>1363.77</ele>
        <time>2025-07-13T08:28:42Z</time>
      </trkpt>
      <trkpt lat="44.60445" lon="3.61508">
        <ele>1364.25</ele>
        <time>2025-07-13T08:28:43Z</time>
      </trkpt>
      <trkpt lat="44.60447" lon="3.61485">
        <ele>1366.65</ele>
        <time>2025-07-13T08:28:56Z</time>
      </trkpt>
      <trkpt lat="44.60445" lon="3.61459">
        <ele>1368.09</ele>
        <time>2025-07-13T08:29:09Z</time>
      </trkpt>
      <trkpt lat="44.60443" lon="3.61435">
        <ele>1368.57</ele>
        <time>2025-07-13T08:29:22Z</time>
      </trkpt>
      <trkpt lat="44.60441" lon="3.61418">
        <ele>1370.5</ele>
        <time>2025-07-13T08:29:30Z</time>
      </trkpt>
      <trkpt lat="44.60438" lon="3.6139">
        <ele>1370.98</ele>
        <time>2025-07-13T08:29:44Z</time>
      </trkpt>
      <trkpt lat="44.60432" lon="3.6136">
        <ele>1371.94</ele>
        <time>2025-07-13T08:30:00Z</time>
      </trkpt>
      <trkpt lat="44.60426" lon="3.61329">
        <ele>1371.46</ele>
        <time>2025-07-13T08:30:16Z</time>
      </trkpt>
      <trkpt lat="44.60425" lon="3.61305">
        <ele>1370.98</ele>
        <time>2025-07-13T08:30:30Z</time>
      </trkpt>
      <trkpt lat="44.60426" lon="3.61272">
        <ele>1371.94</ele>
        <time>2025-07-13T08:30:47Z</time>
      </trkpt>
      <trkpt lat="44.60431" lon="3.61237">
        <ele>1372.42</ele>
        <time>2025-07-13T08:31:03Z</time>
      </trkpt>
      <trkpt lat="44.60436" lon="3.61212">
        <ele>1371.94</ele>
        <time>2025-07-13T08:31:10Z</time>
      </trkpt>
      <trkpt lat="44.60436" lon="3.61211">
        <ele>1372.42</ele>
        <time>2025-07-13T08:31:11Z</time>
      </trkpt>
      <trkpt lat="44.60437" lon="3.61209">
        <ele>1372.42</ele>
        <time>2025-07-13T08:31:12Z</time>
      </trkpt>
      <trkpt lat="44.60438" lon="3.61208">
        <ele>1372.42</ele>
        <time>2025-07-13T08:31:13Z</time>
      </trkpt>
      <trkpt lat="44.60442" lon="3.61193">
        <ele>1374.34</ele>
        <time>2025-07-13T08:31:22Z</time>
      </trkpt>
      <trkpt lat="44.60444" lon="3.61192">
        <ele>1374.82</ele>
        <time>2025-07-13T08:31:23Z</time>
      </trkpt>
      <trkpt lat="44.60445" lon="3.61191">
        <ele>1374.82</ele>
        <time>2025-07-13T08:31:24Z</time>
      </trkpt>
      <trkpt lat="44.60446" lon="3.6119">
        <ele>1375.3</ele>
        <time>2025-07-13T08:31:25Z</time>
      </trkpt>
      <trkpt lat="44.60446" lon="3.61188">
        <ele>1375.3</ele>
        <time>2025-07-13T08:31:26Z</time>
      </trkpt>
      <trkpt lat="44.60448" lon="3.61186">
        <ele>1375.78</ele>
        <time>2025-07-13T08:31:28Z</time>
      </trkpt>
      <trkpt lat="44.60449" lon="3.61184">
        <ele>1375.78</ele>
        <time>2025-07-13T08:31:29Z</time>
      </trkpt>
      <trkpt lat="44.60464" lon="3.6115">
        <ele>1378.19</ele>
        <time>2025-07-13T08:31:48Z</time>
      </trkpt>
      <trkpt lat="44.60477" lon="3.61137">
        <ele>1378.19</ele>
        <time>2025-07-13T08:31:58Z</time>
      </trkpt>
      <trkpt lat="44.60483" lon="3.61127">
        <ele>1378.19</ele>
        <time>2025-07-13T08:32:08Z</time>
      </trkpt>
      <trkpt lat="44.60485" lon="3.61127">
        <ele>1378.19</ele>
        <time>2025-07-13T08:32:09Z</time>
      </trkpt>
      <trkpt lat="44.60488" lon="3.61127">
        <ele>1378.19</ele>
        <time>2025-07-13T08:32:10Z</time>
      </trkpt>
      <trkpt lat="44.60502" lon="3.6111">
        <ele>1375.78</ele>
        <time>2025-07-13T08:32:23Z</time>
      </trkpt>
      <trkpt lat="44.60509" lon="3.61098">
        <ele>1373.86</ele>
        <time>2025-07-13T08:32:31Z</time>
      </trkpt>
      <trkpt lat="44.6051" lon="3.61096">
        <ele>1374.34</ele>
        <time>2025-07-13T08:32:32Z</time>
      </trkpt>
      <trkpt lat="44.60511" lon="3.61095">
        <ele>1374.34</ele>
        <time>2025-07-13T08:32:33Z</time>
      </trkpt>
      <trkpt lat="44.60512" lon="3.61093">
        <ele>1374.34</ele>
        <time>2025-07-13T08:32:34Z</time>
      </trkpt>
      <trkpt lat="44.60512" lon="3.61091">
        <ele>1374.82</ele>
        <time>2025-07-13T08:32:35Z</time>
      </trkpt>
      <trkpt lat="44.60512" lon="3.61089">
        <ele>1374.82</ele>
        <time>2025-07-13T08:32:36Z</time>
      </trkpt>
      <trkpt lat="44.60512" lon="3.61087">
        <ele>1375.3</ele>
        <time>2025-07-13T08:32:37Z</time>
      </trkpt>
      <trkpt lat="44.60512" lon="3.61085">
        <ele>1374.82</ele>
        <time>2025-07-13T08:32:38Z</time>
      </trkpt>
      <trkpt lat="44.60513" lon="3.61083">
        <ele>1374.82</ele>
        <time>2025-07-13T08:32:39Z</time>
      </trkpt>
      <trkpt lat="44.60513" lon="3.61081">
        <ele>1375.3</ele>
        <time>2025-07-13T08:32:40Z</time>
      </trkpt>
      <trkpt lat="44.60514" lon="3.6108">
        <ele>1375.3</ele>
        <time>2025-07-13T08:32:41Z</time>
      </trkpt>
      <trkpt lat="44.60515" lon="3.61078">
        <ele>1375.3</ele>
        <time>2025-07-13T08:32:42Z</time>
      </trkpt>
      <trkpt lat="44.60523" lon="3.61062">
        <ele>1375.78</ele>
        <time>2025-07-13T08:32:52Z</time>
      </trkpt>
      <trkpt lat="44.60524" lon="3.61061">
        <ele>1376.26</ele>
        <time>2025-07-13T08:32:53Z</time>
      </trkpt>
      <trkpt lat="44.60525" lon="3.61059">
        <ele>1376.26</ele>
        <time>2025-07-13T08:32:54Z</time>
      </trkpt>
      <trkpt lat="44.60526" lon="3.61058">
        <ele>1376.75</ele>
        <time>2025-07-13T08:32:55Z</time>
      </trkpt>
      <trkpt lat="44.60527" lon="3.61057">
        <ele>1377.23</ele>
        <time>2025-07-13T08:32:56Z</time>
      </trkpt>
      <trkpt lat="44.60529" lon="3.61056">
        <ele>1377.23</ele>
        <time>2025-07-13T08:32:57Z</time>
      </trkpt>
      <trkpt lat="44.60542" lon="3.6104">
        <ele>1376.75</ele>
        <time>2025-07-13T08:33:09Z</time>
      </trkpt>
      <trkpt lat="44.60548" lon="3.61024">
        <ele>1374.34</ele>
        <time>2025-07-13T08:33:22Z</time>
      </trkpt>
      <trkpt lat="44.60548" lon="3.61021">
        <ele>1374.82</ele>
        <time>2025-07-13T08:33:23Z</time>
      </trkpt>
      <trkpt lat="44.60553" lon="3.60993">
        <ele>1378.67</ele>
        <time>2025-07-13T08:33:39Z</time>
      </trkpt>
      <trkpt lat="44.60564" lon="3.60971">
        <ele>1380.59</ele>
        <time>2025-07-13T08:33:53Z</time>
      </trkpt>
      <trkpt lat="44.60582" lon="3.60949">
        <ele>1384.44</ele>
        <time>2025-07-13T08:34:07Z</time>
      </trkpt>
      <trkpt lat="44.60598" lon="3.60937">
        <ele>1385.88</ele>
        <time>2025-07-13T08:34:21Z</time>
      </trkpt>
      <trkpt lat="44.60619" lon="3.60926">
        <ele>1387.32</ele>
        <time>2025-07-13T08:34:38Z</time>
      </trkpt>
      <trkpt lat="44.60637" lon="3.60919">
        <ele>1388.76</ele>
        <time>2025-07-13T08:34:53Z</time>
      </trkpt>
      <trkpt lat="44.60654" lon="3.60919">
        <ele>1388.76</ele>
        <time>2025-07-13T08:35:06Z</time>
      </trkpt>
      <trkpt lat="44.60674" lon="3.6092">
        <ele>1389.72</ele>
        <time>2025-07-13T08:35:22Z</time>
      </trkpt>
      <trkpt lat="44.60692" lon="3.60922">
        <ele>1391.65</ele>
        <time>2025-07-13T08:35:35Z</time>
      </trkpt>
      <trkpt lat="44.6071" lon="3.60923">
        <ele>1391.65</ele>
        <time>2025-07-13T08:35:49Z</time>
      </trkpt>
      <trkpt lat="44.6072" lon="3.60924">
        <ele>1392.13</ele>
        <time>2025-07-13T08:35:56Z</time>
      </trkpt>
      <trkpt lat="44.60721" lon="3.60924">
        <ele>1392.13</ele>
        <time>2025-07-13T08:35:57Z</time>
      </trkpt>
      <trkpt lat="44.60722" lon="3.60924">
        <ele>1392.13</ele>
        <time>2025-07-13T08:35:58Z</time>
      </trkpt>
      <trkpt lat="44.60744" lon="3.60927">
        <ele>1392.13</ele>
        <time>2025-07-13T08:36:15Z</time>
      </trkpt>
      <trkpt lat="44.60767" lon="3.60931">
        <ele>1392.13</ele>
        <time>2025-07-13T08:36:31Z</time>
      </trkpt>
      <trkpt lat="44.60785" lon="3.60933">
        <ele>1393.09</ele>
        <time>2025-07-13T08:36:45Z</time>
      </trkpt>
      <trkpt lat="44.60801" lon="3.60935">
        <ele>1391.65</ele>
        <time>2025-07-13T08:36:56Z</time>
      </trkpt>
      <trkpt lat="44.60822" lon="3.60932">
        <ele>1391.65</ele>
        <time>2025-07-13T08:37:12Z</time>
      </trkpt>
      <trkpt lat="44.60837" lon="3.60926">
        <ele>1390.68</ele>
        <time>2025-07-13T08:37:26Z</time>
      </trkpt>
      <trkpt lat="44.60854" lon="3.60915">
        <ele>1388.76</ele>
        <time>2025-07-13T08:37:41Z</time>
      </trkpt>
      <trkpt lat="44.60876" lon="3.60902">
        <ele>1385.88</ele>
        <time>2025-07-13T08:37:59Z</time>
      </trkpt>
      <trkpt lat="44.60893" lon="3.60883">
        <ele>1387.32</ele>
        <time>2025-07-13T08:38:15Z</time>
      </trkpt>
      <trkpt lat="44.60897" lon="3.60879">
        <ele>1387.32</ele>
        <time>2025-07-13T08:38:19Z</time>
      </trkpt>
      <trkpt lat="44.60898" lon="3.60877">
        <ele>1386.84</ele>
        <time>2025-07-13T08:38:20Z</time>
      </trkpt>
      <trkpt lat="44.60899" lon="3.60876">
        <ele>1386.84</ele>
        <time>2025-07-13T08:38:21Z</time>
      </trkpt>
      <trkpt lat="44.609" lon="3.60875">
        <ele>1386.84</ele>
        <time>2025-07-13T08:38:22Z</time>
      </trkpt>
      <trkpt lat="44.60901" lon="3.60874">
        <ele>1386.36</ele>
        <time>2025-07-13T08:38:23Z</time>
      </trkpt>
      <trkpt lat="44.60903" lon="3.60872">
        <ele>1386.36</ele>
        <time>2025-07-13T08:38:24Z</time>
      </trkpt>
      <trkpt lat="44.60904" lon="3.60871">
        <ele>1386.36</ele>
        <time>2025-07-13T08:38:25Z</time>
      </trkpt>
      <trkpt lat="44.60918" lon="3.6085">
        <ele>1386.84</ele>
        <time>2025-07-13T08:38:39Z</time>
      </trkpt>
      <trkpt lat="44.60923" lon="3.60841">
        <ele>1387.32</ele>
        <time>2025-07-13T08:38:45Z</time>
      </trkpt>
      <trkpt lat="44.60923" lon="3.60839">
        <ele>1387.8</ele>
        <time>2025-07-13T08:38:46Z</time>
      </trkpt>
      <trkpt lat="44.60924" lon="3.60834">
        <ele>1387.32</ele>
        <time>2025-07-13T08:38:49Z</time>
      </trkpt>
      <trkpt lat="44.60925" lon="3.60832">
        <ele>1387.8</ele>
        <time>2025-07-13T08:38:50Z</time>
      </trkpt>
      <trkpt lat="44.60926" lon="3.6083">
        <ele>1387.8</ele>
        <time>2025-07-13T08:38:51Z</time>
      </trkpt>
      <trkpt lat="44.60927" lon="3.60828">
        <ele>1387.8</ele>
        <time>2025-07-13T08:38:52Z</time>
      </trkpt>
      <trkpt lat="44.60927" lon="3.60826">
        <ele>1387.8</ele>
        <time>2025-07-13T08:38:53Z</time>
      </trkpt>
      <trkpt lat="44.60929" lon="3.60823">
        <ele>1388.28</ele>
        <time>2025-07-13T08:38:55Z</time>
      </trkpt>
      <trkpt lat="44.6093" lon="3.60816">
        <ele>1386.36</ele>
        <time>2025-07-13T08:39:00Z</time>
      </trkpt>
      <trkpt lat="44.60931" lon="3.60812">
        <ele>1385.88</ele>
        <time>2025-07-13T08:39:02Z</time>
      </trkpt>
      <trkpt lat="44.60933" lon="3.60802">
        <ele>1385.4</ele>
        <time>2025-07-13T08:39:08Z</time>
      </trkpt>
      <trkpt lat="44.60935" lon="3.60798">
        <ele>1385.4</ele>
        <time>2025-07-13T08:39:10Z</time>
      </trkpt>
      <trkpt lat="44.60936" lon="3.60797">
        <ele>1384.92</ele>
        <time>2025-07-13T08:39:11Z</time>
      </trkpt>
      <trkpt lat="44.60937" lon="3.60794">
        <ele>1384.92</ele>
        <time>2025-07-13T08:39:12Z</time>
      </trkpt>
      <trkpt lat="44.60938" lon="3.60792">
        <ele>1384.44</ele>
        <time>2025-07-13T08:39:13Z</time>
      </trkpt>
      <trkpt lat="44.60938" lon="3.6079">
        <ele>1384.44</ele>
        <time>2025-07-13T08:39:14Z</time>
      </trkpt>
      <trkpt lat="44.60942" lon="3.60779">
        <ele>1385.88</ele>
        <time>2025-07-13T08:39:21Z</time>
      </trkpt>
      <trkpt lat="44.60942" lon="3.60777">
        <ele>1385.88</ele>
        <time>2025-07-13T08:39:22Z</time>
      </trkpt>
      <trkpt lat="44.60942" lon="3.60775">
        <ele>1386.36</ele>
        <time>2025-07-13T08:39:23Z</time>
      </trkpt>
      <trkpt lat="44.60945" lon="3.60764">
        <ele>1387.8</ele>
        <time>2025-07-13T08:39:35Z</time>
      </trkpt>
      <trkpt lat="44.60946" lon="3.60742">
        <ele>1387.8</ele>
        <time>2025-07-13T08:39:47Z</time>
      </trkpt>
      <trkpt lat="44.60947" lon="3.6073">
        <ele>1387.32</ele>
        <time>2025-07-13T08:40:00Z</time>
      </trkpt>
      <trkpt lat="44.60947" lon="3.60723">
        <ele>1388.28</ele>
        <time>2025-07-13T08:40:08Z</time>
      </trkpt>
      <trkpt lat="44.6095" lon="3.60711">
        <ele>1387.8</ele>
        <time>2025-07-13T08:40:16Z</time>
      </trkpt>
      <trkpt lat="44.60949" lon="3.60709">
        <ele>1387.8</ele>
        <time>2025-07-13T08:40:17Z</time>
      </trkpt>
      <trkpt lat="44.60946" lon="3.607">
        <ele>1389.72</ele>
        <time>2025-07-13T08:40:31Z</time>
      </trkpt>
      <trkpt lat="44.60944" lon="3.60693">
        <ele>1389.72</ele>
        <time>2025-07-13T08:40:49Z</time>
      </trkpt>
      <trkpt lat="44.60944" lon="3.60683">
        <ele>1387.8</ele>
        <time>2025-07-13T08:41:02Z</time>
      </trkpt>
      <trkpt lat="44.60944" lon="3.60668">
        <ele>1385.4</ele>
        <time>2025-07-13T08:41:16Z</time>
      </trkpt>
      <trkpt lat="44.60942" lon="3.60651">
        <ele>1384.44</ele>
        <time>2025-07-13T08:41:31Z</time>
      </trkpt>
      <trkpt lat="44.6094" lon="3.60635">
        <ele>1385.4</ele>
        <time>2025-07-13T08:41:45Z</time>
      </trkpt>
      <trkpt lat="44.6094" lon="3.60613">
        <ele>1386.36</ele>
        <time>2025-07-13T08:42:01Z</time>
      </trkpt>
      <trkpt lat="44.6094" lon="3.6061">
        <ele>1386.36</ele>
        <time>2025-07-13T08:42:03Z</time>
      </trkpt>
      <trkpt lat="44.6094" lon="3.60605">
        <ele>1386.84</ele>
        <time>2025-07-13T08:42:06Z</time>
      </trkpt>
      <trkpt lat="44.60937" lon="3.60582">
        <ele>1386.84</ele>
        <time>2025-07-13T08:42:20Z</time>
      </trkpt>
      <trkpt lat="44.60936" lon="3.60561">
        <ele>1386.84</ele>
        <time>2025-07-13T08:42:34Z</time>
      </trkpt>
      <trkpt lat="44.60936" lon="3.6056">
        <ele>1386.84</ele>
        <time>2025-07-13T08:42:35Z</time>
      </trkpt>
      <trkpt lat="44.60935" lon="3.60533">
        <ele>1386.84</ele>
        <time>2025-07-13T08:42:49Z</time>
      </trkpt>
      <trkpt lat="44.60939" lon="3.60509">
        <ele>1386.36</ele>
        <time>2025-07-13T08:43:03Z</time>
      </trkpt>
      <trkpt lat="44.60944" lon="3.6048">
        <ele>1385.88</ele>
        <time>2025-07-13T08:43:20Z</time>
      </trkpt>
      <trkpt lat="44.60952" lon="3.60446">
        <ele>1384.44</ele>
        <time>2025-07-13T08:43:38Z</time>
      </trkpt>
      <trkpt lat="44.60959" lon="3.60414">
        <ele>1383.47</ele>
        <time>2025-07-13T08:43:55Z</time>
      </trkpt>
      <trkpt lat="44.60962" lon="3.60378">
        <ele>1383.47</ele>
        <time>2025-07-13T08:44:13Z</time>
      </trkpt>
      <trkpt lat="44.60961" lon="3.60349">
        <ele>1382.03</ele>
        <time>2025-07-13T08:44:28Z</time>
      </trkpt>
      <trkpt lat="44.60959" lon="3.60333">
        <ele>1381.07</ele>
        <time>2025-07-13T08:44:39Z</time>
      </trkpt>
      <trkpt lat="44.60953" lon="3.60299">
        <ele>1380.11</ele>
        <time>2025-07-13T08:44:55Z</time>
      </trkpt>
      <trkpt lat="44.60948" lon="3.60265">
        <ele>1379.15</ele>
        <time>2025-07-13T08:45:11Z</time>
      </trkpt>
      <trkpt lat="44.60945" lon="3.60226">
        <ele>1378.19</ele>
        <time>2025-07-13T08:45:29Z</time>
      </trkpt>
      <trkpt lat="44.60946" lon="3.60196">
        <ele>1379.15</ele>
        <time>2025-07-13T08:45:44Z</time>
      </trkpt>
      <trkpt lat="44.6095" lon="3.60163">
        <ele>1378.19</ele>
        <time>2025-07-13T08:46:01Z</time>
      </trkpt>
      <trkpt lat="44.60956" lon="3.60129">
        <ele>1377.23</ele>
        <time>2025-07-13T08:46:19Z</time>
      </trkpt>
      <trkpt lat="44.60961" lon="3.60095">
        <ele>1376.75</ele>
        <time>2025-07-13T08:46:36Z</time>
      </trkpt>
      <trkpt lat="44.60964" lon="3.60068">
        <ele>1375.3</ele>
        <time>2025-07-13T08:46:51Z</time>
      </trkpt>
      <trkpt lat="44.60966" lon="3.6003">
        <ele>1373.86</ele>
        <time>2025-07-13T08:47:10Z</time>
      </trkpt>
      <trkpt lat="44.60969" lon="3.60002">
        <ele>1374.82</ele>
        <time>2025-07-13T08:47:25Z</time>
      </trkpt>
      <trkpt lat="44.6097" lon="3.59974">
        <ele>1373.38</ele>
        <time>2025-07-13T08:47:40Z</time>
      </trkpt>
      <trkpt lat="44.60972" lon="3.59941">
        <ele>1373.86</ele>
        <time>2025-07-13T08:47:55Z</time>
      </trkpt>
      <trkpt lat="44.60977" lon="3.59906">
        <ele>1371.94</ele>
        <time>2025-07-13T08:48:13Z</time>
      </trkpt>
      <trkpt lat="44.60984" lon="3.59874">
        <ele>1370.5</ele>
        <time>2025-07-13T08:48:29Z</time>
      </trkpt>
      <trkpt lat="44.6099" lon="3.59844">
        <ele>1370.02</ele>
        <time>2025-07-13T08:48:45Z</time>
      </trkpt>
      <trkpt lat="44.6099" lon="3.59842">
        <ele>1370.02</ele>
        <time>2025-07-13T08:48:46Z</time>
      </trkpt>
      <trkpt lat="44.6099" lon="3.5984">
        <ele>1370.02</ele>
        <time>2025-07-13T08:48:47Z</time>
      </trkpt>
      <trkpt lat="44.60991" lon="3.59838">
        <ele>1370.02</ele>
        <time>2025-07-13T08:48:48Z</time>
      </trkpt>
      <trkpt lat="44.60991" lon="3.59836">
        <ele>1370.02</ele>
        <time>2025-07-13T08:48:49Z</time>
      </trkpt>
      <trkpt lat="44.60992" lon="3.59834">
        <ele>1370.02</ele>
        <time>2025-07-13T08:48:50Z</time>
      </trkpt>
      <trkpt lat="44.60999" lon="3.59801">
        <ele>1367.61</ele>
        <time>2025-07-13T08:49:08Z</time>
      </trkpt>
      <trkpt lat="44.61" lon="3.59764">
        <ele>1367.61</ele>
        <time>2025-07-13T08:49:26Z</time>
      </trkpt>
      <trkpt lat="44.60996" lon="3.59729">
        <ele>1366.65</ele>
        <time>2025-07-13T08:49:44Z</time>
      </trkpt>
      <trkpt lat="44.60989" lon="3.59698">
        <ele>1365.69</ele>
        <time>2025-07-13T08:50:01Z</time>
      </trkpt>
      <trkpt lat="44.60978" lon="3.59667">
        <ele>1365.21</ele>
        <time>2025-07-13T08:50:20Z</time>
      </trkpt>
      <trkpt lat="44.6097" lon="3.59643">
        <ele>1366.17</ele>
        <time>2025-07-13T08:50:35Z</time>
      </trkpt>
      <trkpt lat="44.60961" lon="3.59618">
        <ele>1366.17</ele>
        <time>2025-07-13T08:50:50Z</time>
      </trkpt>
      <trkpt lat="44.60961" lon="3.59617">
        <ele>1366.17</ele>
        <time>2025-07-13T08:50:51Z</time>
      </trkpt>
      <trkpt lat="44.6096" lon="3.59615">
        <ele>1366.17</ele>
        <time>2025-07-13T08:50:52Z</time>
      </trkpt>
      <trkpt lat="44.60957" lon="3.59605">
        <ele>1366.17</ele>
        <time>2025-07-13T08:51:03Z</time>
      </trkpt>
      <trkpt lat="44.60951" lon="3.59575">
        <ele>1365.69</ele>
        <time>2025-07-13T08:51:18Z</time>
      </trkpt>
      <trkpt lat="44.60949" lon="3.59543">
        <ele>1366.17</ele>
        <time>2025-07-13T08:51:33Z</time>
      </trkpt>
      <trkpt lat="44.60952" lon="3.59502">
        <ele>1365.21</ele>
        <time>2025-07-13T08:51:52Z</time>
      </trkpt>
      <trkpt lat="44.60963" lon="3.59466">
        <ele>1363.29</ele>
        <time>2025-07-13T08:52:11Z</time>
      </trkpt>
      <trkpt lat="44.60975" lon="3.59434">
        <ele>1362.33</ele>
        <time>2025-07-13T08:52:29Z</time>
      </trkpt>
      <trkpt lat="44.60987" lon="3.59406">
        <ele>1361.84</ele>
        <time>2025-07-13T08:52:45Z</time>
      </trkpt>
      <trkpt lat="44.60997" lon="3.59379">
        <ele>1360.88</ele>
        <time>2025-07-13T08:53:01Z</time>
      </trkpt>
      <trkpt lat="44.61014" lon="3.59346">
        <ele>1358.48</ele>
        <time>2025-07-13T08:53:20Z</time>
      </trkpt>
      <trkpt lat="44.61029" lon="3.59318">
        <ele>1358.48</ele>
        <time>2025-07-13T08:53:37Z</time>
      </trkpt>
      <trkpt lat="44.61047" lon="3.59291">
        <ele>1358</ele>
        <time>2025-07-13T08:53:55Z</time>
      </trkpt>
      <trkpt lat="44.61064" lon="3.59268">
        <ele>1357.52</ele>
        <time>2025-07-13T08:54:11Z</time>
      </trkpt>
      <trkpt lat="44.61085" lon="3.59241">
        <ele>1356.56</ele>
        <time>2025-07-13T08:54:30Z</time>
      </trkpt>
      <trkpt lat="44.61107" lon="3.59219">
        <ele>1355.12</ele>
        <time>2025-07-13T08:54:48Z</time>
      </trkpt>
      <trkpt lat="44.61124" lon="3.59199">
        <ele>1353.19</ele>
        <time>2025-07-13T08:55:03Z</time>
      </trkpt>
      <trkpt lat="44.6114" lon="3.5918">
        <ele>1352.71</ele>
        <time>2025-07-13T08:55:19Z</time>
      </trkpt>
      <trkpt lat="44.61161" lon="3.59157">
        <ele>1353.19</ele>
        <time>2025-07-13T08:55:35Z</time>
      </trkpt>
      <trkpt lat="44.61179" lon="3.59136">
        <ele>1353.19</ele>
        <time>2025-07-13T08:55:49Z</time>
      </trkpt>
      <trkpt lat="44.61197" lon="3.59117">
        <ele>1350.79</ele>
        <time>2025-07-13T08:56:06Z</time>
      </trkpt>
      <trkpt lat="44.61198" lon="3.59115">
        <ele>1350.31</ele>
        <time>2025-07-13T08:56:07Z</time>
      </trkpt>
      <trkpt lat="44.61199" lon="3.59114">
        <ele>1350.31</ele>
        <time>2025-07-13T08:56:08Z</time>
      </trkpt>
      <trkpt lat="44.612" lon="3.59113">
        <ele>1350.31</ele>
        <time>2025-07-13T08:56:09Z</time>
      </trkpt>
      <trkpt lat="44.61201" lon="3.59111">
        <ele>1350.31</ele>
        <time>2025-07-13T08:56:10Z</time>
      </trkpt>
      <trkpt lat="44.61202" lon="3.5911">
        <ele>1350.31</ele>
        <time>2025-07-13T08:56:11Z</time>
      </trkpt>
      <trkpt lat="44.61223" lon="3.59088">
        <ele>1350.79</ele>
        <time>2025-07-13T08:56:28Z</time>
      </trkpt>
      <trkpt lat="44.61248" lon="3.59062">
        <ele>1350.31</ele>
        <time>2025-07-13T08:56:47Z</time>
      </trkpt>
      <trkpt lat="44.61256" lon="3.59054">
        <ele>1351.27</ele>
        <time>2025-07-13T08:56:56Z</time>
      </trkpt>
      <trkpt lat="44.61274" lon="3.59037">
        <ele>1350.31</ele>
        <time>2025-07-13T08:57:10Z</time>
      </trkpt>
      <trkpt lat="44.61296" lon="3.59015">
        <ele>1351.27</ele>
        <time>2025-07-13T08:57:28Z</time>
      </trkpt>
      <trkpt lat="44.61315" lon="3.58998">
        <ele>1351.27</ele>
        <time>2025-07-13T08:57:43Z</time>
      </trkpt>
      <trkpt lat="44.61335" lon="3.58983">
        <ele>1351.27</ele>
        <time>2025-07-13T08:58:01Z</time>
      </trkpt>
      <trkpt lat="44.61348" lon="3.58972">
        <ele>1350.79</ele>
        <time>2025-07-13T08:58:17Z</time>
      </trkpt>
      <trkpt lat="44.61368" lon="3.58955">
        <ele>1351.75</ele>
        <time>2025-07-13T08:58:31Z</time>
      </trkpt>
      <trkpt lat="44.61387" lon="3.58937">
        <ele>1354.15</ele>
        <time>2025-07-13T08:58:48Z</time>
      </trkpt>
      <trkpt lat="44.61411" lon="3.58916">
        <ele>1355.12</ele>
        <time>2025-07-13T08:58:58Z</time>
      </trkpt>
      <trkpt lat="44.61428" lon="3.58908">
        <ele>1353.67</ele>
        <time>2025-07-13T08:59:08Z</time>
      </trkpt>
      <trkpt lat="44.61446" lon="3.5889">
        <ele>1353.67</ele>
        <time>2025-07-13T08:59:23Z</time>
      </trkpt>
      <trkpt lat="44.6146" lon="3.58872">
        <ele>1353.67</ele>
        <time>2025-07-13T08:59:38Z</time>
      </trkpt>
      <trkpt lat="44.61479" lon="3.58848">
        <ele>1356.08</ele>
        <time>2025-07-13T08:59:50Z</time>
      </trkpt>
      <trkpt lat="44.61486" lon="3.58823">
        <ele>1359.44</ele>
        <time>2025-07-13T09:00:03Z</time>
      </trkpt>
      <trkpt lat="44.61487" lon="3.58821">
        <ele>1358.96</ele>
        <time>2025-07-13T09:00:04Z</time>
      </trkpt>
      <trkpt lat="44.61487" lon="3.58819">
        <ele>1358.96</ele>
        <time>2025-07-13T09:00:05Z</time>
      </trkpt>
      <trkpt lat="44.61492" lon="3.58789">
        <ele>1360.4</ele>
        <time>2025-07-13T09:00:18Z</time>
      </trkpt>
      <trkpt lat="44.61494" lon="3.58785">
        <ele>1359.44</ele>
        <time>2025-07-13T09:00:21Z</time>
      </trkpt>
      <trkpt lat="44.61494" lon="3.58783">
        <ele>1359.44</ele>
        <time>2025-07-13T09:00:22Z</time>
      </trkpt>
      <trkpt lat="44.61495" lon="3.58766">
        <ele>1356.56</ele>
        <time>2025-07-13T09:00:30Z</time>
      </trkpt>
      <trkpt lat="44.61496" lon="3.58765">
        <ele>1356.56</ele>
        <time>2025-07-13T09:00:31Z</time>
      </trkpt>
      <trkpt lat="44.61496" lon="3.58763">
        <ele>1356.08</ele>
        <time>2025-07-13T09:00:32Z</time>
      </trkpt>
      <trkpt lat="44.61496" lon="3.58761">
        <ele>1355.6</ele>
        <time>2025-07-13T09:00:33Z</time>
      </trkpt>
      <trkpt lat="44.61496" lon="3.58759">
        <ele>1355.12</ele>
        <time>2025-07-13T09:00:34Z</time>
      </trkpt>
      <trkpt lat="44.61496" lon="3.58757">
        <ele>1354.63</ele>
        <time>2025-07-13T09:00:35Z</time>
      </trkpt>
      <trkpt lat="44.61496" lon="3.58755">
        <ele>1354.63</ele>
        <time>2025-07-13T09:00:36Z</time>
      </trkpt>
      <trkpt lat="44.61497" lon="3.58752">
        <ele>1354.15</ele>
        <time>2025-07-13T09:00:38Z</time>
      </trkpt>
      <trkpt lat="44.61497" lon="3.5875">
        <ele>1354.15</ele>
        <time>2025-07-13T09:00:39Z</time>
      </trkpt>
      <trkpt lat="44.61497" lon="3.58748">
        <ele>1354.15</ele>
        <time>2025-07-13T09:00:40Z</time>
      </trkpt>
      <trkpt lat="44.61497" lon="3.58745">
        <ele>1354.15</ele>
        <time>2025-07-13T09:00:41Z</time>
      </trkpt>
      <trkpt lat="44.61497" lon="3.58743">
        <ele>1353.67</ele>
        <time>2025-07-13T09:00:42Z</time>
      </trkpt>
      <trkpt lat="44.61497" lon="3.5874">
        <ele>1353.19</ele>
        <time>2025-07-13T09:00:43Z</time>
      </trkpt>
      <trkpt lat="44.61497" lon="3.58739">
        <ele>1353.19</ele>
        <time>2025-07-13T09:00:44Z</time>
      </trkpt>
      <trkpt lat="44.61497" lon="3.58737">
        <ele>1352.71</ele>
        <time>2025-07-13T09:00:45Z</time>
      </trkpt>
      <trkpt lat="44.61497" lon="3.58711">
        <ele>1351.75</ele>
        <time>2025-07-13T09:00:56Z</time>
      </trkpt>
      <trkpt lat="44.61498" lon="3.58704">
        <ele>1350.79</ele>
        <time>2025-07-13T09:01:00Z</time>
      </trkpt>
      <trkpt lat="44.61498" lon="3.58702">
        <ele>1350.31</ele>
        <time>2025-07-13T09:01:01Z</time>
      </trkpt>
      <trkpt lat="44.61498" lon="3.58699">
        <ele>1350.31</ele>
        <time>2025-07-13T09:01:02Z</time>
      </trkpt>
      <trkpt lat="44.61498" lon="3.58696">
        <ele>1350.31</ele>
        <time>2025-07-13T09:01:03Z</time>
      </trkpt>
      <trkpt lat="44.61498" lon="3.58694">
        <ele>1349.83</ele>
        <time>2025-07-13T09:01:04Z</time>
      </trkpt>
      <trkpt lat="44.61498" lon="3.58692">
        <ele>1349.35</ele>
        <time>2025-07-13T09:01:05Z</time>
      </trkpt>
      <trkpt lat="44.61497" lon="3.5869">
        <ele>1349.35</ele>
        <time>2025-07-13T09:01:06Z</time>
      </trkpt>
      <trkpt lat="44.61498" lon="3.5866">
        <ele>1347.43</ele>
        <time>2025-07-13T09:01:19Z</time>
      </trkpt>
      <trkpt lat="44.61499" lon="3.58654">
        <ele>1347.43</ele>
        <time>2025-07-13T09:01:22Z</time>
      </trkpt>
      <trkpt lat="44.61499" lon="3.58652">
        <ele>1347.43</ele>
        <time>2025-07-13T09:01:23Z</time>
      </trkpt>
      <trkpt lat="44.615" lon="3.58625">
        <ele>1346.46</ele>
        <time>2025-07-13T09:01:36Z</time>
      </trkpt>
      <trkpt lat="44.61501" lon="3.58623">
        <ele>1345.98</ele>
        <time>2025-07-13T09:01:37Z</time>
      </trkpt>
      <trkpt lat="44.61501" lon="3.58621">
        <ele>1345.98</ele>
        <time>2025-07-13T09:01:38Z</time>
      </trkpt>
      <trkpt lat="44.61501" lon="3.58619">
        <ele>1345.5</ele>
        <time>2025-07-13T09:01:39Z</time>
      </trkpt>
      <trkpt lat="44.61502" lon="3.58617">
        <ele>1345.02</ele>
        <time>2025-07-13T09:01:40Z</time>
      </trkpt>
      <trkpt lat="44.61502" lon="3.58615">
        <ele>1345.02</ele>
        <time>2025-07-13T09:01:41Z</time>
      </trkpt>
      <trkpt lat="44.61502" lon="3.58613">
        <ele>1344.54</ele>
        <time>2025-07-13T09:01:42Z</time>
      </trkpt>
      <trkpt lat="44.61501" lon="3.58609">
        <ele>1343.58</ele>
        <time>2025-07-13T09:01:45Z</time>
      </trkpt>
      <trkpt lat="44.615" lon="3.58607">
        <ele>1343.58</ele>
        <time>2025-07-13T09:01:46Z</time>
      </trkpt>
      <trkpt lat="44.615" lon="3.58605">
        <ele>1343.58</ele>
        <time>2025-07-13T09:01:47Z</time>
      </trkpt>
      <trkpt lat="44.615" lon="3.58603">
        <ele>1343.1</ele>
        <time>2025-07-13T09:01:48Z</time>
      </trkpt>
      <trkpt lat="44.61501" lon="3.58601">
        <ele>1343.1</ele>
        <time>2025-07-13T09:01:49Z</time>
      </trkpt>
      <trkpt lat="44.61501" lon="3.58599">
        <ele>1343.1</ele>
        <time>2025-07-13T09:01:50Z</time>
      </trkpt>
      <trkpt lat="44.61501" lon="3.58597">
        <ele>1343.1</ele>
        <time>2025-07-13T09:01:51Z</time>
      </trkpt>
      <trkpt lat="44.61501" lon="3.58594">
        <ele>1342.62</ele>
        <time>2025-07-13T09:01:52Z</time>
      </trkpt>
      <trkpt lat="44.61501" lon="3.58592">
        <ele>1342.62</ele>
        <time>2025-07-13T09:01:53Z</time>
      </trkpt>
      <trkpt lat="44.615" lon="3.58589">
        <ele>1342.62</ele>
        <time>2025-07-13T09:01:54Z</time>
      </trkpt>
      <trkpt lat="44.61499" lon="3.58584">
        <ele>1342.62</ele>
        <time>2025-07-13T09:01:56Z</time>
      </trkpt>
      <trkpt lat="44.61499" lon="3.58582">
        <ele>1342.14</ele>
        <time>2025-07-13T09:01:57Z</time>
      </trkpt>
      <trkpt lat="44.615" lon="3.5858">
        <ele>1342.14</ele>
        <time>2025-07-13T09:01:58Z</time>
      </trkpt>
      <trkpt lat="44.615" lon="3.58578">
        <ele>1342.14</ele>
        <time>2025-07-13T09:01:59Z</time>
      </trkpt>
      <trkpt lat="44.61501" lon="3.58576">
        <ele>1342.62</ele>
        <time>2025-07-13T09:02:00Z</time>
      </trkpt>
      <trkpt lat="44.615" lon="3.58574">
        <ele>1342.14</ele>
        <time>2025-07-13T09:02:01Z</time>
      </trkpt>
      <trkpt lat="44.615" lon="3.58572">
        <ele>1342.14</ele>
        <time>2025-07-13T09:02:02Z</time>
      </trkpt>
      <trkpt lat="44.61504" lon="3.58553">
        <ele>1343.1</ele>
        <time>2025-07-13T09:02:17Z</time>
      </trkpt>
      <trkpt lat="44.61513" lon="3.5853">
        <ele>1345.02</ele>
        <time>2025-07-13T09:02:29Z</time>
      </trkpt>
      <trkpt lat="44.61515" lon="3.58529">
        <ele>1345.02</ele>
        <time>2025-07-13T09:02:30Z</time>
      </trkpt>
      <trkpt lat="44.61516" lon="3.58527">
        <ele>1345.5</ele>
        <time>2025-07-13T09:02:31Z</time>
      </trkpt>
      <trkpt lat="44.61517" lon="3.58525">
        <ele>1345.5</ele>
        <time>2025-07-13T09:02:32Z</time>
      </trkpt>
      <trkpt lat="44.61519" lon="3.58523">
        <ele>1345.98</ele>
        <time>2025-07-13T09:02:33Z</time>
      </trkpt>
      <trkpt lat="44.6153" lon="3.58498">
        <ele>1348.39</ele>
        <time>2025-07-13T09:02:47Z</time>
      </trkpt>
      <trkpt lat="44.61532" lon="3.58494">
        <ele>1348.39</ele>
        <time>2025-07-13T09:02:49Z</time>
      </trkpt>
      <trkpt lat="44.61533" lon="3.58493">
        <ele>1347.91</ele>
        <time>2025-07-13T09:02:50Z</time>
      </trkpt>
      <trkpt lat="44.61535" lon="3.58491">
        <ele>1347.91</ele>
        <time>2025-07-13T09:02:51Z</time>
      </trkpt>
      <trkpt lat="44.61536" lon="3.58488">
        <ele>1347.91</ele>
        <time>2025-07-13T09:02:52Z</time>
      </trkpt>
      <trkpt lat="44.61537" lon="3.58487">
        <ele>1347.43</ele>
        <time>2025-07-13T09:02:53Z</time>
      </trkpt>
      <trkpt lat="44.61538" lon="3.58485">
        <ele>1347.43</ele>
        <time>2025-07-13T09:02:54Z</time>
      </trkpt>
      <trkpt lat="44.61539" lon="3.58482">
        <ele>1346.46</ele>
        <time>2025-07-13T09:02:56Z</time>
      </trkpt>
      <trkpt lat="44.6154" lon="3.5848">
        <ele>1346.46</ele>
        <time>2025-07-13T09:02:57Z</time>
      </trkpt>
      <trkpt lat="44.61541" lon="3.58478">
        <ele>1345.98</ele>
        <time>2025-07-13T09:02:58Z</time>
      </trkpt>
      <trkpt lat="44.61542" lon="3.58477">
        <ele>1345.98</ele>
        <time>2025-07-13T09:02:59Z</time>
      </trkpt>
      <trkpt lat="44.61543" lon="3.58475">
        <ele>1345.98</ele>
        <time>2025-07-13T09:03:00Z</time>
      </trkpt>
      <trkpt lat="44.61545" lon="3.58472">
        <ele>1345.5</ele>
        <time>2025-07-13T09:03:02Z</time>
      </trkpt>
      <trkpt lat="44.61545" lon="3.5847">
        <ele>1345.5</ele>
        <time>2025-07-13T09:03:03Z</time>
      </trkpt>
      <trkpt lat="44.61546" lon="3.58469">
        <ele>1345.5</ele>
        <time>2025-07-13T09:03:04Z</time>
      </trkpt>
      <trkpt lat="44.61547" lon="3.58467">
        <ele>1345.5</ele>
        <time>2025-07-13T09:03:05Z</time>
      </trkpt>
      <trkpt lat="44.61549" lon="3.58465">
        <ele>1345.5</ele>
        <time>2025-07-13T09:03:06Z</time>
      </trkpt>
      <trkpt lat="44.61567" lon="3.5845">
        <ele>1348.87</ele>
        <time>2025-07-13T09:03:18Z</time>
      </trkpt>
      <trkpt lat="44.61592" lon="3.58432">
        <ele>1349.83</ele>
        <time>2025-07-13T09:03:36Z</time>
      </trkpt>
      <trkpt lat="44.6161" lon="3.58426">
        <ele>1348.39</ele>
        <time>2025-07-13T09:03:48Z</time>
      </trkpt>
      <trkpt lat="44.61612" lon="3.58425">
        <ele>1348.39</ele>
        <time>2025-07-13T09:03:50Z</time>
      </trkpt>
      <trkpt lat="44.61613" lon="3.58424">
        <ele>1348.39</ele>
        <time>2025-07-13T09:03:51Z</time>
      </trkpt>
      <trkpt lat="44.61614" lon="3.58423">
        <ele>1348.39</ele>
        <time>2025-07-13T09:03:52Z</time>
      </trkpt>
      <trkpt lat="44.61634" lon="3.58413">
        <ele>1349.83</ele>
        <time>2025-07-13T09:04:05Z</time>
      </trkpt>
      <trkpt lat="44.61654" lon="3.584">
        <ele>1348.87</ele>
        <time>2025-07-13T09:04:19Z</time>
      </trkpt>
      <trkpt lat="44.61676" lon="3.58382">
        <ele>1344.06</ele>
        <time>2025-07-13T09:04:35Z</time>
      </trkpt>
      <trkpt lat="44.61688" lon="3.58375">
        <ele>1344.06</ele>
        <time>2025-07-13T09:04:44Z</time>
      </trkpt>
      <trkpt lat="44.61707" lon="3.58352">
        <ele>1344.54</ele>
        <time>2025-07-13T09:05:00Z</time>
      </trkpt>
      <trkpt lat="44.61711" lon="3.58344">
        <ele>1345.5</ele>
        <time>2025-07-13T09:05:05Z</time>
      </trkpt>
      <trkpt lat="44.61713" lon="3.58342">
        <ele>1345.5</ele>
        <time>2025-07-13T09:05:06Z</time>
      </trkpt>
      <trkpt lat="44.61714" lon="3.58341">
        <ele>1345.5</ele>
        <time>2025-07-13T09:05:07Z</time>
      </trkpt>
      <trkpt lat="44.61715" lon="3.58338">
        <ele>1345.5</ele>
        <time>2025-07-13T09:05:08Z</time>
      </trkpt>
      <trkpt lat="44.61716" lon="3.58336">
        <ele>1345.5</ele>
        <time>2025-07-13T09:05:09Z</time>
      </trkpt>
      <trkpt lat="44.61717" lon="3.58334">
        <ele>1345.5</ele>
        <time>2025-07-13T09:05:10Z</time>
      </trkpt>
      <trkpt lat="44.61718" lon="3.58333">
        <ele>1345.5</ele>
        <time>2025-07-13T09:05:11Z</time>
      </trkpt>
      <trkpt lat="44.61719" lon="3.58331">
        <ele>1345.5</ele>
        <time>2025-07-13T09:05:12Z</time>
      </trkpt>
      <trkpt lat="44.6173" lon="3.5831">
        <ele>1346.46</ele>
        <time>2025-07-13T09:05:24Z</time>
      </trkpt>
      <trkpt lat="44.61736" lon="3.58301">
        <ele>1346.94</ele>
        <time>2025-07-13T09:05:30Z</time>
      </trkpt>
      <trkpt lat="44.61737" lon="3.583">
        <ele>1346.94</ele>
        <time>2025-07-13T09:05:31Z</time>
      </trkpt>
      <trkpt lat="44.61738" lon="3.58299">
        <ele>1346.94</ele>
        <time>2025-07-13T09:05:32Z</time>
      </trkpt>
      <trkpt lat="44.61739" lon="3.58298">
        <ele>1346.94</ele>
        <time>2025-07-13T09:05:33Z</time>
      </trkpt>
      <trkpt lat="44.6174" lon="3.58296">
        <ele>1347.43</ele>
        <time>2025-07-13T09:05:34Z</time>
      </trkpt>
      <trkpt lat="44.61741" lon="3.58295">
        <ele>1347.43</ele>
        <time>2025-07-13T09:05:35Z</time>
      </trkpt>
      <trkpt lat="44.61744" lon="3.58288">
        <ele>1346.94</ele>
        <time>2025-07-13T09:05:39Z</time>
      </trkpt>
      <trkpt lat="44.61748" lon="3.58282">
        <ele>1346.46</ele>
        <time>2025-07-13T09:05:43Z</time>
      </trkpt>
      <trkpt lat="44.61748" lon="3.5828">
        <ele>1345.98</ele>
        <time>2025-07-13T09:05:44Z</time>
      </trkpt>
      <trkpt lat="44.61749" lon="3.58278">
        <ele>1345.5</ele>
        <time>2025-07-13T09:05:45Z</time>
      </trkpt>
      <trkpt lat="44.61754" lon="3.58255">
        <ele>1343.58</ele>
        <time>2025-07-13T09:05:55Z</time>
      </trkpt>
      <trkpt lat="44.61755" lon="3.58253">
        <ele>1343.1</ele>
        <time>2025-07-13T09:05:56Z</time>
      </trkpt>
      <trkpt lat="44.61755" lon="3.58251">
        <ele>1343.1</ele>
        <time>2025-07-13T09:05:57Z</time>
      </trkpt>
      <trkpt lat="44.61756" lon="3.58249">
        <ele>1342.62</ele>
        <time>2025-07-13T09:05:58Z</time>
      </trkpt>
      <trkpt lat="44.61756" lon="3.58247">
        <ele>1342.14</ele>
        <time>2025-07-13T09:05:59Z</time>
      </trkpt>
      <trkpt lat="44.61757" lon="3.58243">
        <ele>1341.66</ele>
        <time>2025-07-13T09:06:01Z</time>
      </trkpt>
      <trkpt lat="44.61758" lon="3.58241">
        <ele>1341.66</ele>
        <time>2025-07-13T09:06:02Z</time>
      </trkpt>
      <trkpt lat="44.61758" lon="3.58239">
        <ele>1341.18</ele>
        <time>2025-07-13T09:06:03Z</time>
      </trkpt>
      <trkpt lat="44.61758" lon="3.58236">
        <ele>1340.7</ele>
        <time>2025-07-13T09:06:04Z</time>
      </trkpt>
      <trkpt lat="44.61758" lon="3.58234">
        <ele>1340.22</ele>
        <time>2025-07-13T09:06:05Z</time>
      </trkpt>
      <trkpt lat="44.61759" lon="3.58231">
        <ele>1340.22</ele>
        <time>2025-07-13T09:06:06Z</time>
      </trkpt>
      <trkpt lat="44.61759" lon="3.58229">
        <ele>1339.73</ele>
        <time>2025-07-13T09:06:07Z</time>
      </trkpt>
      <trkpt lat="44.61766" lon="3.58203">
        <ele>1338.29</ele>
        <time>2025-07-13T09:06:20Z</time>
      </trkpt>
      <trkpt lat="44.61767" lon="3.58192">
        <ele>1337.33</ele>
        <time>2025-07-13T09:06:25Z</time>
      </trkpt>
      <trkpt lat="44.61768" lon="3.5819">
        <ele>1337.33</ele>
        <time>2025-07-13T09:06:26Z</time>
      </trkpt>
      <trkpt lat="44.61768" lon="3.58178">
        <ele>1335.89</ele>
        <time>2025-07-13T09:06:34Z</time>
      </trkpt>
      <trkpt lat="44.61769" lon="3.58176">
        <ele>1335.41</ele>
        <time>2025-07-13T09:06:35Z</time>
      </trkpt>
      <trkpt lat="44.61769" lon="3.58173">
        <ele>1334.93</ele>
        <time>2025-07-13T09:06:36Z</time>
      </trkpt>
      <trkpt lat="44.6177" lon="3.5817">
        <ele>1334.93</ele>
        <time>2025-07-13T09:06:37Z</time>
      </trkpt>
      <trkpt lat="44.6177" lon="3.58169">
        <ele>1334.45</ele>
        <time>2025-07-13T09:06:38Z</time>
      </trkpt>
      <trkpt lat="44.61771" lon="3.58167">
        <ele>1333.97</ele>
        <time>2025-07-13T09:06:39Z</time>
      </trkpt>
      <trkpt lat="44.61771" lon="3.58164">
        <ele>1333.49</ele>
        <time>2025-07-13T09:06:40Z</time>
      </trkpt>
      <trkpt lat="44.61771" lon="3.58162">
        <ele>1333.49</ele>
        <time>2025-07-13T09:06:41Z</time>
      </trkpt>
      <trkpt lat="44.61772" lon="3.58155">
        <ele>1332.52</ele>
        <time>2025-07-13T09:06:44Z</time>
      </trkpt>
      <trkpt lat="44.61773" lon="3.58153">
        <ele>1332.52</ele>
        <time>2025-07-13T09:06:45Z</time>
      </trkpt>
      <trkpt lat="44.61774" lon="3.58151">
        <ele>1332.52</ele>
        <time>2025-07-13T09:06:46Z</time>
      </trkpt>
      <trkpt lat="44.61775" lon="3.58149">
        <ele>1332.04</ele>
        <time>2025-07-13T09:06:47Z</time>
      </trkpt>
      <trkpt lat="44.61776" lon="3.58146">
        <ele>1332.04</ele>
        <time>2025-07-13T09:06:48Z</time>
      </trkpt>
      <trkpt lat="44.61777" lon="3.58133">
        <ele>1331.08</ele>
        <time>2025-07-13T09:06:55Z</time>
      </trkpt>
      <trkpt lat="44.61786" lon="3.58101">
        <ele>1330.6</ele>
        <time>2025-07-13T09:07:11Z</time>
      </trkpt>
      <trkpt lat="44.61793" lon="3.58076">
        <ele>1326.76</ele>
        <time>2025-07-13T09:07:25Z</time>
      </trkpt>
      <trkpt lat="44.61797" lon="3.58073">
        <ele>1329.16</ele>
        <time>2025-07-13T09:07:39Z</time>
      </trkpt>
      <trkpt lat="44.61802" lon="3.58064">
        <ele>1329.16</ele>
        <time>2025-07-13T09:07:45Z</time>
      </trkpt>
      <trkpt lat="44.61824" lon="3.58035">
        <ele>1328.68</ele>
        <time>2025-07-13T09:08:02Z</time>
      </trkpt>
      <trkpt lat="44.61846" lon="3.58019">
        <ele>1331.08</ele>
        <time>2025-07-13T09:08:17Z</time>
      </trkpt>
      <trkpt lat="44.61866" lon="3.58003">
        <ele>1330.6</ele>
        <time>2025-07-13T09:08:31Z</time>
      </trkpt>
      <trkpt lat="44.61886" lon="3.5799">
        <ele>1331.08</ele>
        <time>2025-07-13T09:08:47Z</time>
      </trkpt>
      <trkpt lat="44.61908" lon="3.57979">
        <ele>1332.52</ele>
        <time>2025-07-13T09:09:04Z</time>
      </trkpt>
      <trkpt lat="44.61929" lon="3.57968">
        <ele>1333.49</ele>
        <time>2025-07-13T09:09:20Z</time>
      </trkpt>
      <trkpt lat="44.61954" lon="3.57956">
        <ele>1334.45</ele>
        <time>2025-07-13T09:09:37Z</time>
      </trkpt>
      <trkpt lat="44.61974" lon="3.57937">
        <ele>1333.97</ele>
        <time>2025-07-13T09:09:53Z</time>
      </trkpt>
      <trkpt lat="44.61991" lon="3.57914">
        <ele>1333.01</ele>
        <time>2025-07-13T09:10:10Z</time>
      </trkpt>
      <trkpt lat="44.61999" lon="3.57893">
        <ele>1333.01</ele>
        <time>2025-07-13T09:10:24Z</time>
      </trkpt>
      <trkpt lat="44.62007" lon="3.57869">
        <ele>1333.49</ele>
        <time>2025-07-13T09:10:39Z</time>
      </trkpt>
      <trkpt lat="44.62012" lon="3.57843">
        <ele>1333.49</ele>
        <time>2025-07-13T09:10:55Z</time>
      </trkpt>
      <trkpt lat="44.62013" lon="3.57822">
        <ele>1334.93</ele>
        <time>2025-07-13T09:11:09Z</time>
      </trkpt>
      <trkpt lat="44.62013" lon="3.57821">
        <ele>1334.45</ele>
        <time>2025-07-13T09:11:28Z</time>
      </trkpt>
      <trkpt lat="44.62015" lon="3.57814">
        <ele>1333.97</ele>
        <time>2025-07-13T09:11:50Z</time>
      </trkpt>
      <trkpt lat="44.62018" lon="3.57795">
        <ele>1334.93</ele>
        <time>2025-07-13T09:12:04Z</time>
      </trkpt>
      <trkpt lat="44.62017" lon="3.57772">
        <ele>1335.89</ele>
        <time>2025-07-13T09:12:18Z</time>
      </trkpt>
      <trkpt lat="44.62015" lon="3.57746">
        <ele>1337.33</ele>
        <time>2025-07-13T09:12:32Z</time>
      </trkpt>
      <trkpt lat="44.62015" lon="3.57722">
        <ele>1339.73</ele>
        <time>2025-07-13T09:12:45Z</time>
      </trkpt>
      <trkpt lat="44.62016" lon="3.57696">
        <ele>1342.62</ele>
        <time>2025-07-13T09:12:59Z</time>
      </trkpt>
      <trkpt lat="44.62015" lon="3.5767">
        <ele>1344.54</ele>
        <time>2025-07-13T09:13:13Z</time>
      </trkpt>
      <trkpt lat="44.62014" lon="3.57638">
        <ele>1348.39</ele>
        <time>2025-07-13T09:13:29Z</time>
      </trkpt>
      <trkpt lat="44.62012" lon="3.57632">
        <ele>1348.39</ele>
        <time>2025-07-13T09:13:32Z</time>
      </trkpt>
      <trkpt lat="44.62012" lon="3.5763">
        <ele>1348.39</ele>
        <time>2025-07-13T09:13:33Z</time>
      </trkpt>
      <trkpt lat="44.62012" lon="3.57628">
        <ele>1348.87</ele>
        <time>2025-07-13T09:13:34Z</time>
      </trkpt>
      <trkpt lat="44.62009" lon="3.57599">
        <ele>1350.79</ele>
        <time>2025-07-13T09:13:49Z</time>
      </trkpt>
      <trkpt lat="44.62011" lon="3.57572">
        <ele>1349.83</ele>
        <time>2025-07-13T09:14:03Z</time>
      </trkpt>
      <trkpt lat="44.62016" lon="3.57541">
        <ele>1350.79</ele>
        <time>2025-07-13T09:14:19Z</time>
      </trkpt>
      <trkpt lat="44.62017" lon="3.57539">
        <ele>1350.79</ele>
        <time>2025-07-13T09:14:20Z</time>
      </trkpt>
      <trkpt lat="44.62017" lon="3.57538">
        <ele>1350.31</ele>
        <time>2025-07-13T09:14:21Z</time>
      </trkpt>
      <trkpt lat="44.62017" lon="3.57536">
        <ele>1349.83</ele>
        <time>2025-07-13T09:14:22Z</time>
      </trkpt>
      <trkpt lat="44.62017" lon="3.57534">
        <ele>1349.35</ele>
        <time>2025-07-13T09:14:23Z</time>
      </trkpt>
      <trkpt lat="44.62017" lon="3.57532">
        <ele>1349.35</ele>
        <time>2025-07-13T09:14:24Z</time>
      </trkpt>
      <trkpt lat="44.6202" lon="3.57506">
        <ele>1348.39</ele>
        <time>2025-07-13T09:14:39Z</time>
      </trkpt>
      <trkpt lat="44.62016" lon="3.57485">
        <ele>1345.98</ele>
        <time>2025-07-13T09:14:53Z</time>
      </trkpt>
      <trkpt lat="44.62016" lon="3.57458">
        <ele>1344.06</ele>
        <time>2025-07-13T09:15:07Z</time>
      </trkpt>
      <trkpt lat="44.62021" lon="3.57428">
        <ele>1340.7</ele>
        <time>2025-07-13T09:15:23Z</time>
      </trkpt>
      <trkpt lat="44.62026" lon="3.57406">
        <ele>1336.37</ele>
        <time>2025-07-13T09:15:38Z</time>
      </trkpt>
      <trkpt lat="44.6203" lon="3.57389">
        <ele>1335.89</ele>
        <time>2025-07-13T09:15:51Z</time>
      </trkpt>
      <trkpt lat="44.62038" lon="3.57358">
        <ele>1334.93</ele>
        <time>2025-07-13T09:16:08Z</time>
      </trkpt>
      <trkpt lat="44.62047" lon="3.5733">
        <ele>1335.41</ele>
        <time>2025-07-13T09:16:24Z</time>
      </trkpt>
      <trkpt lat="44.62058" lon="3.57297">
        <ele>1334.45</ele>
        <time>2025-07-13T09:16:43Z</time>
      </trkpt>
      <trkpt lat="44.62064" lon="3.57263">
        <ele>1334.93</ele>
        <time>2025-07-13T09:17:00Z</time>
      </trkpt>
      <trkpt lat="44.62076" lon="3.57232">
        <ele>1334.45</ele>
        <time>2025-07-13T09:17:18Z</time>
      </trkpt>
      <trkpt lat="44.62088" lon="3.57202">
        <ele>1334.45</ele>
        <time>2025-07-13T09:17:35Z</time>
      </trkpt>
      <trkpt lat="44.62095" lon="3.57177">
        <ele>1335.41</ele>
        <time>2025-07-13T09:17:50Z</time>
      </trkpt>
      <trkpt lat="44.621" lon="3.57147">
        <ele>1335.41</ele>
        <time>2025-07-13T09:18:07Z</time>
      </trkpt>
      <trkpt lat="44.62103" lon="3.57122">
        <ele>1336.37</ele>
        <time>2025-07-13T09:18:21Z</time>
      </trkpt>
      <trkpt lat="44.62111" lon="3.57093">
        <ele>1337.81</ele>
        <time>2025-07-13T09:18:33Z</time>
      </trkpt>
      <trkpt lat="44.62118" lon="3.57062">
        <ele>1336.85</ele>
        <time>2025-07-13T09:18:49Z</time>
      </trkpt>
      <trkpt lat="44.62125" lon="3.57024">
        <ele>1334.45</ele>
        <time>2025-07-13T09:19:07Z</time>
      </trkpt>
      <trkpt lat="44.62127" lon="3.56989">
        <ele>1333.01</ele>
        <time>2025-07-13T09:19:23Z</time>
      </trkpt>
      <trkpt lat="44.62128" lon="3.56983">
        <ele>1332.52</ele>
        <time>2025-07-13T09:19:26Z</time>
      </trkpt>
      <trkpt lat="44.62128" lon="3.56981">
        <ele>1332.52</ele>
        <time>2025-07-13T09:19:27Z</time>
      </trkpt>
      <trkpt lat="44.62128" lon="3.56979">
        <ele>1332.04</ele>
        <time>2025-07-13T09:19:28Z</time>
      </trkpt>
      <trkpt lat="44.6213" lon="3.56937">
        <ele>1330.12</ele>
        <time>2025-07-13T09:19:46Z</time>
      </trkpt>
      <trkpt lat="44.62133" lon="3.56906">
        <ele>1328.68</ele>
        <time>2025-07-13T09:20:01Z</time>
      </trkpt>
      <trkpt lat="44.62137" lon="3.56877">
        <ele>1329.16</ele>
        <time>2025-07-13T09:20:15Z</time>
      </trkpt>
      <trkpt lat="44.62142" lon="3.56847">
        <ele>1332.04</ele>
        <time>2025-07-13T09:20:29Z</time>
      </trkpt>
      <trkpt lat="44.62145" lon="3.56808">
        <ele>1333.01</ele>
        <time>2025-07-13T09:20:48Z</time>
      </trkpt>
      <trkpt lat="44.62147" lon="3.56768">
        <ele>1333.01</ele>
        <time>2025-07-13T09:21:07Z</time>
      </trkpt>
      <trkpt lat="44.62147" lon="3.56731">
        <ele>1333.49</ele>
        <time>2025-07-13T09:21:24Z</time>
      </trkpt>
      <trkpt lat="44.62146" lon="3.56686">
        <ele>1333.49</ele>
        <time>2025-07-13T09:21:43Z</time>
      </trkpt>
      <trkpt lat="44.62152" lon="3.56654">
        <ele>1336.85</ele>
        <time>2025-07-13T09:21:59Z</time>
      </trkpt>
      <trkpt lat="44.62155" lon="3.56626">
        <ele>1337.81</ele>
        <time>2025-07-13T09:22:13Z</time>
      </trkpt>
      <trkpt lat="44.62158" lon="3.56593">
        <ele>1333.97</ele>
        <time>2025-07-13T09:22:29Z</time>
      </trkpt>
      <trkpt lat="44.6216" lon="3.56554">
        <ele>1333.01</ele>
        <time>2025-07-13T09:22:47Z</time>
      </trkpt>
      <trkpt lat="44.62165" lon="3.56517">
        <ele>1329.64</ele>
        <time>2025-07-13T09:23:05Z</time>
      </trkpt>
      <trkpt lat="44.62171" lon="3.56474">
        <ele>1325.8</ele>
        <time>2025-07-13T09:23:26Z</time>
      </trkpt>
      <trkpt lat="44.62172" lon="3.56443">
        <ele>1326.28</ele>
        <time>2025-07-13T09:23:43Z</time>
      </trkpt>
      <trkpt lat="44.62173" lon="3.56419">
        <ele>1325.8</ele>
        <time>2025-07-13T09:23:56Z</time>
      </trkpt>
      <trkpt lat="44.62171" lon="3.56376">
        <ele>1326.28</ele>
        <time>2025-07-13T09:24:15Z</time>
      </trkpt>
      <trkpt lat="44.62172" lon="3.56374">
        <ele>1326.28</ele>
        <time>2025-07-13T09:24:16Z</time>
      </trkpt>
      <trkpt lat="44.62173" lon="3.56372">
        <ele>1326.28</ele>
        <time>2025-07-13T09:24:17Z</time>
      </trkpt>
      <trkpt lat="44.62181" lon="3.56337">
        <ele>1324.83</ele>
        <time>2025-07-13T09:24:35Z</time>
      </trkpt>
      <trkpt lat="44.6219" lon="3.56308">
        <ele>1322.91</ele>
        <time>2025-07-13T09:24:50Z</time>
      </trkpt>
      <trkpt lat="44.62194" lon="3.56277">
        <ele>1325.31</ele>
        <time>2025-07-13T09:25:07Z</time>
      </trkpt>
      <trkpt lat="44.62197" lon="3.56268">
        <ele>1325.31</ele>
        <time>2025-07-13T09:25:23Z</time>
      </trkpt>
      <trkpt lat="44.62205" lon="3.56241">
        <ele>1324.35</ele>
        <time>2025-07-13T09:25:40Z</time>
      </trkpt>
      <trkpt lat="44.62213" lon="3.5621">
        <ele>1323.39</ele>
        <time>2025-07-13T09:25:56Z</time>
      </trkpt>
      <trkpt lat="44.62226" lon="3.56171">
        <ele>1323.87</ele>
        <time>2025-07-13T09:26:16Z</time>
      </trkpt>
      <trkpt lat="44.62228" lon="3.56145">
        <ele>1325.31</ele>
        <time>2025-07-13T09:26:32Z</time>
      </trkpt>
      <trkpt lat="44.62228" lon="3.56143">
        <ele>1325.31</ele>
        <time>2025-07-13T09:26:33Z</time>
      </trkpt>
      <trkpt lat="44.62228" lon="3.56131">
        <ele>1327.24</ele>
        <time>2025-07-13T09:26:40Z</time>
      </trkpt>
      <trkpt lat="44.62229" lon="3.5613">
        <ele>1327.24</ele>
        <time>2025-07-13T09:26:41Z</time>
      </trkpt>
      <trkpt lat="44.62232" lon="3.56105">
        <ele>1334.45</ele>
        <time>2025-07-13T09:26:57Z</time>
      </trkpt>
      <trkpt lat="44.6223" lon="3.56074">
        <ele>1336.37</ele>
        <time>2025-07-13T09:27:13Z</time>
      </trkpt>
      <trkpt lat="44.62229" lon="3.56069">
        <ele>1336.37</ele>
        <time>2025-07-13T09:27:15Z</time>
      </trkpt>
      <trkpt lat="44.62229" lon="3.56065">
        <ele>1336.37</ele>
        <time>2025-07-13T09:27:16Z</time>
      </trkpt>
      <trkpt lat="44.62229" lon="3.56063">
        <ele>1336.37</ele>
        <time>2025-07-13T09:27:17Z</time>
      </trkpt>
      <trkpt lat="44.62225" lon="3.56049">
        <ele>1337.33</ele>
        <time>2025-07-13T09:27:25Z</time>
      </trkpt>
      <trkpt lat="44.62222" lon="3.56028">
        <ele>1339.25</ele>
        <time>2025-07-13T09:27:37Z</time>
      </trkpt>
      <trkpt lat="44.62222" lon="3.56025">
        <ele>1339.25</ele>
        <time>2025-07-13T09:27:39Z</time>
      </trkpt>
      <trkpt lat="44.62223" lon="3.56023">
        <ele>1339.25</ele>
        <time>2025-07-13T09:27:40Z</time>
      </trkpt>
      <trkpt lat="44.62222" lon="3.56021">
        <ele>1339.73</ele>
        <time>2025-07-13T09:27:41Z</time>
      </trkpt>
      <trkpt lat="44.62223" lon="3.56015">
        <ele>1339.73</ele>
        <time>2025-07-13T09:27:44Z</time>
      </trkpt>
      <trkpt lat="44.62224" lon="3.56012">
        <ele>1339.73</ele>
        <time>2025-07-13T09:27:45Z</time>
      </trkpt>
      <trkpt lat="44.62224" lon="3.5601">
        <ele>1339.73</ele>
        <time>2025-07-13T09:27:46Z</time>
      </trkpt>
      <trkpt lat="44.62224" lon="3.56008">
        <ele>1339.73</ele>
        <time>2025-07-13T09:27:47Z</time>
      </trkpt>
      <trkpt lat="44.62224" lon="3.56006">
        <ele>1339.73</ele>
        <time>2025-07-13T09:27:48Z</time>
      </trkpt>
      <trkpt lat="44.62225" lon="3.55993">
        <ele>1339.25</ele>
        <time>2025-07-13T09:27:55Z</time>
      </trkpt>
      <trkpt lat="44.62226" lon="3.55978">
        <ele>1337.33</ele>
        <time>2025-07-13T09:28:03Z</time>
      </trkpt>
      <trkpt lat="44.62227" lon="3.55977">
        <ele>1336.85</ele>
        <time>2025-07-13T09:28:04Z</time>
      </trkpt>
      <trkpt lat="44.62228" lon="3.55975">
        <ele>1336.85</ele>
        <time>2025-07-13T09:28:05Z</time>
      </trkpt>
      <trkpt lat="44.62228" lon="3.55973">
        <ele>1336.85</ele>
        <time>2025-07-13T09:28:06Z</time>
      </trkpt>
      <trkpt lat="44.62229" lon="3.55971">
        <ele>1336.85</ele>
        <time>2025-07-13T09:28:07Z</time>
      </trkpt>
      <trkpt lat="44.62231" lon="3.55968">
        <ele>1336.85</ele>
        <time>2025-07-13T09:28:09Z</time>
      </trkpt>
      <trkpt lat="44.62233" lon="3.55967">
        <ele>1336.37</ele>
        <time>2025-07-13T09:28:10Z</time>
      </trkpt>
      <trkpt lat="44.62235" lon="3.55967">
        <ele>1336.37</ele>
        <time>2025-07-13T09:28:11Z</time>
      </trkpt>
      <trkpt lat="44.62237" lon="3.55967">
        <ele>1336.37</ele>
        <time>2025-07-13T09:28:12Z</time>
      </trkpt>
      <trkpt lat="44.62238" lon="3.55967">
        <ele>1336.37</ele>
        <time>2025-07-13T09:28:13Z</time>
      </trkpt>
      <trkpt lat="44.6224" lon="3.55967">
        <ele>1335.89</ele>
        <time>2025-07-13T09:28:14Z</time>
      </trkpt>
      <trkpt lat="44.62242" lon="3.55968">
        <ele>1335.41</ele>
        <time>2025-07-13T09:28:15Z</time>
      </trkpt>
      <trkpt lat="44.62243" lon="3.55968">
        <ele>1335.41</ele>
        <time>2025-07-13T09:28:16Z</time>
      </trkpt>
      <trkpt lat="44.62257" lon="3.55967">
        <ele>1334.93</ele>
        <time>2025-07-13T09:28:26Z</time>
      </trkpt>
      <trkpt lat="44.62258" lon="3.55968">
        <ele>1334.93</ele>
        <time>2025-07-13T09:28:27Z</time>
      </trkpt>
      <trkpt lat="44.62259" lon="3.55968">
        <ele>1334.93</ele>
        <time>2025-07-13T09:28:28Z</time>
      </trkpt>
      <trkpt lat="44.62278" lon="3.55973">
        <ele>1334.93</ele>
        <time>2025-07-13T09:28:41Z</time>
      </trkpt>
      <trkpt lat="44.62295" lon="3.55977">
        <ele>1334.93</ele>
        <time>2025-07-13T09:28:55Z</time>
      </trkpt>
      <trkpt lat="44.623" lon="3.55978">
        <ele>1335.89</ele>
        <time>2025-07-13T09:28:59Z</time>
      </trkpt>
      <trkpt lat="44.62302" lon="3.55979">
        <ele>1336.37</ele>
        <time>2025-07-13T09:29:00Z</time>
      </trkpt>
      <trkpt lat="44.62304" lon="3.55979">
        <ele>1336.85</ele>
        <time>2025-07-13T09:29:01Z</time>
      </trkpt>
      <trkpt lat="44.62305" lon="3.5598">
        <ele>1337.33</ele>
        <time>2025-07-13T09:29:02Z</time>
      </trkpt>
      <trkpt lat="44.62307" lon="3.55981">
        <ele>1338.29</ele>
        <time>2025-07-13T09:29:03Z</time>
      </trkpt>
      <trkpt lat="44.62309" lon="3.55981">
        <ele>1338.77</ele>
        <time>2025-07-13T09:29:04Z</time>
      </trkpt>
      <trkpt lat="44.62311" lon="3.55982">
        <ele>1339.25</ele>
        <time>2025-07-13T09:29:05Z</time>
      </trkpt>
      <trkpt lat="44.62312" lon="3.55982">
        <ele>1339.73</ele>
        <time>2025-07-13T09:29:06Z</time>
      </trkpt>
      <trkpt lat="44.62337" lon="3.55993">
        <ele>1338.77</ele>
        <time>2025-07-13T09:29:23Z</time>
      </trkpt>
      <trkpt lat="44.62357" lon="3.5602">
        <ele>1339.25</ele>
        <time>2025-07-13T09:29:39Z</time>
      </trkpt>
      <trkpt lat="44.6237" lon="3.56057">
        <ele>1334.45</ele>
        <time>2025-07-13T09:29:54Z</time>
      </trkpt>
      <trkpt lat="44.62368" lon="3.56069">
        <ele>1333.01</ele>
        <time>2025-07-13T09:30:02Z</time>
      </trkpt>
      <trkpt lat="44.62367" lon="3.5607">
        <ele>1333.01</ele>
        <time>2025-07-13T09:30:03Z</time>
      </trkpt>
      <trkpt lat="44.62361" lon="3.56072">
        <ele>1331.56</ele>
        <time>2025-07-13T09:30:17Z</time>
      </trkpt>
      <trkpt lat="44.62358" lon="3.56074">
        <ele>1331.56</ele>
        <time>2025-07-13T09:30:29Z</time>
      </trkpt>
      <trkpt lat="44.62357" lon="3.56073">
        <ele>1331.56</ele>
        <time>2025-07-13T09:30:54Z</time>
      </trkpt>
      <trkpt lat="44.62358" lon="3.56071">
        <ele>1331.08</ele>
        <time>2025-07-13T09:31:15Z</time>
      </trkpt>
      <trkpt lat="44.62359" lon="3.5607">
        <ele>1331.56</ele>
        <time>2025-07-13T09:31:20Z</time>
      </trkpt>
      <trkpt lat="44.62368" lon="3.56059">
        <ele>1333.49</ele>
        <time>2025-07-13T09:31:32Z</time>
      </trkpt>
      <trkpt lat="44.62385" lon="3.56049">
        <ele>1334.93</ele>
        <time>2025-07-13T09:31:45Z</time>
      </trkpt>
      <trkpt lat="44.62392" lon="3.56044">
        <ele>1333.01</ele>
        <time>2025-07-13T09:31:59Z</time>
      </trkpt>
      <trkpt lat="44.624" lon="3.56039">
        <ele>1331.56</ele>
        <time>2025-07-13T09:32:08Z</time>
      </trkpt>
      <trkpt lat="44.62408" lon="3.56031">
        <ele>1330.6</ele>
        <time>2025-07-13T09:32:15Z</time>
      </trkpt>
      <trkpt lat="44.62409" lon="3.5603">
        <ele>1330.6</ele>
        <time>2025-07-13T09:32:16Z</time>
      </trkpt>
      <trkpt lat="44.6241" lon="3.56029">
        <ele>1330.12</ele>
        <time>2025-07-13T09:32:17Z</time>
      </trkpt>
      <trkpt lat="44.62424" lon="3.56009">
        <ele>1328.2</ele>
        <time>2025-07-13T09:32:32Z</time>
      </trkpt>
      <trkpt lat="44.62428" lon="3.56004">
        <ele>1327.72</ele>
        <time>2025-07-13T09:32:36Z</time>
      </trkpt>
      <trkpt lat="44.62428" lon="3.56003">
        <ele>1327.72</ele>
        <time>2025-07-13T09:32:37Z</time>
      </trkpt>
      <trkpt lat="44.62429" lon="3.56001">
        <ele>1328.2</ele>
        <time>2025-07-13T09:32:38Z</time>
      </trkpt>
      <trkpt lat="44.62444" lon="3.55969">
        <ele>1327.24</ele>
        <time>2025-07-13T09:32:57Z</time>
      </trkpt>
      <trkpt lat="44.62451" lon="3.55942">
        <ele>1327.24</ele>
        <time>2025-07-13T09:33:12Z</time>
      </trkpt>
      <trkpt lat="44.62454" lon="3.55923">
        <ele>1324.83</ele>
        <time>2025-07-13T09:33:23Z</time>
      </trkpt>
      <trkpt lat="44.62455" lon="3.55922">
        <ele>1324.35</ele>
        <time>2025-07-13T09:33:24Z</time>
      </trkpt>
      <trkpt lat="44.62456" lon="3.55922">
        <ele>1324.35</ele>
        <time>2025-07-13T09:33:25Z</time>
      </trkpt>
      <trkpt lat="44.62457" lon="3.55921">
        <ele>1323.87</ele>
        <time>2025-07-13T09:33:26Z</time>
      </trkpt>
      <trkpt lat="44.6247" lon="3.55913">
        <ele>1322.43</ele>
        <time>2025-07-13T09:33:36Z</time>
      </trkpt>
      <trkpt lat="44.62472" lon="3.55912">
        <ele>1322.43</ele>
        <time>2025-07-13T09:33:37Z</time>
      </trkpt>
      <trkpt lat="44.62481" lon="3.55917">
        <ele>1320.99</ele>
        <time>2025-07-13T09:33:47Z</time>
      </trkpt>
      <trkpt lat="44.62483" lon="3.55918">
        <ele>1320.99</ele>
        <time>2025-07-13T09:33:48Z</time>
      </trkpt>
      <trkpt lat="44.62484" lon="3.55919">
        <ele>1320.99</ele>
        <time>2025-07-13T09:33:49Z</time>
      </trkpt>
      <trkpt lat="44.62485" lon="3.5592">
        <ele>1320.99</ele>
        <time>2025-07-13T09:33:50Z</time>
      </trkpt>
      <trkpt lat="44.62487" lon="3.5592">
        <ele>1320.99</ele>
        <time>2025-07-13T09:33:51Z</time>
      </trkpt>
      <trkpt lat="44.62489" lon="3.55922">
        <ele>1320.51</ele>
        <time>2025-07-13T09:33:53Z</time>
      </trkpt>
      <trkpt lat="44.6249" lon="3.55924">
        <ele>1320.51</ele>
        <time>2025-07-13T09:33:54Z</time>
      </trkpt>
      <trkpt lat="44.62492" lon="3.55951">
        <ele>1320.03</ele>
        <time>2025-07-13T09:34:07Z</time>
      </trkpt>
      <trkpt lat="44.62483" lon="3.55979">
        <ele>1318.1</ele>
        <time>2025-07-13T09:34:22Z</time>
      </trkpt>
      <trkpt lat="44.6247" lon="3.56011">
        <ele>1317.14</ele>
        <time>2025-07-13T09:34:41Z</time>
      </trkpt>
      <trkpt lat="44.62469" lon="3.56014">
        <ele>1317.14</ele>
        <time>2025-07-13T09:34:43Z</time>
      </trkpt>
      <trkpt lat="44.62469" lon="3.56016">
        <ele>1317.14</ele>
        <time>2025-07-13T09:34:44Z</time>
      </trkpt>
      <trkpt lat="44.62469" lon="3.56018">
        <ele>1317.14</ele>
        <time>2025-07-13T09:34:45Z</time>
      </trkpt>
      <trkpt lat="44.62469" lon="3.56019">
        <ele>1317.14</ele>
        <time>2025-07-13T09:34:46Z</time>
      </trkpt>
      <trkpt lat="44.62469" lon="3.56027">
        <ele>1317.62</ele>
        <time>2025-07-13T09:34:56Z</time>
      </trkpt>
      <trkpt lat="44.6247" lon="3.56028">
        <ele>1317.14</ele>
        <time>2025-07-13T09:34:57Z</time>
      </trkpt>
      <trkpt lat="44.62485" lon="3.56043">
        <ele>1315.22</ele>
        <time>2025-07-13T09:35:13Z</time>
      </trkpt>
      <trkpt lat="44.62504" lon="3.56045">
        <ele>1315.7</ele>
        <time>2025-07-13T09:35:29Z</time>
      </trkpt>
      <trkpt lat="44.62523" lon="3.56032">
        <ele>1316.18</ele>
        <time>2025-07-13T09:35:45Z</time>
      </trkpt>
      <trkpt lat="44.62532" lon="3.56022">
        <ele>1316.18</ele>
        <time>2025-07-13T09:35:54Z</time>
      </trkpt>
      <trkpt lat="44.62534" lon="3.56021">
        <ele>1316.18</ele>
        <time>2025-07-13T09:35:55Z</time>
      </trkpt>
      <trkpt lat="44.62535" lon="3.5602">
        <ele>1316.18</ele>
        <time>2025-07-13T09:35:56Z</time>
      </trkpt>
      <trkpt lat="44.62536" lon="3.56018">
        <ele>1316.18</ele>
        <time>2025-07-13T09:35:57Z</time>
      </trkpt>
      <trkpt lat="44.62536" lon="3.56017">
        <ele>1316.18</ele>
        <time>2025-07-13T09:35:58Z</time>
      </trkpt>
      <trkpt lat="44.62537" lon="3.56016">
        <ele>1316.66</ele>
        <time>2025-07-13T09:35:59Z</time>
      </trkpt>
      <trkpt lat="44.62538" lon="3.56015">
        <ele>1316.66</ele>
        <time>2025-07-13T09:36:00Z</time>
      </trkpt>
      <trkpt lat="44.62539" lon="3.56013">
        <ele>1316.66</ele>
        <time>2025-07-13T09:36:01Z</time>
      </trkpt>
      <trkpt lat="44.6254" lon="3.56013">
        <ele>1316.66</ele>
        <time>2025-07-13T09:36:02Z</time>
      </trkpt>
      <trkpt lat="44.62545" lon="3.56008">
        <ele>1317.14</ele>
        <time>2025-07-13T09:36:06Z</time>
      </trkpt>
      <trkpt lat="44.62547" lon="3.56007">
        <ele>1317.62</ele>
        <time>2025-07-13T09:36:07Z</time>
      </trkpt>
      <trkpt lat="44.62549" lon="3.56006">
        <ele>1318.1</ele>
        <time>2025-07-13T09:36:08Z</time>
      </trkpt>
      <trkpt lat="44.62551" lon="3.56005">
        <ele>1318.1</ele>
        <time>2025-07-13T09:36:09Z</time>
      </trkpt>
      <trkpt lat="44.62553" lon="3.56004">
        <ele>1318.59</ele>
        <time>2025-07-13T09:36:10Z</time>
      </trkpt>
      <trkpt lat="44.62554" lon="3.56003">
        <ele>1319.07</ele>
        <time>2025-07-13T09:36:11Z</time>
      </trkpt>
      <trkpt lat="44.62555" lon="3.56002">
        <ele>1319.55</ele>
        <time>2025-07-13T09:36:12Z</time>
      </trkpt>
      <trkpt lat="44.62572" lon="3.55988">
        <ele>1323.87</ele>
        <time>2025-07-13T09:36:28Z</time>
      </trkpt>
      <trkpt lat="44.62589" lon="3.55993">
        <ele>1326.76</ele>
        <time>2025-07-13T09:36:43Z</time>
      </trkpt>
      <trkpt lat="44.62593" lon="3.55999">
        <ele>1325.8</ele>
        <time>2025-07-13T09:36:48Z</time>
      </trkpt>
      <trkpt lat="44.62593" lon="3.56003">
        <ele>1326.28</ele>
        <time>2025-07-13T09:36:50Z</time>
      </trkpt>
      <trkpt lat="44.62598" lon="3.56024">
        <ele>1327.24</ele>
        <time>2025-07-13T09:37:04Z</time>
      </trkpt>
      <trkpt lat="44.62599" lon="3.56027">
        <ele>1327.24</ele>
        <time>2025-07-13T09:37:06Z</time>
      </trkpt>
      <trkpt lat="44.62603" lon="3.56035">
        <ele>1328.2</ele>
        <time>2025-07-13T09:37:17Z</time>
      </trkpt>
      <trkpt lat="44.62611" lon="3.56063">
        <ele>1331.08</ele>
        <time>2025-07-13T09:37:32Z</time>
      </trkpt>
      <trkpt lat="44.62617" lon="3.56084">
        <ele>1333.01</ele>
        <time>2025-07-13T09:37:45Z</time>
      </trkpt>
      <trkpt lat="44.62617" lon="3.56086">
        <ele>1333.01</ele>
        <time>2025-07-13T09:37:46Z</time>
      </trkpt>
      <trkpt lat="44.62617" lon="3.56088">
        <ele>1333.01</ele>
        <time>2025-07-13T09:37:47Z</time>
      </trkpt>
      <trkpt lat="44.62623" lon="3.56112">
        <ele>1333.01</ele>
        <time>2025-07-13T09:38:03Z</time>
      </trkpt>
      <trkpt lat="44.62632" lon="3.56112">
        <ele>1332.04</ele>
        <time>2025-07-13T09:38:14Z</time>
      </trkpt>
      <trkpt lat="44.62636" lon="3.56111">
        <ele>1332.04</ele>
        <time>2025-07-13T09:38:17Z</time>
      </trkpt>
      <trkpt lat="44.62637" lon="3.56112">
        <ele>1332.04</ele>
        <time>2025-07-13T09:38:18Z</time>
      </trkpt>
      <trkpt lat="44.62639" lon="3.56112">
        <ele>1332.04</ele>
        <time>2025-07-13T09:38:19Z</time>
      </trkpt>
      <trkpt lat="44.62655" lon="3.56111">
        <ele>1333.01</ele>
        <time>2025-07-13T09:38:31Z</time>
      </trkpt>
      <trkpt lat="44.62673" lon="3.56099">
        <ele>1335.41</ele>
        <time>2025-07-13T09:38:46Z</time>
      </trkpt>
      <trkpt lat="44.6269" lon="3.56089">
        <ele>1339.73</ele>
        <time>2025-07-13T09:39:01Z</time>
      </trkpt>
      <trkpt lat="44.62703" lon="3.56082">
        <ele>1341.66</ele>
        <time>2025-07-13T09:39:11Z</time>
      </trkpt>
      <trkpt lat="44.62704" lon="3.56081">
        <ele>1341.66</ele>
        <time>2025-07-13T09:39:12Z</time>
      </trkpt>
      <trkpt lat="44.62719" lon="3.56071">
        <ele>1345.5</ele>
        <time>2025-07-13T09:39:26Z</time>
      </trkpt>
      <trkpt lat="44.62743" lon="3.56059">
        <ele>1346.46</ele>
        <time>2025-07-13T09:39:42Z</time>
      </trkpt>
      <trkpt lat="44.62762" lon="3.56061">
        <ele>1347.91</ele>
        <time>2025-07-13T09:39:56Z</time>
      </trkpt>
      <trkpt lat="44.62786" lon="3.56064">
        <ele>1345.98</ele>
        <time>2025-07-13T09:40:12Z</time>
      </trkpt>
      <trkpt lat="44.62795" lon="3.56066">
        <ele>1344.54</ele>
        <time>2025-07-13T09:40:22Z</time>
      </trkpt>
      <trkpt lat="44.628" lon="3.5607">
        <ele>1343.1</ele>
        <time>2025-07-13T09:40:37Z</time>
      </trkpt>
      <trkpt lat="44.62804" lon="3.56072">
        <ele>1343.58</ele>
        <time>2025-07-13T09:40:57Z</time>
      </trkpt>
      <trkpt lat="44.62819" lon="3.5607">
        <ele>1344.54</ele>
        <time>2025-07-13T09:41:11Z</time>
      </trkpt>
      <trkpt lat="44.62826" lon="3.56074">
        <ele>1344.54</ele>
        <time>2025-07-13T09:41:20Z</time>
      </trkpt>
      <trkpt lat="44.62827" lon="3.56074">
        <ele>1344.54</ele>
        <time>2025-07-13T09:41:21Z</time>
      </trkpt>
      <trkpt lat="44.62829" lon="3.56074">
        <ele>1344.54</ele>
        <time>2025-07-13T09:41:22Z</time>
      </trkpt>
      <trkpt lat="44.6283" lon="3.56073">
        <ele>1344.54</ele>
        <time>2025-07-13T09:41:23Z</time>
      </trkpt>
      <trkpt lat="44.62831" lon="3.56073">
        <ele>1344.06</ele>
        <time>2025-07-13T09:41:24Z</time>
      </trkpt>
      <trkpt lat="44.62832" lon="3.56073">
        <ele>1344.06</ele>
        <time>2025-07-13T09:41:25Z</time>
      </trkpt>
      <trkpt lat="44.62833" lon="3.56073">
        <ele>1344.06</ele>
        <time>2025-07-13T09:41:26Z</time>
      </trkpt>
      <trkpt lat="44.62834" lon="3.56073">
        <ele>1344.06</ele>
        <time>2025-07-13T09:41:27Z</time>
      </trkpt>
      <trkpt lat="44.62836" lon="3.56072">
        <ele>1344.06</ele>
        <time>2025-07-13T09:41:28Z</time>
      </trkpt>
      <trkpt lat="44.62837" lon="3.56072">
        <ele>1344.06</ele>
        <time>2025-07-13T09:41:29Z</time>
      </trkpt>
      <trkpt lat="44.62839" lon="3.56072">
        <ele>1344.06</ele>
        <time>2025-07-13T09:41:30Z</time>
      </trkpt>
      <trkpt lat="44.6284" lon="3.56072">
        <ele>1344.06</ele>
        <time>2025-07-13T09:41:31Z</time>
      </trkpt>
      <trkpt lat="44.62858" lon="3.56069">
        <ele>1345.02</ele>
        <time>2025-07-13T09:41:46Z</time>
      </trkpt>
      <trkpt lat="44.6288" lon="3.56069">
        <ele>1346.46</ele>
        <time>2025-07-13T09:42:03Z</time>
      </trkpt>
      <trkpt lat="44.62902" lon="3.56067">
        <ele>1348.39</ele>
        <time>2025-07-13T09:42:19Z</time>
      </trkpt>
      <trkpt lat="44.62925" lon="3.56068">
        <ele>1350.31</ele>
        <time>2025-07-13T09:42:37Z</time>
      </trkpt>
      <trkpt lat="44.62946" lon="3.5606">
        <ele>1352.71</ele>
        <time>2025-07-13T09:42:54Z</time>
      </trkpt>
      <trkpt lat="44.62968" lon="3.56067">
        <ele>1352.23</ele>
        <time>2025-07-13T09:43:16Z</time>
      </trkpt>
      <trkpt lat="44.62993" lon="3.56066">
        <ele>1349.83</ele>
        <time>2025-07-13T09:43:34Z</time>
      </trkpt>
      <trkpt lat="44.63022" lon="3.56068">
        <ele>1348.87</ele>
        <time>2025-07-13T09:43:55Z</time>
      </trkpt>
      <trkpt lat="44.63049" lon="3.56078">
        <ele>1347.43</ele>
        <time>2025-07-13T09:44:17Z</time>
      </trkpt>
      <trkpt lat="44.63076" lon="3.5609">
        <ele>1344.54</ele>
        <time>2025-07-13T09:44:37Z</time>
      </trkpt>
      <trkpt lat="44.63099" lon="3.56097">
        <ele>1346.46</ele>
        <time>2025-07-13T09:44:55Z</time>
      </trkpt>
      <trkpt lat="44.63132" lon="3.56108">
        <ele>1350.31</ele>
        <time>2025-07-13T09:45:19Z</time>
      </trkpt>
      <trkpt lat="44.63158" lon="3.5612">
        <ele>1352.23</ele>
        <time>2025-07-13T09:45:39Z</time>
      </trkpt>
      <trkpt lat="44.63184" lon="3.56134">
        <ele>1355.12</ele>
        <time>2025-07-13T09:46:00Z</time>
      </trkpt>
      <trkpt lat="44.63202" lon="3.56151">
        <ele>1357.04</ele>
        <time>2025-07-13T09:46:20Z</time>
      </trkpt>
      <trkpt lat="44.63215" lon="3.56167">
        <ele>1352.23</ele>
        <time>2025-07-13T09:46:30Z</time>
      </trkpt>
      <trkpt lat="44.63231" lon="3.5619">
        <ele>1345.02</ele>
        <time>2025-07-13T09:46:47Z</time>
      </trkpt>
      <trkpt lat="44.63248" lon="3.56215">
        <ele>1341.18</ele>
        <time>2025-07-13T09:47:07Z</time>
      </trkpt>
      <trkpt lat="44.63251" lon="3.56213">
        <ele>1341.18</ele>
        <time>2025-07-13T09:47:09Z</time>
      </trkpt>
      <trkpt lat="44.63252" lon="3.56213">
        <ele>1341.18</ele>
        <time>2025-07-13T09:47:10Z</time>
      </trkpt>
      <trkpt lat="44.63274" lon="3.56208">
        <ele>1347.91</ele>
        <time>2025-07-13T09:47:27Z</time>
      </trkpt>
      <trkpt lat="44.63299" lon="3.56199">
        <ele>1349.83</ele>
        <time>2025-07-13T09:47:45Z</time>
      </trkpt>
      <trkpt lat="44.63318" lon="3.56185">
        <ele>1349.35</ele>
        <time>2025-07-13T09:48:04Z</time>
      </trkpt>
      <trkpt lat="44.63343" lon="3.56175">
        <ele>1352.23</ele>
        <time>2025-07-13T09:48:21Z</time>
      </trkpt>
      <trkpt lat="44.63362" lon="3.56167">
        <ele>1353.67</ele>
        <time>2025-07-13T09:48:38Z</time>
      </trkpt>
      <trkpt lat="44.63386" lon="3.56156">
        <ele>1354.63</ele>
        <time>2025-07-13T09:48:58Z</time>
      </trkpt>
      <trkpt lat="44.6341" lon="3.56146">
        <ele>1356.08</ele>
        <time>2025-07-13T09:49:17Z</time>
      </trkpt>
      <trkpt lat="44.63436" lon="3.56135">
        <ele>1357.04</ele>
        <time>2025-07-13T09:49:36Z</time>
      </trkpt>
      <trkpt lat="44.63466" lon="3.56122">
        <ele>1357.52</ele>
        <time>2025-07-13T09:49:50Z</time>
      </trkpt>
      <trkpt lat="44.63499" lon="3.56109">
        <ele>1359.92</ele>
        <time>2025-07-13T09:49:59Z</time>
      </trkpt>
      <trkpt lat="44.63556" lon="3.56081">
        <ele>1362.33</ele>
        <time>2025-07-13T09:50:12Z</time>
      </trkpt>
      <trkpt lat="44.6356" lon="3.5608">
        <ele>1362.81</ele>
        <time>2025-07-13T09:50:13Z</time>
      </trkpt>
      <trkpt lat="44.63621" lon="3.5605">
        <ele>1360.4</ele>
        <time>2025-07-13T09:50:29Z</time>
      </trkpt>
      <trkpt lat="44.63642" lon="3.56042">
        <ele>1359.92</ele>
        <time>2025-07-13T09:50:35Z</time>
      </trkpt>
      <trkpt lat="44.63646" lon="3.56039">
        <ele>1359.92</ele>
        <time>2025-07-13T09:50:36Z</time>
      </trkpt>
      <trkpt lat="44.63656" lon="3.56033">
        <ele>1360.4</ele>
        <time>2025-07-13T09:50:38Z</time>
      </trkpt>
      <trkpt lat="44.63709" lon="3.56011">
        <ele>1362.33</ele>
        <time>2025-07-13T09:50:51Z</time>
      </trkpt>
      <trkpt lat="44.63725" lon="3.56001">
        <ele>1362.81</ele>
        <time>2025-07-13T09:50:55Z</time>
      </trkpt>
      <trkpt lat="44.6373" lon="3.55998">
        <ele>1362.81</ele>
        <time>2025-07-13T09:50:56Z</time>
      </trkpt>
      <trkpt lat="44.63739" lon="3.5599">
        <ele>1363.29</ele>
        <time>2025-07-13T09:50:58Z</time>
      </trkpt>
      <trkpt lat="44.63775" lon="3.5596">
        <ele>1363.77</ele>
        <time>2025-07-13T09:51:06Z</time>
      </trkpt>
      <trkpt lat="44.6383" lon="3.55914">
        <ele>1365.21</ele>
        <time>2025-07-13T09:51:20Z</time>
      </trkpt>
      <trkpt lat="44.63862" lon="3.55879">
        <ele>1367.13</ele>
        <time>2025-07-13T09:51:29Z</time>
      </trkpt>
      <trkpt lat="44.63875" lon="3.55859">
        <ele>1367.13</ele>
        <time>2025-07-13T09:51:33Z</time>
      </trkpt>
      <trkpt lat="44.63885" lon="3.55836">
        <ele>1366.65</ele>
        <time>2025-07-13T09:51:37Z</time>
      </trkpt>
      <trkpt lat="44.63912" lon="3.55761">
        <ele>1368.09</ele>
        <time>2025-07-13T09:51:50Z</time>
      </trkpt>
      <trkpt lat="44.63916" lon="3.5573">
        <ele>1368.09</ele>
        <time>2025-07-13T09:51:56Z</time>
      </trkpt>
      <trkpt lat="44.63915" lon="3.55723">
        <ele>1368.09</ele>
        <time>2025-07-13T09:51:57Z</time>
      </trkpt>
      <trkpt lat="44.63914" lon="3.55716">
        <ele>1368.09</ele>
        <time>2025-07-13T09:51:58Z</time>
      </trkpt>
      <trkpt lat="44.63894" lon="3.55651">
        <ele>1371.46</ele>
        <time>2025-07-13T09:52:06Z</time>
      </trkpt>
      <trkpt lat="44.63891" lon="3.55644">
        <ele>1371.94</ele>
        <time>2025-07-13T09:52:07Z</time>
      </trkpt>
      <trkpt lat="44.63869" lon="3.55594">
        <ele>1379.63</ele>
        <time>2025-07-13T09:52:16Z</time>
      </trkpt>
      <trkpt lat="44.63859" lon="3.55509">
        <ele>1386.84</ele>
        <time>2025-07-13T09:52:29Z</time>
      </trkpt>
      <trkpt lat="44.63858" lon="3.55468">
        <ele>1388.76</ele>
        <time>2025-07-13T09:52:35Z</time>
      </trkpt>
      <trkpt lat="44.63858" lon="3.55461">
        <ele>1388.76</ele>
        <time>2025-07-13T09:52:36Z</time>
      </trkpt>
      <trkpt lat="44.6386" lon="3.55453">
        <ele>1389.24</ele>
        <time>2025-07-13T09:52:37Z</time>
      </trkpt>
      <trkpt lat="44.63887" lon="3.55368">
        <ele>1394.53</ele>
        <time>2025-07-13T09:52:50Z</time>
      </trkpt>
      <trkpt lat="44.6389" lon="3.55362">
        <ele>1394.53</ele>
        <time>2025-07-13T09:52:51Z</time>
      </trkpt>
      <trkpt lat="44.63894" lon="3.55356">
        <ele>1395.01</ele>
        <time>2025-07-13T09:52:52Z</time>
      </trkpt>
      <trkpt lat="44.63898" lon="3.5535">
        <ele>1395.49</ele>
        <time>2025-07-13T09:52:53Z</time>
      </trkpt>
      <trkpt lat="44.63902" lon="3.55345">
        <ele>1395.49</ele>
        <time>2025-07-13T09:52:54Z</time>
      </trkpt>
      <trkpt lat="44.6392" lon="3.55315">
        <ele>1399.34</ele>
        <time>2025-07-13T09:52:59Z</time>
      </trkpt>
      <trkpt lat="44.63923" lon="3.55308">
        <ele>1400.3</ele>
        <time>2025-07-13T09:53:00Z</time>
      </trkpt>
      <trkpt lat="44.63926" lon="3.55302">
        <ele>1400.78</ele>
        <time>2025-07-13T09:53:01Z</time>
      </trkpt>
      <trkpt lat="44.63928" lon="3.55295">
        <ele>1401.74</ele>
        <time>2025-07-13T09:53:02Z</time>
      </trkpt>
      <trkpt lat="44.63929" lon="3.55288">
        <ele>1402.7</ele>
        <time>2025-07-13T09:53:03Z</time>
      </trkpt>
      <trkpt lat="44.63929" lon="3.5528">
        <ele>1403.66</ele>
        <time>2025-07-13T09:53:04Z</time>
      </trkpt>
      <trkpt lat="44.63928" lon="3.55272">
        <ele>1404.62</ele>
        <time>2025-07-13T09:53:05Z</time>
      </trkpt>
      <trkpt lat="44.63925" lon="3.55263">
        <ele>1405.58</ele>
        <time>2025-07-13T09:53:06Z</time>
      </trkpt>
      <trkpt lat="44.63923" lon="3.55255">
        <ele>1407.03</ele>
        <time>2025-07-13T09:53:07Z</time>
      </trkpt>
      <trkpt lat="44.63919" lon="3.55248">
        <ele>1407.99</ele>
        <time>2025-07-13T09:53:08Z</time>
      </trkpt>
      <trkpt lat="44.63916" lon="3.55241">
        <ele>1409.43</ele>
        <time>2025-07-13T09:53:09Z</time>
      </trkpt>
      <trkpt lat="44.63885" lon="3.55191">
        <ele>1419.52</ele>
        <time>2025-07-13T09:53:22Z</time>
      </trkpt>
      <trkpt lat="44.63862" lon="3.55143">
        <ele>1426.73</ele>
        <time>2025-07-13T09:53:38Z</time>
      </trkpt>
      <trkpt lat="44.63846" lon="3.55108">
        <ele>1432.5</ele>
        <time>2025-07-13T09:53:53Z</time>
      </trkpt>
      <trkpt lat="44.63842" lon="3.55096">
        <ele>1434.42</ele>
        <time>2025-07-13T09:54:01Z</time>
      </trkpt>
      <trkpt lat="44.63849" lon="3.55078">
        <ele>1435.39</ele>
        <time>2025-07-13T09:54:12Z</time>
      </trkpt>
      <trkpt lat="44.6385" lon="3.55077">
        <ele>1435.39</ele>
        <time>2025-07-13T09:54:13Z</time>
      </trkpt>
      <trkpt lat="44.63867" lon="3.55038">
        <ele>1439.23</ele>
        <time>2025-07-13T09:54:32Z</time>
      </trkpt>
      <trkpt lat="44.63876" lon="3.55015">
        <ele>1439.23</ele>
        <time>2025-07-13T09:54:47Z</time>
      </trkpt>
      <trkpt lat="44.63875" lon="3.55003">
        <ele>1438.75</ele>
        <time>2025-07-13T09:54:54Z</time>
      </trkpt>
      <trkpt lat="44.63867" lon="3.5497">
        <ele>1441.15</ele>
        <time>2025-07-13T09:55:12Z</time>
      </trkpt>
      <trkpt lat="44.63867" lon="3.54966">
        <ele>1441.15</ele>
        <time>2025-07-13T09:55:14Z</time>
      </trkpt>
      <trkpt lat="44.63867" lon="3.54964">
        <ele>1441.15</ele>
        <time>2025-07-13T09:55:15Z</time>
      </trkpt>
      <trkpt lat="44.63862" lon="3.54925">
        <ele>1442.11</ele>
        <time>2025-07-13T09:55:36Z</time>
      </trkpt>
      <trkpt lat="44.63858" lon="3.54888">
        <ele>1443.08</ele>
        <time>2025-07-13T09:55:55Z</time>
      </trkpt>
      <trkpt lat="44.63857" lon="3.54854">
        <ele>1441.15</ele>
        <time>2025-07-13T09:56:12Z</time>
      </trkpt>
      <trkpt lat="44.63857" lon="3.5485">
        <ele>1440.19</ele>
        <time>2025-07-13T09:56:14Z</time>
      </trkpt>
      <trkpt lat="44.63858" lon="3.54848">
        <ele>1440.19</ele>
        <time>2025-07-13T09:56:15Z</time>
      </trkpt>
      <trkpt lat="44.63858" lon="3.54846">
        <ele>1439.71</ele>
        <time>2025-07-13T09:56:16Z</time>
      </trkpt>
      <trkpt lat="44.63858" lon="3.54843">
        <ele>1439.23</ele>
        <time>2025-07-13T09:56:17Z</time>
      </trkpt>
      <trkpt lat="44.63858" lon="3.54841">
        <ele>1438.75</ele>
        <time>2025-07-13T09:56:18Z</time>
      </trkpt>
      <trkpt lat="44.63858" lon="3.54814">
        <ele>1435.39</ele>
        <time>2025-07-13T09:56:33Z</time>
      </trkpt>
      <trkpt lat="44.63864" lon="3.54778">
        <ele>1435.39</ele>
        <time>2025-07-13T09:56:51Z</time>
      </trkpt>
      <trkpt lat="44.63873" lon="3.54747">
        <ele>1433.46</ele>
        <time>2025-07-13T09:57:08Z</time>
      </trkpt>
      <trkpt lat="44.63883" lon="3.5472">
        <ele>1432.98</ele>
        <time>2025-07-13T09:57:25Z</time>
      </trkpt>
      <trkpt lat="44.63895" lon="3.54678">
        <ele>1435.39</ele>
        <time>2025-07-13T09:57:43Z</time>
      </trkpt>
      <trkpt lat="44.63901" lon="3.5465">
        <ele>1436.35</ele>
        <time>2025-07-13T09:57:58Z</time>
      </trkpt>
      <trkpt lat="44.63903" lon="3.54618">
        <ele>1436.35</ele>
        <time>2025-07-13T09:58:11Z</time>
      </trkpt>
      <trkpt lat="44.63908" lon="3.54579">
        <ele>1436.83</ele>
        <time>2025-07-13T09:58:30Z</time>
      </trkpt>
      <trkpt lat="44.63913" lon="3.54557">
        <ele>1437.79</ele>
        <time>2025-07-13T09:58:44Z</time>
      </trkpt>
      <trkpt lat="44.63921" lon="3.5452">
        <ele>1438.27</ele>
        <time>2025-07-13T09:59:02Z</time>
      </trkpt>
      <trkpt lat="44.63928" lon="3.54488">
        <ele>1438.27</ele>
        <time>2025-07-13T09:59:19Z</time>
      </trkpt>
      <trkpt lat="44.63934" lon="3.54459">
        <ele>1439.71</ele>
        <time>2025-07-13T09:59:36Z</time>
      </trkpt>
      <trkpt lat="44.63941" lon="3.54429">
        <ele>1439.71</ele>
        <time>2025-07-13T09:59:52Z</time>
      </trkpt>
      <trkpt lat="44.6395" lon="3.54398">
        <ele>1440.67</ele>
        <time>2025-07-13T10:00:07Z</time>
      </trkpt>
      <trkpt lat="44.63958" lon="3.54371">
        <ele>1441.15</ele>
        <time>2025-07-13T10:00:20Z</time>
      </trkpt>
      <trkpt lat="44.63968" lon="3.54347">
        <ele>1441.15</ele>
        <time>2025-07-13T10:00:36Z</time>
      </trkpt>
      <trkpt lat="44.63969" lon="3.54345">
        <ele>1439.71</ele>
        <time>2025-07-13T10:00:52Z</time>
      </trkpt>
      <trkpt lat="44.63969" lon="3.54342">
        <ele>1440.19</ele>
        <time>2025-07-13T10:00:55Z</time>
      </trkpt>
      <trkpt lat="44.63975" lon="3.54312">
        <ele>1440.19</ele>
        <time>2025-07-13T10:01:11Z</time>
      </trkpt>
      <trkpt lat="44.63985" lon="3.54285">
        <ele>1441.63</ele>
        <time>2025-07-13T10:01:26Z</time>
      </trkpt>
      <trkpt lat="44.64005" lon="3.54261">
        <ele>1443.56</ele>
        <time>2025-07-13T10:01:44Z</time>
      </trkpt>
      <trkpt lat="44.64024" lon="3.54236">
        <ele>1444.04</ele>
        <time>2025-07-13T10:02:02Z</time>
      </trkpt>
      <trkpt lat="44.64046" lon="3.54211">
        <ele>1445.48</ele>
        <time>2025-07-13T10:02:21Z</time>
      </trkpt>
      <trkpt lat="44.64063" lon="3.54187">
        <ele>1445.48</ele>
        <time>2025-07-13T10:02:38Z</time>
      </trkpt>
      <trkpt lat="44.64087" lon="3.54165">
        <ele>1447.88</ele>
        <time>2025-07-13T10:02:51Z</time>
      </trkpt>
      <trkpt lat="44.64103" lon="3.54156">
        <ele>1451.25</ele>
        <time>2025-07-13T10:03:06Z</time>
      </trkpt>
      <trkpt lat="44.64119" lon="3.54161">
        <ele>1452.69</ele>
        <time>2025-07-13T10:03:24Z</time>
      </trkpt>
      <trkpt lat="44.64149" lon="3.5417">
        <ele>1457.5</ele>
        <time>2025-07-13T10:03:42Z</time>
      </trkpt>
      <trkpt lat="44.64174" lon="3.54157">
        <ele>1460.38</ele>
        <time>2025-07-13T10:04:00Z</time>
      </trkpt>
      <trkpt lat="44.64188" lon="3.54144">
        <ele>1460.86</ele>
        <time>2025-07-13T10:04:17Z</time>
      </trkpt>
      <trkpt lat="44.6421" lon="3.54125">
        <ele>1466.15</ele>
        <time>2025-07-13T10:04:37Z</time>
      </trkpt>
      <trkpt lat="44.64232" lon="3.54108">
        <ele>1469.03</ele>
        <time>2025-07-13T10:04:58Z</time>
      </trkpt>
      <trkpt lat="44.64255" lon="3.54106">
        <ele>1470.95</ele>
        <time>2025-07-13T10:05:15Z</time>
      </trkpt>
      <trkpt lat="44.64257" lon="3.54106">
        <ele>1470.95</ele>
        <time>2025-07-13T10:05:16Z</time>
      </trkpt>
      <trkpt lat="44.64259" lon="3.54106">
        <ele>1471.44</ele>
        <time>2025-07-13T10:05:17Z</time>
      </trkpt>
      <trkpt lat="44.64288" lon="3.54108">
        <ele>1478.65</ele>
        <time>2025-07-13T10:05:38Z</time>
      </trkpt>
      <trkpt lat="44.64301" lon="3.54105">
        <ele>1482.49</ele>
        <time>2025-07-13T10:05:48Z</time>
      </trkpt>
      <trkpt lat="44.64324" lon="3.54095">
        <ele>1482.97</ele>
        <time>2025-07-13T10:06:03Z</time>
      </trkpt>
      <trkpt lat="44.64344" lon="3.5408">
        <ele>1485.37</ele>
        <time>2025-07-13T10:06:21Z</time>
      </trkpt>
      <trkpt lat="44.64355" lon="3.54065">
        <ele>1484.41</ele>
        <time>2025-07-13T10:06:36Z</time>
      </trkpt>
      <trkpt lat="44.6436" lon="3.54047">
        <ele>1486.34</ele>
        <time>2025-07-13T10:06:51Z</time>
      </trkpt>
      <trkpt lat="44.6436" lon="3.54044">
        <ele>1486.34</ele>
        <time>2025-07-13T10:06:52Z</time>
      </trkpt>
      <trkpt lat="44.64361" lon="3.54043">
        <ele>1486.34</ele>
        <time>2025-07-13T10:06:53Z</time>
      </trkpt>
      <trkpt lat="44.64362" lon="3.54029">
        <ele>1486.34</ele>
        <time>2025-07-13T10:07:02Z</time>
      </trkpt>
      <trkpt lat="44.64363" lon="3.54024">
        <ele>1486.34</ele>
        <time>2025-07-13T10:07:05Z</time>
      </trkpt>
      <trkpt lat="44.64362" lon="3.53997">
        <ele>1484.41</ele>
        <time>2025-07-13T10:07:22Z</time>
      </trkpt>
      <trkpt lat="44.64362" lon="3.53962">
        <ele>1481.05</ele>
        <time>2025-07-13T10:07:42Z</time>
      </trkpt>
      <trkpt lat="44.64364" lon="3.53933">
        <ele>1479.61</ele>
        <time>2025-07-13T10:07:57Z</time>
      </trkpt>
      <trkpt lat="44.64369" lon="3.53909">
        <ele>1481.05</ele>
        <time>2025-07-13T10:08:12Z</time>
      </trkpt>
      <trkpt lat="44.64372" lon="3.53882">
        <ele>1482.49</ele>
        <time>2025-07-13T10:08:27Z</time>
      </trkpt>
      <trkpt lat="44.64381" lon="3.53859">
        <ele>1484.41</ele>
        <time>2025-07-13T10:08:42Z</time>
        <extensions>
          <visugpx:TrkExtension xmlns:visugpx="https://www.visugpx.com/editgpx/">
            <visugpx:node>1</visugpx:node>
            </visugpx:TrkExtension>
        </extensions>
      </trkpt>
      <trkpt lat="44.64382" lon="3.53858">
        <ele>1481.7</ele>
      </trkpt>
      <trkpt lat="44.64384" lon="3.53855">
        <ele>1482.1</ele>
      </trkpt>
      <trkpt lat="44.64387" lon="3.53852">
        <ele>1482.5</ele>
      </trkpt>
      <trkpt lat="44.64385" lon="3.53847">
        <ele>1482.7</ele>
      </trkpt>
      <trkpt lat="44.64386" lon="3.5384">
        <ele>1483.3</ele>
      </trkpt>
      <trkpt lat="44.64392" lon="3.53823">
        <ele>1485.1</ele>
      </trkpt>
      <trkpt lat="44.64401" lon="3.53801">
        <ele>1488.2</ele>
      </trkpt>
      <trkpt lat="44.64406" lon="3.53781">
        <ele>1491.1</ele>
      </trkpt>
      <trkpt lat="44.64409" lon="3.5376">
        <ele>1493.8</ele>
      </trkpt>
      <trkpt lat="44.64419" lon="3.53734">
        <ele>1498.5</ele>
      </trkpt>
      <trkpt lat="44.64425" lon="3.53717">
        <ele>1501</ele>
      </trkpt>
      <trkpt lat="44.64437" lon="3.53696">
        <ele>1504</ele>
      </trkpt>
      <trkpt lat="44.64452" lon="3.53672">
        <ele>1508.3</ele>
      </trkpt>
      <trkpt lat="44.64467" lon="3.53651">
        <ele>1511.6</ele>
      </trkpt>
      <trkpt lat="44.64475" lon="3.53634">
        <ele>1513.4</ele>
      </trkpt>
      <trkpt lat="44.6448" lon="3.53624">
        <ele>1514.1</ele>
      </trkpt>
      <trkpt lat="44.64484" lon="3.53613">
        <ele>1514.8</ele>
      </trkpt>
      <trkpt lat="44.6449" lon="3.53602">
        <ele>1515.8</ele>
      </trkpt>
      <trkpt lat="44.64503" lon="3.53587">
        <ele>1518.1</ele>
      </trkpt>
      <trkpt lat="44.64514" lon="3.53575">
        <ele>1519.8</ele>
      </trkpt>
      <trkpt lat="44.64519" lon="3.53567">
        <ele>1520.6</ele>
      </trkpt>
      <trkpt lat="44.64523" lon="3.53554">
        <ele>1521.5</ele>
      </trkpt>
      <trkpt lat="44.64528" lon="3.53543">
        <ele>1522</ele>
      </trkpt>
      <trkpt lat="44.64536" lon="3.53534">
        <ele>1522.8</ele>
      </trkpt>
      <trkpt lat="44.64541" lon="3.53526">
        <ele>1523.5</ele>
      </trkpt>
      <trkpt lat="44.64543" lon="3.53518">
        <ele>1524</ele>
      </trkpt>
      <trkpt lat="44.64542" lon="3.5351">
        <ele>1524.2</ele>
      </trkpt>
      <trkpt lat="44.64537" lon="3.53496">
        <ele>1524.2</ele>
      </trkpt>
      <trkpt lat="44.64531" lon="3.53485">
        <ele>1524.4</ele>
      </trkpt>
      <trkpt lat="44.64527" lon="3.5348">
        <ele>1524.4</ele>
      </trkpt>
      <trkpt lat="44.64523" lon="3.53477">
        <ele>1524.3</ele>
      </trkpt>
      <trkpt lat="44.64519" lon="3.53473">
        <ele>1524.3</ele>
      </trkpt>
      <trkpt lat="44.64515" lon="3.5347">
        <ele>1524.2</ele>
      </trkpt>
      <trkpt lat="44.64511" lon="3.53468">
        <ele>1524</ele>
      </trkpt>
      <trkpt lat="44.64506" lon="3.53467">
        <ele>1523.8</ele>
      </trkpt>
      <trkpt lat="44.64495" lon="3.53467">
        <ele>1523.4</ele>
      </trkpt>
      <trkpt lat="44.64489" lon="3.53467">
        <ele>1523.4</ele>
      </trkpt>
      <trkpt lat="44.64484" lon="3.53464">
        <ele>1523.6</ele>
      </trkpt>
      <trkpt lat="44.64479" lon="3.53461">
        <ele>1523.8</ele>
      </trkpt>
      <trkpt lat="44.64478" lon="3.53461">
        <ele>1523.8</ele>
        <extensions>
          <visugpx:TrkExtension xmlns:visugpx="https://www.visugpx.com/editgpx/">
            <visugpx:node>2</visugpx:node>
            </visugpx:TrkExtension>
        </extensions>
      </trkpt>
      <trkpt lat="44.64475" lon="3.53459">
        <ele>1524</ele>
      </trkpt>
      <trkpt lat="44.64471" lon="3.53458">
        <ele>1524</ele>
      </trkpt>
      <trkpt lat="44.64466" lon="3.53459">
        <ele>1523.8</ele>
      </trkpt>
      <trkpt lat="44.64463" lon="3.53463">
        <ele>1523.4</ele>
      </trkpt>
      <trkpt lat="44.6446" lon="3.53468">
        <ele>1522.9</ele>
      </trkpt>
      <trkpt lat="44.64454" lon="3.53472">
        <ele>1522.4</ele>
      </trkpt>
      <trkpt lat="44.64445" lon="3.53477">
        <ele>1521.7</ele>
      </trkpt>
      <trkpt lat="44.64435" lon="3.53481">
        <ele>1520.9</ele>
      </trkpt>
      <trkpt lat="44.64429" lon="3.53482">
        <ele>1520.5</ele>
      </trkpt>
      <trkpt lat="44.64424" lon="3.5348">
        <ele>1520.5</ele>
      </trkpt>
      <trkpt lat="44.6442" lon="3.53476">
        <ele>1520.7</ele>
      </trkpt>
      <trkpt lat="44.64414" lon="3.53475">
        <ele>1520.5</ele>
      </trkpt>
      <trkpt lat="44.64406" lon="3.53473">
        <ele>1520.1</ele>
      </trkpt>
      <trkpt lat="44.64402" lon="3.53472">
        <ele>1520</ele>
      </trkpt>
      <trkpt lat="44.64399" lon="3.53475">
        <ele>1519.4</ele>
      </trkpt>
      <trkpt lat="44.64395" lon="3.53484">
        <ele>1518.2</ele>
      </trkpt>
      <trkpt lat="44.64392" lon="3.5349">
        <ele>1517.3</ele>
      </trkpt>
      <trkpt lat="44.64387" lon="3.53495">
        <ele>1516.5</ele>
      </trkpt>
      <trkpt lat="44.64382" lon="3.53496">
        <ele>1516.2</ele>
      </trkpt>
      <trkpt lat="44.64377" lon="3.53494">
        <ele>1516.2</ele>
      </trkpt>
      <trkpt lat="44.64374" lon="3.5349">
        <ele>1516.5</ele>
      </trkpt>
      <trkpt lat="44.64368" lon="3.53486">
        <ele>1516.8</ele>
      </trkpt>
      <trkpt lat="44.64362" lon="3.53482">
        <ele>1517</ele>
      </trkpt>
      <trkpt lat="44.64355" lon="3.53478">
        <ele>1517</ele>
      </trkpt>
      <trkpt lat="44.64351" lon="3.53475">
        <ele>1517</ele>
      </trkpt>
      <trkpt lat="44.64348" lon="3.53474">
        <ele>1516.9</ele>
      </trkpt>
      <trkpt lat="44.64345" lon="3.53471">
        <ele>1517</ele>
      </trkpt>
      <trkpt lat="44.64342" lon="3.53467">
        <ele>1517.2</ele>
      </trkpt>
      <trkpt lat="44.64337" lon="3.53462">
        <ele>1517.4</ele>
      </trkpt>
      <trkpt lat="44.64335" lon="3.53457">
        <ele>1517.8</ele>
      </trkpt>
      <trkpt lat="44.64333" lon="3.53451">
        <ele>1518.3</ele>
      </trkpt>
      <trkpt lat="44.64329" lon="3.53448">
        <ele>1518.3</ele>
      </trkpt>
      <trkpt lat="44.64325" lon="3.53444">
        <ele>1518.5</ele>
      </trkpt>
      <trkpt lat="44.64322" lon="3.53439">
        <ele>1519</ele>
      </trkpt>
      <trkpt lat="44.64321" lon="3.53437">
        <ele>1519.2</ele>
      </trkpt>
      <trkpt lat="44.64319" lon="3.53436">
        <ele>1519.2</ele>
      </trkpt>
      <trkpt lat="44.64316" lon="3.53431">
        <ele>1519.7</ele>
      </trkpt>
      <trkpt lat="44.6431" lon="3.53424">
        <ele>1520.3</ele>
      </trkpt>
      <trkpt lat="44.64303" lon="3.53418">
        <ele>1520.9</ele>
      </trkpt>
      <trkpt lat="44.64296" lon="3.53412">
        <ele>1522.4</ele>
      </trkpt>
      <trkpt lat="44.64294" lon="3.5341">
        <ele>1523</ele>
      </trkpt>
      <trkpt lat="44.64291" lon="3.53405">
        <ele>1524.3</ele>
      </trkpt>
      <trkpt lat="44.64288" lon="3.53403">
        <ele>1524.9</ele>
      </trkpt>
      <trkpt lat="44.64286" lon="3.53399">
        <ele>1526</ele>
      </trkpt>
      <trkpt lat="44.64284" lon="3.53396">
        <ele>1526.8</ele>
      </trkpt>
      <trkpt lat="44.64279" lon="3.53393">
        <ele>1527.9</ele>
      </trkpt>
      <trkpt lat="44.64273" lon="3.53388">
        <ele>1529.2</ele>
      </trkpt>
      <trkpt lat="44.6427" lon="3.53385">
        <ele>1529.9</ele>
      </trkpt>
      <trkpt lat="44.64268" lon="3.53383">
        <ele>1530.3</ele>
      </trkpt>
      <trkpt lat="44.64265" lon="3.5338">
        <ele>1531.1</ele>
      </trkpt>
      <trkpt lat="44.64262" lon="3.53377">
        <ele>1531.8</ele>
      </trkpt>
      <trkpt lat="44.64258" lon="3.53375">
        <ele>1532.4</ele>
      </trkpt>
      <trkpt lat="44.64256" lon="3.53373">
        <ele>1532.9</ele>
      </trkpt>
      <trkpt lat="44.64254" lon="3.53369">
        <ele>1533.9</ele>
      </trkpt>
      <trkpt lat="44.64254" lon="3.53366">
        <ele>1534.6</ele>
      </trkpt>
      <trkpt lat="44.64252" lon="3.53364">
        <ele>1535.2</ele>
      </trkpt>
      <trkpt lat="44.64249" lon="3.53361">
        <ele>1536</ele>
      </trkpt>
      <trkpt lat="44.64245" lon="3.53359">
        <ele>1536.3</ele>
      </trkpt>
      <trkpt lat="44.64243" lon="3.53356">
        <ele>1536.7</ele>
      </trkpt>
      <trkpt lat="44.64242" lon="3.53353">
        <ele>1537.1</ele>
      </trkpt>
      <trkpt lat="44.64237" lon="3.53346">
        <ele>1537.9</ele>
      </trkpt>
      <trkpt lat="44.64236" lon="3.53343">
        <ele>1538.3</ele>
      </trkpt>
      <trkpt lat="44.64236" lon="3.53337">
        <ele>1539</ele>
      </trkpt>
      <trkpt lat="44.64236" lon="3.53336">
        <ele>1539.2</ele>
        <extensions>
          <visugpx:TrkExtension xmlns:visugpx="https://www.visugpx.com/editgpx/">
            <visugpx:node>3</visugpx:node>
            </visugpx:TrkExtension>
        </extensions>
      </trkpt>
      <trkpt lat="44.64235" lon="3.53324">
        <ele>1540.6</ele>
      </trkpt>
      <trkpt lat="44.64233" lon="3.53318">
        <ele>1541.1</ele>
      </trkpt>
      <trkpt lat="44.64232" lon="3.53313">
        <ele>1541.6</ele>
      </trkpt>
      <trkpt lat="44.64234" lon="3.5331">
        <ele>1542.2</ele>
      </trkpt>
      <trkpt lat="44.64236" lon="3.53307">
        <ele>1542.8</ele>
      </trkpt>
      <trkpt lat="44.64239" lon="3.53305">
        <ele>1543.5</ele>
      </trkpt>
      <trkpt lat="44.64242" lon="3.53302">
        <ele>1544.3</ele>
      </trkpt>
      <trkpt lat="44.64242" lon="3.533">
        <ele>1544.5</ele>
      </trkpt>
      <trkpt lat="44.64244" lon="3.53297">
        <ele>1545.1</ele>
      </trkpt>
      <trkpt lat="44.64245" lon="3.53294">
        <ele>1545.6</ele>
      </trkpt>
      <trkpt lat="44.64245" lon="3.53291">
        <ele>1545.9</ele>
      </trkpt>
      <trkpt lat="44.64245" lon="3.53288">
        <ele>1546.3</ele>
      </trkpt>
      <trkpt lat="44.64247" lon="3.53286">
        <ele>1546.8</ele>
      </trkpt>
      <trkpt lat="44.64247" lon="3.53283">
        <ele>1547.1</ele>
      </trkpt>
      <trkpt lat="44.6425" lon="3.53279">
        <ele>1547.9</ele>
      </trkpt>
      <trkpt lat="44.64255" lon="3.5327">
        <ele>1547.8</ele>
      </trkpt>
      <trkpt lat="44.64262" lon="3.53261">
        <ele>1547.3</ele>
      </trkpt>
      <trkpt lat="44.64269" lon="3.53253">
        <ele>1546.7</ele>
      </trkpt>
      <trkpt lat="44.64275" lon="3.53247">
        <ele>1545.8</ele>
      </trkpt>
      <trkpt lat="44.64282" lon="3.53236">
        <ele>1544.3</ele>
      </trkpt>
      <trkpt lat="44.64288" lon="3.53226">
        <ele>1543</ele>
      </trkpt>
      <trkpt lat="44.64294" lon="3.53217">
        <ele>1542</ele>
      </trkpt>
      <trkpt lat="44.64298" lon="3.53209">
        <ele>1541.3</ele>
      </trkpt>
      <trkpt lat="44.64316" lon="3.53214">
        <ele>1540.9</ele>
      </trkpt>
      <trkpt lat="44.64337" lon="3.53218">
        <ele>1540.4</ele>
      </trkpt>
      <trkpt lat="44.64348" lon="3.53219">
        <ele>1540.1</ele>
        <extensions>
          <visugpx:TrkExtension xmlns:visugpx="https://www.visugpx.com/editgpx/">
            <visugpx:node>4</visugpx:node>
            </visugpx:TrkExtension>
        </extensions>
      </trkpt>
      <trkpt lat="44.64363" lon="3.53221">
        <ele>1539.7</ele>
      </trkpt>
      <trkpt lat="44.6438" lon="3.53223">
        <ele>1538.7</ele>
      </trkpt>
      <trkpt lat="44.64399" lon="3.53225">
        <ele>1537.4</ele>
      </trkpt>
      <trkpt lat="44.64413" lon="3.53228">
        <ele>1536.5</ele>
      </trkpt>
      <trkpt lat="44.64423" lon="3.53234">
        <ele>1536</ele>
      </trkpt>
      <trkpt lat="44.64434" lon="3.53241">
        <ele>1535.4</ele>
      </trkpt>
      <trkpt lat="44.64444" lon="3.5325">
        <ele>1535</ele>
      </trkpt>
      <trkpt lat="44.64445" lon="3.53251">
        <ele>1534.9</ele>
      </trkpt>
      <trkpt lat="44.6445" lon="3.53256">
        <ele>1534.4</ele>
      </trkpt>
      <trkpt lat="44.64461" lon="3.53267">
        <ele>1533.6</ele>
      </trkpt>
      <trkpt lat="44.64491" lon="3.53298">
        <ele>1532.1</ele>
      </trkpt>
      <trkpt lat="44.64521" lon="3.53328">
        <ele>1531</ele>
      </trkpt>
      <trkpt lat="44.64532" lon="3.53339">
        <ele>1530.8</ele>
      </trkpt>
      <trkpt lat="44.64551" lon="3.53358">
        <ele>1530.9</ele>
      </trkpt>
      <trkpt lat="44.64569" lon="3.53376">
        <ele>1530.5</ele>
      </trkpt>
      <trkpt lat="44.64582" lon="3.53388">
        <ele>1530</ele>
      </trkpt>
      <trkpt lat="44.64591" lon="3.53394">
        <ele>1530</ele>
      </trkpt>
      <trkpt lat="44.64603" lon="3.53401">
        <ele>1530</ele>
      </trkpt>
      <trkpt lat="44.64624" lon="3.53412">
        <ele>1530</ele>
      </trkpt>
      <trkpt lat="44.64655" lon="3.53427">
        <ele>1530</ele>
      </trkpt>
      <trkpt lat="44.64691" lon="3.53444">
        <ele>1529.1</ele>
      </trkpt>
      <trkpt lat="44.64722" lon="3.53459">
        <ele>1528</ele>
      </trkpt>
      <trkpt lat="44.64757" lon="3.53476">
        <ele>1525.1</ele>
      </trkpt>
      <trkpt lat="44.64775" lon="3.53484">
        <ele>1522.8</ele>
      </trkpt>
      <trkpt lat="44.64803" lon="3.53498">
        <ele>1519.3</ele>
      </trkpt>
      <trkpt lat="44.64843" lon="3.53517">
        <ele>1514.6</ele>
      </trkpt>
      <trkpt lat="44.64858" lon="3.53525">
        <ele>1513.2</ele>
      </trkpt>
      <trkpt lat="44.64868" lon="3.53531">
        <ele>1512.4</ele>
      </trkpt>
      <trkpt lat="44.64876" lon="3.5354">
        <ele>1511.8</ele>
      </trkpt>
      <trkpt lat="44.64883" lon="3.53548">
        <ele>1511.4</ele>
      </trkpt>
      <trkpt lat="44.64892" lon="3.5356">
        <ele>1510.7</ele>
      </trkpt>
      <trkpt lat="44.64899" lon="3.53572">
        <ele>1510.1</ele>
      </trkpt>
      <trkpt lat="44.64901" lon="3.53575">
        <ele>1510</ele>
      </trkpt>
      <trkpt lat="44.6491" lon="3.53588">
        <ele>1509.6</ele>
      </trkpt>
      <trkpt lat="44.64919" lon="3.53598">
        <ele>1509.5</ele>
      </trkpt>
      <trkpt lat="44.64928" lon="3.53607">
        <ele>1509.8</ele>
      </trkpt>
      <trkpt lat="44.64931" lon="3.53609">
        <ele>1509.9</ele>
      </trkpt>
      <trkpt lat="44.64946" lon="3.53621">
        <ele>1510</ele>
      </trkpt>
      <trkpt lat="44.64947" lon="3.53621">
        <ele>1510</ele>
      </trkpt>
      <trkpt lat="44.64953" lon="3.53625">
        <ele>1510.2</ele>
        <extensions>
          <visugpx:TrkExtension xmlns:visugpx="https://www.visugpx.com/editgpx/">
            <visugpx:node>5</visugpx:node>
            </visugpx:TrkExtension>
        </extensions>
      </trkpt>
      <trkpt lat="44.6495" lon="3.53627">
        <ele>1512.77</ele>
        <time>2025-07-13T10:23:11Z</time>
        <extensions>
          <visugpx:TrkExtension xmlns:visugpx="https://www.visugpx.com/editgpx/">
            <visugpx:node>6</visugpx:node>
            </visugpx:TrkExtension>
        </extensions>
      </trkpt>
      <trkpt lat="44.64971" lon="3.5364">
        <ele>1513.73</ele>
        <time>2025-07-13T10:23:30Z</time>
      </trkpt>
      <trkpt lat="44.64995" lon="3.53655">
        <ele>1514.21</ele>
        <time>2025-07-13T10:23:49Z</time>
      </trkpt>
      <trkpt lat="44.65018" lon="3.53673">
        <ele>1511.81</ele>
        <time>2025-07-13T10:24:07Z</time>
      </trkpt>
      <trkpt lat="44.65039" lon="3.53688">
        <ele>1509.89</ele>
        <time>2025-07-13T10:24:25Z</time>
      </trkpt>
      <trkpt lat="44.6505" lon="3.53695">
        <ele>1507.97</ele>
        <time>2025-07-13T10:24:39Z</time>
      </trkpt>
      <trkpt lat="44.65077" lon="3.53712">
        <ele>1504.12</ele>
        <time>2025-07-13T10:25:01Z</time>
      </trkpt>
      <trkpt lat="44.65104" lon="3.53727">
        <ele>1500.27</ele>
        <time>2025-07-13T10:25:22Z</time>
      </trkpt>
      <trkpt lat="44.65128" lon="3.53736">
        <ele>1497.87</ele>
        <time>2025-07-13T10:25:40Z</time>
      </trkpt>
      <trkpt lat="44.65152" lon="3.53745">
        <ele>1498.83</ele>
        <time>2025-07-13T10:25:58Z</time>
      </trkpt>
      <trkpt lat="44.65181" lon="3.53754">
        <ele>1500.27</ele>
        <time>2025-07-13T10:26:19Z</time>
      </trkpt>
      <trkpt lat="44.65212" lon="3.53755">
        <ele>1499.79</ele>
        <time>2025-07-13T10:26:40Z</time>
      </trkpt>
      <trkpt lat="44.6524" lon="3.53755">
        <ele>1500.27</ele>
        <time>2025-07-13T10:27:00Z</time>
      </trkpt>
      <trkpt lat="44.65262" lon="3.5376">
        <ele>1500.76</ele>
        <time>2025-07-13T10:27:18Z</time>
      </trkpt>
      <trkpt lat="44.65284" lon="3.53761">
        <ele>1502.2</ele>
        <time>2025-07-13T10:27:35Z</time>
      </trkpt>
      <trkpt lat="44.65306" lon="3.53761">
        <ele>1503.16</ele>
        <time>2025-07-13T10:27:53Z</time>
      </trkpt>
      <trkpt lat="44.65327" lon="3.5376">
        <ele>1506.04</ele>
        <time>2025-07-13T10:28:10Z</time>
      </trkpt>
      <trkpt lat="44.65352" lon="3.53766">
        <ele>1510.85</ele>
        <time>2025-07-13T10:28:27Z</time>
      </trkpt>
      <trkpt lat="44.65371" lon="3.53779">
        <ele>1512.77</ele>
        <time>2025-07-13T10:28:44Z</time>
      </trkpt>
      <trkpt lat="44.65385" lon="3.53794">
        <ele>1513.73</ele>
        <time>2025-07-13T10:28:58Z</time>
      </trkpt>
      <trkpt lat="44.65402" lon="3.53815">
        <ele>1514.21</ele>
        <time>2025-07-13T10:29:15Z</time>
      </trkpt>
      <trkpt lat="44.65419" lon="3.53834">
        <ele>1514.21</ele>
        <time>2025-07-13T10:29:31Z</time>
      </trkpt>
      <trkpt lat="44.65436" lon="3.53854">
        <ele>1512.77</ele>
        <time>2025-07-13T10:29:46Z</time>
      </trkpt>
      <trkpt lat="44.6546" lon="3.53876">
        <ele>1511.33</ele>
        <time>2025-07-13T10:30:06Z</time>
      </trkpt>
      <trkpt lat="44.65481" lon="3.53894">
        <ele>1509.41</ele>
        <time>2025-07-13T10:30:23Z</time>
      </trkpt>
      <trkpt lat="44.65502" lon="3.53911">
        <ele>1510.85</ele>
        <time>2025-07-13T10:30:40Z</time>
      </trkpt>
      <trkpt lat="44.65519" lon="3.53925">
        <ele>1510.85</ele>
        <time>2025-07-13T10:30:55Z</time>
      </trkpt>
      <trkpt lat="44.65538" lon="3.53939">
        <ele>1512.77</ele>
        <time>2025-07-13T10:31:11Z</time>
      </trkpt>
      <trkpt lat="44.65556" lon="3.53949">
        <ele>1513.73</ele>
        <time>2025-07-13T10:31:26Z</time>
      </trkpt>
      <trkpt lat="44.65578" lon="3.5396">
        <ele>1516.14</ele>
        <time>2025-07-13T10:31:43Z</time>
      </trkpt>
      <trkpt lat="44.65598" lon="3.53966">
        <ele>1517.1</ele>
        <time>2025-07-13T10:31:59Z</time>
      </trkpt>
      <trkpt lat="44.6562" lon="3.53966">
        <ele>1518.06</ele>
        <time>2025-07-13T10:32:15Z</time>
      </trkpt>
      <trkpt lat="44.65641" lon="3.53967">
        <ele>1518.54</ele>
        <time>2025-07-13T10:32:31Z</time>
      </trkpt>
      <trkpt lat="44.65665" lon="3.53968">
        <ele>1519.02</ele>
        <time>2025-07-13T10:32:49Z</time>
      </trkpt>
      <trkpt lat="44.65691" lon="3.53968">
        <ele>1518.54</ele>
        <time>2025-07-13T10:33:07Z</time>
      </trkpt>
      <trkpt lat="44.65719" lon="3.53964">
        <ele>1518.06</ele>
        <time>2025-07-13T10:33:26Z</time>
      </trkpt>
      <trkpt lat="44.65741" lon="3.53961">
        <ele>1517.58</ele>
        <time>2025-07-13T10:33:42Z</time>
      </trkpt>
      <trkpt lat="44.65765" lon="3.53956">
        <ele>1517.58</ele>
        <time>2025-07-13T10:33:58Z</time>
      </trkpt>
      <trkpt lat="44.65789" lon="3.53952">
        <ele>1517.58</ele>
        <time>2025-07-13T10:34:15Z</time>
      </trkpt>
      <trkpt lat="44.65815" lon="3.53947">
        <ele>1518.06</ele>
        <time>2025-07-13T10:34:34Z</time>
      </trkpt>
      <trkpt lat="44.65837" lon="3.53941">
        <ele>1518.06</ele>
        <time>2025-07-13T10:34:51Z</time>
      </trkpt>
      <trkpt lat="44.65856" lon="3.53938">
        <ele>1518.54</ele>
        <time>2025-07-13T10:35:04Z</time>
      </trkpt>
      <trkpt lat="44.65877" lon="3.53938">
        <ele>1519.5</ele>
        <time>2025-07-13T10:35:19Z</time>
      </trkpt>
      <trkpt lat="44.659" lon="3.53934">
        <ele>1520.46</ele>
        <time>2025-07-13T10:35:36Z</time>
      </trkpt>
      <trkpt lat="44.65928" lon="3.53934">
        <ele>1519.98</ele>
        <time>2025-07-13T10:35:56Z</time>
      </trkpt>
      <trkpt lat="44.65931" lon="3.53934">
        <ele>1519.5</ele>
        <time>2025-07-13T10:36:00Z</time>
      </trkpt>
      <trkpt lat="44.65936" lon="3.53936">
        <ele>1519.02</ele>
        <time>2025-07-13T10:36:08Z</time>
      </trkpt>
      <trkpt lat="44.65936" lon="3.53939">
        <ele>1518.54</ele>
        <time>2025-07-13T10:36:09Z</time>
      </trkpt>
      <trkpt lat="44.65936" lon="3.53941">
        <ele>1518.54</ele>
        <time>2025-07-13T10:36:10Z</time>
      </trkpt>
      <trkpt lat="44.65935" lon="3.53943">
        <ele>1518.06</ele>
        <time>2025-07-13T10:36:11Z</time>
      </trkpt>
      <trkpt lat="44.65935" lon="3.53944">
        <ele>1518.06</ele>
        <time>2025-07-13T10:36:12Z</time>
      </trkpt>
      <trkpt lat="44.65919" lon="3.53968">
        <ele>1517.1</ele>
        <time>2025-07-13T10:36:28Z</time>
      </trkpt>
      <trkpt lat="44.65904" lon="3.53994">
        <ele>1519.02</ele>
        <time>2025-07-13T10:36:43Z</time>
      </trkpt>
      <trkpt lat="44.65884" lon="3.54021">
        <ele>1521.42</ele>
        <time>2025-07-13T10:37:02Z</time>
      </trkpt>
      <trkpt lat="44.65859" lon="3.54044">
        <ele>1523.35</ele>
        <time>2025-07-13T10:37:23Z</time>
      </trkpt>
      <trkpt lat="44.65832" lon="3.54061">
        <ele>1525.27</ele>
        <time>2025-07-13T10:37:42Z</time>
      </trkpt>
      <trkpt lat="44.65822" lon="3.54087">
        <ele>1528.15</ele>
        <time>2025-07-13T10:37:59Z</time>
      </trkpt>
      <trkpt lat="44.65817" lon="3.54116">
        <ele>1530.56</ele>
        <time>2025-07-13T10:38:16Z</time>
      </trkpt>
      <trkpt lat="44.65819" lon="3.54142">
        <ele>1534.4</ele>
        <time>2025-07-13T10:38:31Z</time>
      </trkpt>
      <trkpt lat="44.6582" lon="3.5417">
        <ele>1536.32</ele>
        <time>2025-07-13T10:38:47Z</time>
      </trkpt>
      <trkpt lat="44.65818" lon="3.54187">
        <ele>1537.29</ele>
        <time>2025-07-13T10:38:58Z</time>
      </trkpt>
      <trkpt lat="44.65819" lon="3.54188">
        <ele>1537.29</ele>
        <time>2025-07-13T10:38:59Z</time>
      </trkpt>
      <trkpt lat="44.65819" lon="3.54189">
        <ele>1537.29</ele>
        <time>2025-07-13T10:39:00Z</time>
      </trkpt>
      <trkpt lat="44.65819" lon="3.54214">
        <ele>1536.8</ele>
        <time>2025-07-13T10:39:17Z</time>
      </trkpt>
      <trkpt lat="44.6582" lon="3.54214">
        <ele>1536.8</ele>
        <time>2025-07-13T10:39:41Z</time>
      </trkpt>
      <trkpt lat="44.65821" lon="3.54219">
        <ele>1536.8</ele>
        <time>2025-07-13T10:39:46Z</time>
      </trkpt>
      <trkpt lat="44.65824" lon="3.54227">
        <ele>1535.84</ele>
        <time>2025-07-13T10:40:01Z</time>
      </trkpt>
      <trkpt lat="44.65832" lon="3.54248">
        <ele>1534.4</ele>
        <time>2025-07-13T10:40:16Z</time>
      </trkpt>
      <trkpt lat="44.6583" lon="3.54273">
        <ele>1533.92</ele>
        <time>2025-07-13T10:40:31Z</time>
      </trkpt>
      <trkpt lat="44.6583" lon="3.54284">
        <ele>1533.92</ele>
        <time>2025-07-13T10:40:41Z</time>
      </trkpt>
      <trkpt lat="44.6582" lon="3.54315">
        <ele>1535.36</ele>
        <time>2025-07-13T10:40:59Z</time>
      </trkpt>
      <trkpt lat="44.65804" lon="3.54336">
        <ele>1537.29</ele>
        <time>2025-07-13T10:41:16Z</time>
      </trkpt>
      <trkpt lat="44.65782" lon="3.54356">
        <ele>1539.69</ele>
        <time>2025-07-13T10:41:34Z</time>
      </trkpt>
      <trkpt lat="44.65773" lon="3.54364">
        <ele>1540.17</ele>
        <time>2025-07-13T10:41:44Z</time>
      </trkpt>
      <trkpt lat="44.65771" lon="3.54365">
        <ele>1540.17</ele>
        <time>2025-07-13T10:41:45Z</time>
      </trkpt>
      <trkpt lat="44.65751" lon="3.54371">
        <ele>1542.57</ele>
        <time>2025-07-13T10:42:02Z</time>
      </trkpt>
      <trkpt lat="44.65739" lon="3.54372">
        <ele>1544.5</ele>
        <time>2025-07-13T10:42:18Z</time>
      </trkpt>
      <trkpt lat="44.65739" lon="3.54371">
        <ele>1544.98</ele>
        <time>2025-07-13T10:42:28Z</time>
      </trkpt>
      <trkpt lat="44.65739" lon="3.5437">
        <ele>1544.98</ele>
        <time>2025-07-13T10:42:29Z</time>
      </trkpt>
      <trkpt lat="44.65737" lon="3.5437">
        <ele>1544.98</ele>
        <time>2025-07-13T10:42:30Z</time>
      </trkpt>
      <trkpt lat="44.65717" lon="3.54367">
        <ele>1546.9</ele>
        <time>2025-07-13T10:42:47Z</time>
      </trkpt>
      <trkpt lat="44.65696" lon="3.54369">
        <ele>1548.34</ele>
        <time>2025-07-13T10:43:04Z</time>
      </trkpt>
      <trkpt lat="44.65675" lon="3.5437">
        <ele>1549.78</ele>
        <time>2025-07-13T10:43:20Z</time>
      </trkpt>
      <trkpt lat="44.65669" lon="3.54369">
        <ele>1549.78</ele>
        <time>2025-07-13T10:43:35Z</time>
      </trkpt>
      <trkpt lat="44.65668" lon="3.54368">
        <ele>1549.78</ele>
        <time>2025-07-13T10:43:50Z</time>
      </trkpt>
      <trkpt lat="44.6567" lon="3.54368">
        <ele>1549.3</ele>
        <time>2025-07-13T10:44:01Z</time>
      </trkpt>
      <trkpt lat="44.65682" lon="3.54372">
        <ele>1549.78</ele>
        <time>2025-07-13T10:44:13Z</time>
      </trkpt>
      <trkpt lat="44.65683" lon="3.54372">
        <ele>1549.78</ele>
        <time>2025-07-13T10:44:14Z</time>
      </trkpt>
      <trkpt lat="44.65684" lon="3.54373">
        <ele>1549.78</ele>
        <time>2025-07-13T10:44:15Z</time>
      </trkpt>
      <trkpt lat="44.65685" lon="3.54374">
        <ele>1549.3</ele>
        <time>2025-07-13T10:44:16Z</time>
      </trkpt>
      <trkpt lat="44.65686" lon="3.54375">
        <ele>1549.3</ele>
        <time>2025-07-13T10:44:17Z</time>
      </trkpt>
      <trkpt lat="44.65687" lon="3.54379">
        <ele>1549.3</ele>
        <time>2025-07-13T10:44:19Z</time>
      </trkpt>
      <trkpt lat="44.6569" lon="3.54384">
        <ele>1547.86</ele>
        <time>2025-07-13T10:44:32Z</time>
      </trkpt>
      <trkpt lat="44.6569" lon="3.54386">
        <ele>1547.86</ele>
        <time>2025-07-13T10:45:00Z</time>
      </trkpt>
      <trkpt lat="44.65691" lon="3.54385">
        <ele>1547.86</ele>
        <time>2025-07-13T10:45:27Z</time>
      </trkpt>
      <trkpt lat="44.6569" lon="3.54384">
        <ele>1549.78</ele>
        <time>2025-07-13T10:45:50Z</time>
      </trkpt>
      <trkpt lat="44.6569" lon="3.54385">
        <ele>1550.26</ele>
        <time>2025-07-13T10:46:25Z</time>
      </trkpt>
      <trkpt lat="44.65689" lon="3.54385">
        <ele>1549.3</ele>
        <time>2025-07-13T10:46:43Z</time>
      </trkpt>
      <trkpt lat="44.65689" lon="3.54385">
        <ele>1546.9</ele>
        <time>2025-07-13T10:47:03Z</time>
      </trkpt>
      <trkpt lat="44.65688" lon="3.54384">
        <ele>1546.42</ele>
        <time>2025-07-13T10:47:18Z</time>
      </trkpt>
      <trkpt lat="44.65688" lon="3.54382">
        <ele>1545.94</ele>
        <time>2025-07-13T10:47:34Z</time>
      </trkpt>
      <trkpt lat="44.65688" lon="3.54381">
        <ele>1546.42</ele>
        <time>2025-07-13T10:47:53Z</time>
      </trkpt>
      <trkpt lat="44.65689" lon="3.54379">
        <ele>1546.42</ele>
        <time>2025-07-13T10:48:17Z</time>
      </trkpt>
      <trkpt lat="44.65688" lon="3.54381">
        <ele>1545.46</ele>
        <time>2025-07-13T10:48:34Z</time>
      </trkpt>
      <trkpt lat="44.6569" lon="3.54378">
        <ele>1544.98</ele>
        <time>2025-07-13T10:48:52Z</time>
      </trkpt>
      <trkpt lat="44.6569" lon="3.5438">
        <ele>1544.5</ele>
        <time>2025-07-13T10:49:06Z</time>
      </trkpt>
      <trkpt lat="44.65688" lon="3.54379">
        <ele>1544.5</ele>
        <time>2025-07-13T10:49:32Z</time>
      </trkpt>
      <trkpt lat="44.65692" lon="3.5438">
        <ele>1544.5</ele>
        <time>2025-07-13T10:49:46Z</time>
      </trkpt>
      <trkpt lat="44.65699" lon="3.54396">
        <ele>1544.98</ele>
        <time>2025-07-13T10:50:00Z</time>
      </trkpt>
      <trkpt lat="44.65701" lon="3.54402">
        <ele>1544.5</ele>
        <time>2025-07-13T10:50:05Z</time>
      </trkpt>
      <trkpt lat="44.65707" lon="3.5442">
        <ele>1544.5</ele>
        <time>2025-07-13T10:50:20Z</time>
      </trkpt>
      <trkpt lat="44.65718" lon="3.54433">
        <ele>1542.57</ele>
        <time>2025-07-13T10:50:38Z</time>
      </trkpt>
      <trkpt lat="44.6572" lon="3.54439">
        <ele>1542.57</ele>
        <time>2025-07-13T10:50:52Z</time>
      </trkpt>
      <trkpt lat="44.65721" lon="3.54439">
        <ele>1542.09</ele>
        <time>2025-07-13T10:51:12Z</time>
      </trkpt>
      <trkpt lat="44.65723" lon="3.54447">
        <ele>1541.13</ele>
        <time>2025-07-13T10:51:28Z</time>
      </trkpt>
      <trkpt lat="44.65725" lon="3.54456">
        <ele>1541.13</ele>
        <time>2025-07-13T10:51:47Z</time>
      </trkpt>
      <trkpt lat="44.65734" lon="3.54478">
        <ele>1541.13</ele>
        <time>2025-07-13T10:52:06Z</time>
      </trkpt>
      <trkpt lat="44.65736" lon="3.54482">
        <ele>1540.65</ele>
        <time>2025-07-13T10:52:10Z</time>
      </trkpt>
      <trkpt lat="44.6574" lon="3.5449">
        <ele>1539.69</ele>
        <time>2025-07-13T10:52:27Z</time>
      </trkpt>
      <trkpt lat="44.65745" lon="3.54503">
        <ele>1538.73</ele>
        <time>2025-07-13T10:52:43Z</time>
      </trkpt>
      <trkpt lat="44.65747" lon="3.54509">
        <ele>1539.21</ele>
        <time>2025-07-13T10:52:49Z</time>
      </trkpt>
      <trkpt lat="44.65751" lon="3.54523">
        <ele>1538.25</ele>
        <time>2025-07-13T10:53:05Z</time>
      </trkpt>
      <trkpt lat="44.65761" lon="3.5454">
        <ele>1537.29</ele>
        <time>2025-07-13T10:53:21Z</time>
      </trkpt>
      <trkpt lat="44.65762" lon="3.54547">
        <ele>1537.29</ele>
        <time>2025-07-13T10:53:37Z</time>
      </trkpt>
      <trkpt lat="44.65772" lon="3.54569">
        <ele>1535.36</ele>
        <time>2025-07-13T10:53:56Z</time>
      </trkpt>
      <trkpt lat="44.65779" lon="3.54584">
        <ele>1534.88</ele>
        <time>2025-07-13T10:54:13Z</time>
      </trkpt>
      <trkpt lat="44.65781" lon="3.54587">
        <ele>1532</ele>
        <time>2025-07-13T10:54:29Z</time>
      </trkpt>
      <trkpt lat="44.65785" lon="3.54597">
        <ele>1532</ele>
        <time>2025-07-13T10:54:45Z</time>
      </trkpt>
      <trkpt lat="44.65786" lon="3.54599">
        <ele>1531.52</ele>
        <time>2025-07-13T10:54:48Z</time>
      </trkpt>
      <trkpt lat="44.65792" lon="3.54621">
        <ele>1530.08</ele>
        <time>2025-07-13T10:55:06Z</time>
      </trkpt>
      <trkpt lat="44.65797" lon="3.54634">
        <ele>1528.63</ele>
        <time>2025-07-13T10:55:20Z</time>
      </trkpt>
      <trkpt lat="44.65806" lon="3.54652">
        <ele>1528.15</ele>
        <time>2025-07-13T10:55:38Z</time>
      </trkpt>
      <trkpt lat="44.65813" lon="3.54664">
        <ele>1525.27</ele>
        <time>2025-07-13T10:55:55Z</time>
      </trkpt>
      <trkpt lat="44.65813" lon="3.54666">
        <ele>1524.31</ele>
        <time>2025-07-13T10:56:10Z</time>
      </trkpt>
      <trkpt lat="44.65813" lon="3.54666">
        <ele>1524.79</ele>
        <time>2025-07-13T10:56:34Z</time>
      </trkpt>
      <trkpt lat="44.65814" lon="3.54665">
        <ele>1523.83</ele>
        <time>2025-07-13T10:56:53Z</time>
      </trkpt>
      <trkpt lat="44.65815" lon="3.54666">
        <ele>1525.27</ele>
        <time>2025-07-13T10:57:24Z</time>
      </trkpt>
      <trkpt lat="44.65817" lon="3.54668">
        <ele>1524.79</ele>
        <time>2025-07-13T10:57:42Z</time>
      </trkpt>
      <trkpt lat="44.65817" lon="3.54669">
        <ele>1524.79</ele>
        <time>2025-07-13T10:58:00Z</time>
      </trkpt>
      <trkpt lat="44.65816" lon="3.54671">
        <ele>1524.31</ele>
        <time>2025-07-13T10:58:23Z</time>
      </trkpt>
      <trkpt lat="44.65815" lon="3.54672">
        <ele>1521.9</ele>
        <time>2025-07-13T10:58:45Z</time>
      </trkpt>
      <trkpt lat="44.65816" lon="3.54672">
        <ele>1521.9</ele>
        <time>2025-07-13T10:59:01Z</time>
      </trkpt>
      <trkpt lat="44.65816" lon="3.54671">
        <ele>1522.39</ele>
        <time>2025-07-13T10:59:20Z</time>
      </trkpt>
      <trkpt lat="44.65817" lon="3.54671">
        <ele>1522.87</ele>
        <time>2025-07-13T10:59:34Z</time>
      </trkpt>
      <trkpt lat="44.65815" lon="3.5467">
        <ele>1523.35</ele>
        <time>2025-07-13T10:59:48Z</time>
      </trkpt>
      <trkpt lat="44.65815" lon="3.54672">
        <ele>1523.83</ele>
        <time>2025-07-13T11:00:06Z</time>
      </trkpt>
      <trkpt lat="44.65817" lon="3.54673">
        <ele>1524.31</ele>
        <time>2025-07-13T11:00:26Z</time>
      </trkpt>
      <trkpt lat="44.65816" lon="3.54671">
        <ele>1524.79</ele>
        <time>2025-07-13T11:00:35Z</time>
      </trkpt>
      <trkpt lat="44.65816" lon="3.5467">
        <ele>1525.27</ele>
        <time>2025-07-13T11:00:57Z</time>
      </trkpt>
      <trkpt lat="44.65816" lon="3.54674">
        <ele>1525.75</ele>
        <time>2025-07-13T11:01:13Z</time>
      </trkpt>
      <trkpt lat="44.65817" lon="3.54673">
        <ele>1525.75</ele>
        <time>2025-07-13T11:01:29Z</time>
      </trkpt>
      <trkpt lat="44.65816" lon="3.54671">
        <ele>1525.75</ele>
        <time>2025-07-13T11:01:44Z</time>
      </trkpt>
      <trkpt lat="44.65817" lon="3.54671">
        <ele>1525.27</ele>
        <time>2025-07-13T11:02:01Z</time>
      </trkpt>
      <trkpt lat="44.65817" lon="3.54674">
        <ele>1524.31</ele>
        <time>2025-07-13T11:02:16Z</time>
      </trkpt>
      <trkpt lat="44.65818" lon="3.54675">
        <ele>1523.83</ele>
        <time>2025-07-13T11:02:29Z</time>
      </trkpt>
      <trkpt lat="44.65818" lon="3.54676">
        <ele>1524.31</ele>
        <time>2025-07-13T11:02:52Z</time>
      </trkpt>
      <trkpt lat="44.65816" lon="3.54675">
        <ele>1523.83</ele>
        <time>2025-07-13T11:03:08Z</time>
      </trkpt>
      <trkpt lat="44.65817" lon="3.54676">
        <ele>1523.35</ele>
        <time>2025-07-13T11:03:27Z</time>
      </trkpt>
      <trkpt lat="44.65818" lon="3.54675">
        <ele>1522.39</ele>
        <time>2025-07-13T11:03:50Z</time>
      </trkpt>
      <trkpt lat="44.65818" lon="3.54675">
        <ele>1523.35</ele>
        <time>2025-07-13T11:04:16Z</time>
      </trkpt>
      <trkpt lat="44.65817" lon="3.54675">
        <ele>1523.83</ele>
        <time>2025-07-13T11:04:49Z</time>
      </trkpt>
      <trkpt lat="44.65816" lon="3.54673">
        <ele>1522.87</ele>
        <time>2025-07-13T11:05:18Z</time>
      </trkpt>
      <trkpt lat="44.65817" lon="3.54674">
        <ele>1524.31</ele>
        <time>2025-07-13T11:05:32Z</time>
      </trkpt>
      <trkpt lat="44.65817" lon="3.54675">
        <ele>1524.79</ele>
        <time>2025-07-13T11:05:52Z</time>
      </trkpt>
      <trkpt lat="44.65817" lon="3.54676">
        <ele>1523.83</ele>
        <time>2025-07-13T11:06:07Z</time>
      </trkpt>
      <trkpt lat="44.65818" lon="3.54677">
        <ele>1523.83</ele>
        <time>2025-07-13T11:06:41Z</time>
      </trkpt>
      <trkpt lat="44.65818" lon="3.54676">
        <ele>1523.35</ele>
        <time>2025-07-13T11:07:18Z</time>
      </trkpt>
      <trkpt lat="44.65817" lon="3.54675">
        <ele>1524.79</ele>
        <time>2025-07-13T11:07:44Z</time>
      </trkpt>
      <trkpt lat="44.65818" lon="3.54676">
        <ele>1524.79</ele>
        <time>2025-07-13T11:08:02Z</time>
      </trkpt>
      <trkpt lat="44.65819" lon="3.54678">
        <ele>1524.79</ele>
        <time>2025-07-13T11:08:29Z</time>
      </trkpt>
      <trkpt lat="44.65818" lon="3.54677">
        <ele>1522.87</ele>
        <time>2025-07-13T11:08:48Z</time>
      </trkpt>
      <trkpt lat="44.65817" lon="3.54678">
        <ele>1520.46</ele>
        <time>2025-07-13T11:09:26Z</time>
      </trkpt>
      <trkpt lat="44.65818" lon="3.54679">
        <ele>1523.83</ele>
        <time>2025-07-13T11:09:55Z</time>
      </trkpt>
      <trkpt lat="44.65818" lon="3.54679">
        <ele>1523.35</ele>
        <time>2025-07-13T11:10:33Z</time>
      </trkpt>
      <trkpt lat="44.65817" lon="3.5468">
        <ele>1522.87</ele>
        <time>2025-07-13T11:11:14Z</time>
      </trkpt>
      <trkpt lat="44.65818" lon="3.54677">
        <ele>1524.31</ele>
        <time>2025-07-13T11:11:48Z</time>
      </trkpt>
      <trkpt lat="44.65818" lon="3.54677">
        <ele>1524.31</ele>
        <time>2025-07-13T11:11:49Z</time>
      </trkpt>
      <trkpt lat="44.65736" lon="3.54465">
        <ele>1517.58</ele>
        <time>2025-07-13T13:47:51Z</time>
      </trkpt>
      <trkpt lat="44.65722" lon="3.54452">
        <ele>1534.88</ele>
        <time>2025-07-13T13:48:06Z</time>
      </trkpt>
      <trkpt lat="44.65721" lon="3.54444">
        <ele>1535.36</ele>
        <time>2025-07-13T13:48:20Z</time>
      </trkpt>
      <trkpt lat="44.65718" lon="3.54436">
        <ele>1535.36</ele>
        <time>2025-07-13T13:48:27Z</time>
      </trkpt>
      <trkpt lat="44.65714" lon="3.54434">
        <ele>1537.29</ele>
        <time>2025-07-13T13:48:41Z</time>
      </trkpt>
      <trkpt lat="44.65713" lon="3.54431">
        <ele>1538.25</ele>
        <time>2025-07-13T13:48:56Z</time>
      </trkpt>
      <trkpt lat="44.65712" lon="3.54429">
        <ele>1540.65</ele>
        <time>2025-07-13T13:49:18Z</time>
      </trkpt>
      <trkpt lat="44.65712" lon="3.54428">
        <ele>1543.05</ele>
        <time>2025-07-13T13:49:46Z</time>
      </trkpt>
      <trkpt lat="44.65713" lon="3.54423">
        <ele>1544.01</ele>
        <time>2025-07-13T13:50:08Z</time>
      </trkpt>
      <trkpt lat="44.65704" lon="3.54403">
        <ele>1544.5</ele>
        <time>2025-07-13T13:50:24Z</time>
      </trkpt>
      <trkpt lat="44.65697" lon="3.54387">
        <ele>1545.46</ele>
        <time>2025-07-13T13:50:36Z</time>
      </trkpt>
      <trkpt lat="44.65695" lon="3.54382">
        <ele>1546.42</ele>
        <time>2025-07-13T13:50:40Z</time>
      </trkpt>
      <trkpt lat="44.65696" lon="3.54374">
        <ele>1546.9</ele>
        <time>2025-07-13T13:50:45Z</time>
      </trkpt>
      <trkpt lat="44.65699" lon="3.54371">
        <ele>1547.86</ele>
        <time>2025-07-13T13:50:49Z</time>
      </trkpt>
      <trkpt lat="44.65722" lon="3.54367">
        <ele>1547.38</ele>
        <time>2025-07-13T13:51:07Z</time>
      </trkpt>
      <trkpt lat="44.65747" lon="3.54368">
        <ele>1546.42</ele>
        <time>2025-07-13T13:51:26Z</time>
      </trkpt>
      <trkpt lat="44.65767" lon="3.54363">
        <ele>1545.94</ele>
        <time>2025-07-13T13:51:44Z</time>
      </trkpt>
      <trkpt lat="44.65785" lon="3.54352">
        <ele>1544.01</ele>
        <time>2025-07-13T13:52:00Z</time>
      </trkpt>
      <trkpt lat="44.65803" lon="3.54337">
        <ele>1541.13</ele>
        <time>2025-07-13T13:52:17Z</time>
      </trkpt>
      <trkpt lat="44.6582" lon="3.54314">
        <ele>1539.21</ele>
        <time>2025-07-13T13:52:36Z</time>
      </trkpt>
      <trkpt lat="44.65829" lon="3.54286">
        <ele>1537.77</ele>
        <time>2025-07-13T13:52:53Z</time>
      </trkpt>
      <trkpt lat="44.65833" lon="3.54252">
        <ele>1536.8</ele>
        <time>2025-07-13T13:53:11Z</time>
      </trkpt>
      <trkpt lat="44.65833" lon="3.54225">
        <ele>1537.29</ele>
        <time>2025-07-13T13:53:26Z</time>
      </trkpt>
      <trkpt lat="44.65828" lon="3.54196">
        <ele>1536.8</ele>
        <time>2025-07-13T13:53:42Z</time>
      </trkpt>
      <trkpt lat="44.65821" lon="3.54171">
        <ele>1536.8</ele>
        <time>2025-07-13T13:53:57Z</time>
      </trkpt>
      <trkpt lat="44.65816" lon="3.54141">
        <ele>1538.25</ele>
        <time>2025-07-13T13:54:14Z</time>
      </trkpt>
      <trkpt lat="44.65814" lon="3.54115">
        <ele>1536.32</ele>
        <time>2025-07-13T13:54:29Z</time>
      </trkpt>
      <trkpt lat="44.6582" lon="3.5409">
        <ele>1533.44</ele>
        <time>2025-07-13T13:54:44Z</time>
      </trkpt>
      <trkpt lat="44.65826" lon="3.5407">
        <ele>1530.56</ele>
        <time>2025-07-13T13:54:59Z</time>
      </trkpt>
      <trkpt lat="44.65828" lon="3.54068">
        <ele>1530.08</ele>
        <time>2025-07-13T13:55:01Z</time>
      </trkpt>
      <trkpt lat="44.65832" lon="3.54062">
        <ele>1529.11</ele>
        <time>2025-07-13T13:55:06Z</time>
      </trkpt>
      <trkpt lat="44.65853" lon="3.54048">
        <ele>1525.75</ele>
        <time>2025-07-13T13:55:24Z</time>
      </trkpt>
      <trkpt lat="44.65873" lon="3.54033">
        <ele>1524.79</ele>
        <time>2025-07-13T13:55:41Z</time>
      </trkpt>
      <trkpt lat="44.65892" lon="3.54011">
        <ele>1522.87</ele>
        <time>2025-07-13T13:55:59Z</time>
      </trkpt>
      <trkpt lat="44.65908" lon="3.53988">
        <ele>1520.94</ele>
        <time>2025-07-13T13:56:17Z</time>
      </trkpt>
      <trkpt lat="44.65923" lon="3.53964">
        <ele>1519.98</ele>
        <time>2025-07-13T13:56:34Z</time>
      </trkpt>
      <trkpt lat="44.65932" lon="3.53954">
        <ele>1519.98</ele>
        <time>2025-07-13T13:56:44Z</time>
      </trkpt>
      <trkpt lat="44.65944" lon="3.53938">
        <ele>1519.02</ele>
        <time>2025-07-13T13:56:58Z</time>
      </trkpt>
      <trkpt lat="44.6596" lon="3.53932">
        <ele>1518.54</ele>
        <time>2025-07-13T13:57:14Z</time>
      </trkpt>
      <trkpt lat="44.65984" lon="3.53935">
        <ele>1519.5</ele>
        <time>2025-07-13T13:57:32Z</time>
      </trkpt>
      <trkpt lat="44.66006" lon="3.53936">
        <ele>1518.06</ele>
        <time>2025-07-13T13:57:49Z</time>
      </trkpt>
      <trkpt lat="44.66028" lon="3.53939">
        <ele>1516.62</ele>
        <time>2025-07-13T13:58:06Z</time>
      </trkpt>
      <trkpt lat="44.66053" lon="3.53947">
        <ele>1516.14</ele>
        <time>2025-07-13T13:58:24Z</time>
      </trkpt>
      <trkpt lat="44.66068" lon="3.5395">
        <ele>1514.69</ele>
        <time>2025-07-13T13:58:38Z</time>
      </trkpt>
      <trkpt lat="44.66091" lon="3.53961">
        <ele>1513.25</ele>
        <time>2025-07-13T13:58:56Z</time>
      </trkpt>
      <trkpt lat="44.66113" lon="3.53966">
        <ele>1512.29</ele>
        <time>2025-07-13T13:59:12Z</time>
      </trkpt>
      <trkpt lat="44.66135" lon="3.5398">
        <ele>1508.93</ele>
        <time>2025-07-13T13:59:32Z</time>
      </trkpt>
      <trkpt lat="44.66157" lon="3.53985">
        <ele>1505.08</ele>
        <time>2025-07-13T13:59:50Z</time>
      </trkpt>
      <trkpt lat="44.66181" lon="3.53995">
        <ele>1501.72</ele>
        <time>2025-07-13T14:00:09Z</time>
      </trkpt>
      <trkpt lat="44.66198" lon="3.54006">
        <ele>1500.27</ele>
        <time>2025-07-13T14:00:26Z</time>
      </trkpt>
      <trkpt lat="44.66225" lon="3.54023">
        <ele>1497.39</ele>
        <time>2025-07-13T14:00:49Z</time>
      </trkpt>
      <trkpt lat="44.66234" lon="3.54028">
        <ele>1496.43</ele>
        <time>2025-07-13T14:00:57Z</time>
      </trkpt>
      <trkpt lat="44.6624" lon="3.54031">
        <ele>1495.47</ele>
        <time>2025-07-13T14:01:02Z</time>
      </trkpt>
      <trkpt lat="44.66266" lon="3.54048">
        <ele>1490.18</ele>
        <time>2025-07-13T14:01:23Z</time>
      </trkpt>
      <trkpt lat="44.66292" lon="3.54066">
        <ele>1486.82</ele>
        <time>2025-07-13T14:01:45Z</time>
      </trkpt>
      <trkpt lat="44.66306" lon="3.54074">
        <ele>1484.89</ele>
        <time>2025-07-13T14:01:59Z</time>
      </trkpt>
      <trkpt lat="44.66315" lon="3.54078">
        <ele>1482.97</ele>
        <time>2025-07-13T14:02:13Z</time>
      </trkpt>
      <trkpt lat="44.66328" lon="3.54089">
        <ele>1480.57</ele>
        <time>2025-07-13T14:02:28Z</time>
      </trkpt>
      <trkpt lat="44.66351" lon="3.54104">
        <ele>1476.24</ele>
        <time>2025-07-13T14:02:47Z</time>
      </trkpt>
      <trkpt lat="44.6637" lon="3.54119">
        <ele>1472.88</ele>
        <time>2025-07-13T14:03:03Z</time>
      </trkpt>
      <trkpt lat="44.6638" lon="3.54126">
        <ele>1471.44</ele>
        <time>2025-07-13T14:03:12Z</time>
      </trkpt>
      <trkpt lat="44.66402" lon="3.54148">
        <ele>1466.63</ele>
        <time>2025-07-13T14:03:32Z</time>
      </trkpt>
      <trkpt lat="44.6642" lon="3.54167">
        <ele>1462.3</ele>
        <time>2025-07-13T14:03:49Z</time>
      </trkpt>
      <trkpt lat="44.66437" lon="3.54185">
        <ele>1459.9</ele>
        <time>2025-07-13T14:04:06Z</time>
      </trkpt>
      <trkpt lat="44.6646" lon="3.54204">
        <ele>1457.5</ele>
        <time>2025-07-13T14:04:24Z</time>
      </trkpt>
      <trkpt lat="44.66485" lon="3.54224">
        <ele>1457.5</ele>
        <time>2025-07-13T14:04:45Z</time>
      </trkpt>
      <trkpt lat="44.66509" lon="3.54241">
        <ele>1457.02</ele>
        <time>2025-07-13T14:05:07Z</time>
      </trkpt>
      <trkpt lat="44.66528" lon="3.54255">
        <ele>1455.09</ele>
        <time>2025-07-13T14:05:23Z</time>
      </trkpt>
      <trkpt lat="44.66544" lon="3.54262">
        <ele>1458.94</ele>
        <time>2025-07-13T14:05:38Z</time>
      </trkpt>
      <trkpt lat="44.66564" lon="3.54275">
        <ele>1460.86</ele>
        <time>2025-07-13T14:05:54Z</time>
      </trkpt>
      <trkpt lat="44.66584" lon="3.54284">
        <ele>1459.9</ele>
        <time>2025-07-13T14:06:09Z</time>
      </trkpt>
      <trkpt lat="44.66604" lon="3.54291">
        <ele>1461.82</ele>
        <time>2025-07-13T14:06:25Z</time>
      </trkpt>
      <trkpt lat="44.66618" lon="3.54296">
        <ele>1462.3</ele>
        <time>2025-07-13T14:06:41Z</time>
      </trkpt>
      <trkpt lat="44.66634" lon="3.54305">
        <ele>1463.26</ele>
        <time>2025-07-13T14:06:54Z</time>
      </trkpt>
      <trkpt lat="44.66654" lon="3.54319">
        <ele>1462.3</ele>
        <time>2025-07-13T14:07:12Z</time>
      </trkpt>
      <trkpt lat="44.66676" lon="3.54326">
        <ele>1461.34</ele>
        <time>2025-07-13T14:07:30Z</time>
      </trkpt>
      <trkpt lat="44.66691" lon="3.54326">
        <ele>1460.86</ele>
        <time>2025-07-13T14:07:43Z</time>
      </trkpt>
      <trkpt lat="44.66718" lon="3.54318">
        <ele>1458.46</ele>
        <time>2025-07-13T14:08:02Z</time>
      </trkpt>
      <trkpt lat="44.66745" lon="3.54312">
        <ele>1454.61</ele>
        <time>2025-07-13T14:08:20Z</time>
      </trkpt>
      <trkpt lat="44.66777" lon="3.54307">
        <ele>1452.21</ele>
        <time>2025-07-13T14:08:41Z</time>
      </trkpt>
      <trkpt lat="44.66791" lon="3.543">
        <ele>1451.25</ele>
        <time>2025-07-13T14:08:54Z</time>
      </trkpt>
      <trkpt lat="44.66794" lon="3.5427">
        <ele>1452.69</ele>
        <time>2025-07-13T14:09:10Z</time>
      </trkpt>
      <trkpt lat="44.66794" lon="3.54267">
        <ele>1452.69</ele>
        <time>2025-07-13T14:09:12Z</time>
      </trkpt>
      <trkpt lat="44.66794" lon="3.5426">
        <ele>1452.69</ele>
        <time>2025-07-13T14:09:18Z</time>
      </trkpt>
      <trkpt lat="44.66791" lon="3.5426">
        <ele>1452.21</ele>
        <time>2025-07-13T14:09:33Z</time>
      </trkpt>
      <trkpt lat="44.66791" lon="3.54263">
        <ele>1451.73</ele>
        <time>2025-07-13T14:09:54Z</time>
      </trkpt>
      <trkpt lat="44.66792" lon="3.54259">
        <ele>1451.73</ele>
        <time>2025-07-13T14:10:07Z</time>
      </trkpt>
      <trkpt lat="44.66791" lon="3.54259">
        <ele>1452.21</ele>
        <time>2025-07-13T14:10:24Z</time>
      </trkpt>
      <trkpt lat="44.66793" lon="3.54261">
        <ele>1451.25</ele>
        <time>2025-07-13T14:10:42Z</time>
      </trkpt>
      <trkpt lat="44.66794" lon="3.54264">
        <ele>1452.21</ele>
        <time>2025-07-13T14:11:10Z</time>
      </trkpt>
      <trkpt lat="44.66797" lon="3.54265">
        <ele>1450.77</ele>
        <time>2025-07-13T14:11:22Z</time>
      </trkpt>
      <trkpt lat="44.66799" lon="3.54259">
        <ele>1450.29</ele>
        <time>2025-07-13T14:11:36Z</time>
      </trkpt>
      <trkpt lat="44.66798" lon="3.54259">
        <ele>1449.81</ele>
        <time>2025-07-13T14:11:57Z</time>
      </trkpt>
      <trkpt lat="44.66798" lon="3.5426">
        <ele>1449.81</ele>
        <time>2025-07-13T14:12:03Z</time>
      </trkpt>
      <trkpt lat="44.66796" lon="3.54294">
        <ele>1449.81</ele>
        <time>2025-07-13T14:12:23Z</time>
      </trkpt>
      <trkpt lat="44.66796" lon="3.54325">
        <ele>1447.88</ele>
        <time>2025-07-13T14:12:40Z</time>
      </trkpt>
      <trkpt lat="44.66795" lon="3.54356">
        <ele>1448.36</ele>
        <time>2025-07-13T14:12:55Z</time>
      </trkpt>
      <trkpt lat="44.66792" lon="3.54389">
        <ele>1448.84</ele>
        <time>2025-07-13T14:13:10Z</time>
      </trkpt>
      <trkpt lat="44.66785" lon="3.54417">
        <ele>1448.36</ele>
        <time>2025-07-13T14:13:27Z</time>
      </trkpt>
      <trkpt lat="44.66767" lon="3.54446">
        <ele>1447.88</ele>
        <time>2025-07-13T14:13:46Z</time>
      </trkpt>
      <trkpt lat="44.66743" lon="3.5446">
        <ele>1450.77</ele>
        <time>2025-07-13T14:14:04Z</time>
      </trkpt>
      <trkpt lat="44.66718" lon="3.54464">
        <ele>1450.29</ele>
        <time>2025-07-13T14:14:19Z</time>
      </trkpt>
      <trkpt lat="44.66687" lon="3.54468">
        <ele>1448.84</ele>
        <time>2025-07-13T14:14:38Z</time>
      </trkpt>
      <trkpt lat="44.66657" lon="3.54488">
        <ele>1445.96</ele>
        <time>2025-07-13T14:14:58Z</time>
      </trkpt>
      <trkpt lat="44.66658" lon="3.5452">
        <ele>1445</ele>
        <time>2025-07-13T14:15:10Z</time>
      </trkpt>
      <trkpt lat="44.6667" lon="3.54551">
        <ele>1445</ele>
        <time>2025-07-13T14:15:27Z</time>
      </trkpt>
      <trkpt lat="44.66681" lon="3.54576">
        <ele>1445.96</ele>
        <time>2025-07-13T14:15:42Z</time>
      </trkpt>
      <trkpt lat="44.66697" lon="3.54607">
        <ele>1446.44</ele>
        <time>2025-07-13T14:16:01Z</time>
      </trkpt>
      <trkpt lat="44.66709" lon="3.54638">
        <ele>1446.44</ele>
        <time>2025-07-13T14:16:18Z</time>
      </trkpt>
      <trkpt lat="44.66726" lon="3.5467">
        <ele>1446.92</ele>
        <time>2025-07-13T14:16:37Z</time>
      </trkpt>
      <trkpt lat="44.66745" lon="3.54695">
        <ele>1445.96</ele>
        <time>2025-07-13T14:16:53Z</time>
      </trkpt>
      <trkpt lat="44.66751" lon="3.5471">
        <ele>1443.56</ele>
        <time>2025-07-13T14:17:01Z</time>
      </trkpt>
      <trkpt lat="44.66751" lon="3.54711">
        <ele>1443.56</ele>
        <time>2025-07-13T14:17:02Z</time>
      </trkpt>
      <trkpt lat="44.66738" lon="3.54743">
        <ele>1442.11</ele>
        <time>2025-07-13T14:17:20Z</time>
      </trkpt>
      <trkpt lat="44.66729" lon="3.54766">
        <ele>1444.52</ele>
        <time>2025-07-13T14:17:34Z</time>
      </trkpt>
      <trkpt lat="44.66728" lon="3.54768">
        <ele>1445</ele>
        <time>2025-07-13T14:17:35Z</time>
      </trkpt>
      <trkpt lat="44.66728" lon="3.5477">
        <ele>1445</ele>
        <time>2025-07-13T14:17:36Z</time>
      </trkpt>
      <trkpt lat="44.66727" lon="3.54771">
        <ele>1445</ele>
        <time>2025-07-13T14:17:37Z</time>
      </trkpt>
      <trkpt lat="44.66726" lon="3.54772">
        <ele>1445.48</ele>
        <time>2025-07-13T14:17:38Z</time>
      </trkpt>
      <trkpt lat="44.66726" lon="3.54774">
        <ele>1445.48</ele>
        <time>2025-07-13T14:17:39Z</time>
      </trkpt>
      <trkpt lat="44.66725" lon="3.54775">
        <ele>1445.48</ele>
        <time>2025-07-13T14:17:40Z</time>
      </trkpt>
      <trkpt lat="44.66706" lon="3.54802">
        <ele>1449.32</ele>
        <time>2025-07-13T14:17:56Z</time>
      </trkpt>
      <trkpt lat="44.667" lon="3.54805">
        <ele>1450.29</ele>
        <time>2025-07-13T14:18:01Z</time>
      </trkpt>
      <trkpt lat="44.66682" lon="3.54806">
        <ele>1452.21</ele>
        <time>2025-07-13T14:18:18Z</time>
      </trkpt>
      <trkpt lat="44.66658" lon="3.54804">
        <ele>1458.94</ele>
        <time>2025-07-13T14:18:37Z</time>
      </trkpt>
      <trkpt lat="44.66645" lon="3.54787">
        <ele>1462.78</ele>
        <time>2025-07-13T14:18:57Z</time>
      </trkpt>
      <trkpt lat="44.66636" lon="3.54784">
        <ele>1464.23</ele>
        <time>2025-07-13T14:19:01Z</time>
      </trkpt>
      <trkpt lat="44.66633" lon="3.54783">
        <ele>1464.23</ele>
        <time>2025-07-13T14:19:02Z</time>
      </trkpt>
      <trkpt lat="44.66617" lon="3.54777">
        <ele>1467.11</ele>
        <time>2025-07-13T14:19:16Z</time>
      </trkpt>
      <trkpt lat="44.66599" lon="3.54792">
        <ele>1476.72</ele>
        <time>2025-07-13T14:19:30Z</time>
      </trkpt>
      <trkpt lat="44.66588" lon="3.54811">
        <ele>1482.49</ele>
        <time>2025-07-13T14:19:47Z</time>
      </trkpt>
      <trkpt lat="44.66578" lon="3.54837">
        <ele>1484.41</ele>
        <time>2025-07-13T14:20:01Z</time>
      </trkpt>
      <trkpt lat="44.66567" lon="3.54868">
        <ele>1484.89</ele>
        <time>2025-07-13T14:20:20Z</time>
      </trkpt>
      <trkpt lat="44.66553" lon="3.54903">
        <ele>1486.34</ele>
        <time>2025-07-13T14:20:39Z</time>
      </trkpt>
      <trkpt lat="44.66544" lon="3.54929">
        <ele>1490.18</ele>
        <time>2025-07-13T14:20:53Z</time>
      </trkpt>
      <trkpt lat="44.66542" lon="3.54931">
        <ele>1491.14</ele>
        <time>2025-07-13T14:20:55Z</time>
      </trkpt>
      <trkpt lat="44.66541" lon="3.54934">
        <ele>1491.14</ele>
        <time>2025-07-13T14:20:56Z</time>
      </trkpt>
      <trkpt lat="44.66528" lon="3.5496">
        <ele>1493.55</ele>
        <time>2025-07-13T14:21:13Z</time>
      </trkpt>
      <trkpt lat="44.66511" lon="3.54985">
        <ele>1498.83</ele>
        <time>2025-07-13T14:21:31Z</time>
      </trkpt>
      <trkpt lat="44.66483" lon="3.55012">
        <ele>1495.47</ele>
        <time>2025-07-13T14:21:49Z</time>
      </trkpt>
      <trkpt lat="44.66465" lon="3.55038">
        <ele>1494.99</ele>
        <time>2025-07-13T14:22:06Z</time>
      </trkpt>
      <trkpt lat="44.66461" lon="3.55043">
        <ele>1495.47</ele>
        <time>2025-07-13T14:22:09Z</time>
      </trkpt>
      <trkpt lat="44.66446" lon="3.5507">
        <ele>1494.03</ele>
        <time>2025-07-13T14:22:24Z</time>
      </trkpt>
      <trkpt lat="44.66426" lon="3.551">
        <ele>1495.95</ele>
        <time>2025-07-13T14:22:45Z</time>
      </trkpt>
      <trkpt lat="44.66408" lon="3.55125">
        <ele>1494.51</ele>
        <time>2025-07-13T14:23:03Z</time>
      </trkpt>
      <trkpt lat="44.66408" lon="3.55127">
        <ele>1494.51</ele>
        <time>2025-07-13T14:23:04Z</time>
      </trkpt>
      <trkpt lat="44.66405" lon="3.55138">
        <ele>1494.03</ele>
        <time>2025-07-13T14:23:11Z</time>
      </trkpt>
      <trkpt lat="44.66404" lon="3.5514">
        <ele>1494.03</ele>
        <time>2025-07-13T14:23:12Z</time>
      </trkpt>
      <trkpt lat="44.66402" lon="3.55142">
        <ele>1493.55</ele>
        <time>2025-07-13T14:23:13Z</time>
      </trkpt>
      <trkpt lat="44.664" lon="3.55146">
        <ele>1493.06</ele>
        <time>2025-07-13T14:23:16Z</time>
      </trkpt>
      <trkpt lat="44.66399" lon="3.55148">
        <ele>1493.06</ele>
        <time>2025-07-13T14:23:17Z</time>
      </trkpt>
      <trkpt lat="44.66389" lon="3.55164">
        <ele>1490.18</ele>
        <time>2025-07-13T14:23:27Z</time>
      </trkpt>
      <trkpt lat="44.66388" lon="3.55166">
        <ele>1489.7</ele>
        <time>2025-07-13T14:23:28Z</time>
      </trkpt>
      <trkpt lat="44.66384" lon="3.55174">
        <ele>1486.34</ele>
        <time>2025-07-13T14:23:33Z</time>
      </trkpt>
      <trkpt lat="44.66383" lon="3.55202">
        <ele>1479.13</ele>
        <time>2025-07-13T14:23:48Z</time>
      </trkpt>
      <trkpt lat="44.66382" lon="3.55214">
        <ele>1479.13</ele>
        <time>2025-07-13T14:23:53Z</time>
      </trkpt>
      <trkpt lat="44.66382" lon="3.55217">
        <ele>1479.13</ele>
        <time>2025-07-13T14:23:54Z</time>
      </trkpt>
      <trkpt lat="44.66381" lon="3.55228">
        <ele>1480.09</ele>
        <time>2025-07-13T14:23:59Z</time>
      </trkpt>
      <trkpt lat="44.66381" lon="3.5523">
        <ele>1480.57</ele>
        <time>2025-07-13T14:24:00Z</time>
      </trkpt>
      <trkpt lat="44.66383" lon="3.55252">
        <ele>1481.53</ele>
        <time>2025-07-13T14:24:11Z</time>
      </trkpt>
      <trkpt lat="44.66383" lon="3.55254">
        <ele>1482.01</ele>
        <time>2025-07-13T14:24:12Z</time>
      </trkpt>
      <trkpt lat="44.66383" lon="3.55256">
        <ele>1482.01</ele>
        <time>2025-07-13T14:24:13Z</time>
      </trkpt>
      <trkpt lat="44.66383" lon="3.55258">
        <ele>1482.01</ele>
        <time>2025-07-13T14:24:14Z</time>
      </trkpt>
      <trkpt lat="44.66383" lon="3.5526">
        <ele>1482.49</ele>
        <time>2025-07-13T14:24:15Z</time>
      </trkpt>
      <trkpt lat="44.66384" lon="3.55262">
        <ele>1482.49</ele>
        <time>2025-07-13T14:24:16Z</time>
      </trkpt>
      <trkpt lat="44.66384" lon="3.55264">
        <ele>1482.49</ele>
        <time>2025-07-13T14:24:17Z</time>
      </trkpt>
      <trkpt lat="44.66389" lon="3.55295">
        <ele>1485.85</ele>
        <time>2025-07-13T14:24:31Z</time>
      </trkpt>
      <trkpt lat="44.66389" lon="3.55304">
        <ele>1487.3</ele>
        <time>2025-07-13T14:24:35Z</time>
      </trkpt>
      <trkpt lat="44.6639" lon="3.55306">
        <ele>1486.82</ele>
        <time>2025-07-13T14:24:36Z</time>
      </trkpt>
      <trkpt lat="44.66389" lon="3.55308">
        <ele>1486.82</ele>
        <time>2025-07-13T14:24:37Z</time>
      </trkpt>
      <trkpt lat="44.66389" lon="3.5531">
        <ele>1486.82</ele>
        <time>2025-07-13T14:24:38Z</time>
      </trkpt>
      <trkpt lat="44.66389" lon="3.55312">
        <ele>1486.82</ele>
        <time>2025-07-13T14:24:39Z</time>
      </trkpt>
      <trkpt lat="44.66389" lon="3.55314">
        <ele>1486.82</ele>
        <time>2025-07-13T14:24:40Z</time>
      </trkpt>
      <trkpt lat="44.66391" lon="3.5535">
        <ele>1487.78</ele>
        <time>2025-07-13T14:24:55Z</time>
      </trkpt>
      <trkpt lat="44.66394" lon="3.55374">
        <ele>1488.74</ele>
        <time>2025-07-13T14:25:07Z</time>
      </trkpt>
      <trkpt lat="44.66402" lon="3.55405">
        <ele>1491.62</ele>
        <time>2025-07-13T14:25:22Z</time>
      </trkpt>
      <trkpt lat="44.66409" lon="3.55427">
        <ele>1492.58</ele>
        <time>2025-07-13T14:25:33Z</time>
      </trkpt>
      <trkpt lat="44.66412" lon="3.55447">
        <ele>1492.58</ele>
        <time>2025-07-13T14:25:43Z</time>
      </trkpt>
      <trkpt lat="44.66413" lon="3.55449">
        <ele>1492.58</ele>
        <time>2025-07-13T14:25:44Z</time>
      </trkpt>
      <trkpt lat="44.66413" lon="3.55451">
        <ele>1492.58</ele>
        <time>2025-07-13T14:25:45Z</time>
      </trkpt>
      <trkpt lat="44.66413" lon="3.55453">
        <ele>1492.58</ele>
        <time>2025-07-13T14:25:46Z</time>
      </trkpt>
      <trkpt lat="44.66413" lon="3.55455">
        <ele>1492.58</ele>
        <time>2025-07-13T14:25:47Z</time>
      </trkpt>
      <trkpt lat="44.66413" lon="3.55457">
        <ele>1493.06</ele>
        <time>2025-07-13T14:25:48Z</time>
      </trkpt>
      <trkpt lat="44.66413" lon="3.5546">
        <ele>1493.06</ele>
        <time>2025-07-13T14:25:49Z</time>
      </trkpt>
      <trkpt lat="44.66414" lon="3.55462">
        <ele>1493.06</ele>
        <time>2025-07-13T14:25:50Z</time>
      </trkpt>
      <trkpt lat="44.66415" lon="3.55492">
        <ele>1494.03</ele>
        <time>2025-07-13T14:26:04Z</time>
      </trkpt>
      <trkpt lat="44.66414" lon="3.55522">
        <ele>1490.18</ele>
        <time>2025-07-13T14:26:19Z</time>
      </trkpt>
      <trkpt lat="44.66415" lon="3.5555">
        <ele>1490.66</ele>
        <time>2025-07-13T14:26:33Z</time>
      </trkpt>
      <trkpt lat="44.66416" lon="3.55566">
        <ele>1490.66</ele>
        <time>2025-07-13T14:26:41Z</time>
      </trkpt>
      <trkpt lat="44.66417" lon="3.55568">
        <ele>1490.66</ele>
        <time>2025-07-13T14:26:42Z</time>
      </trkpt>
      <trkpt lat="44.66418" lon="3.55569">
        <ele>1490.66</ele>
        <time>2025-07-13T14:26:43Z</time>
      </trkpt>
      <trkpt lat="44.6642" lon="3.55573">
        <ele>1490.18</ele>
        <time>2025-07-13T14:26:45Z</time>
      </trkpt>
      <trkpt lat="44.6642" lon="3.55575">
        <ele>1490.18</ele>
        <time>2025-07-13T14:26:46Z</time>
      </trkpt>
      <trkpt lat="44.66421" lon="3.55577">
        <ele>1490.18</ele>
        <time>2025-07-13T14:26:47Z</time>
      </trkpt>
      <trkpt lat="44.66427" lon="3.55604">
        <ele>1490.18</ele>
        <time>2025-07-13T14:27:00Z</time>
      </trkpt>
      <trkpt lat="44.66433" lon="3.55628">
        <ele>1490.66</ele>
        <time>2025-07-13T14:27:12Z</time>
      </trkpt>
      <trkpt lat="44.66434" lon="3.5563">
        <ele>1490.66</ele>
        <time>2025-07-13T14:27:13Z</time>
      </trkpt>
      <trkpt lat="44.66435" lon="3.55631">
        <ele>1490.18</ele>
        <time>2025-07-13T14:27:14Z</time>
      </trkpt>
      <trkpt lat="44.66449" lon="3.55665">
        <ele>1489.22</ele>
        <time>2025-07-13T14:27:32Z</time>
      </trkpt>
      <trkpt lat="44.66452" lon="3.55674">
        <ele>1488.26</ele>
        <time>2025-07-13T14:27:37Z</time>
      </trkpt>
      <trkpt lat="44.66452" lon="3.55676">
        <ele>1487.78</ele>
        <time>2025-07-13T14:27:38Z</time>
      </trkpt>
      <trkpt lat="44.66453" lon="3.55678">
        <ele>1487.78</ele>
        <time>2025-07-13T14:27:39Z</time>
      </trkpt>
      <trkpt lat="44.66453" lon="3.5568">
        <ele>1487.3</ele>
        <time>2025-07-13T14:27:40Z</time>
      </trkpt>
      <trkpt lat="44.66454" lon="3.55682">
        <ele>1486.82</ele>
        <time>2025-07-13T14:27:41Z</time>
      </trkpt>
      <trkpt lat="44.66454" lon="3.55684">
        <ele>1486.82</ele>
        <time>2025-07-13T14:27:42Z</time>
      </trkpt>
      <trkpt lat="44.66459" lon="3.55713">
        <ele>1482.49</ele>
        <time>2025-07-13T14:27:56Z</time>
      </trkpt>
      <trkpt lat="44.66463" lon="3.55742">
        <ele>1479.61</ele>
        <time>2025-07-13T14:28:10Z</time>
      </trkpt>
      <trkpt lat="44.66468" lon="3.5577">
        <ele>1476.72</ele>
        <time>2025-07-13T14:28:24Z</time>
      </trkpt>
      <trkpt lat="44.66469" lon="3.55803">
        <ele>1479.13</ele>
        <time>2025-07-13T14:28:41Z</time>
      </trkpt>
      <trkpt lat="44.66468" lon="3.55836">
        <ele>1480.09</ele>
        <time>2025-07-13T14:28:56Z</time>
      </trkpt>
      <trkpt lat="44.66464" lon="3.55868">
        <ele>1483.45</ele>
        <time>2025-07-13T14:29:11Z</time>
      </trkpt>
      <trkpt lat="44.66455" lon="3.55906">
        <ele>1479.61</ele>
        <time>2025-07-13T14:29:29Z</time>
      </trkpt>
      <trkpt lat="44.66453" lon="3.55928">
        <ele>1477.68</ele>
        <time>2025-07-13T14:29:40Z</time>
      </trkpt>
      <trkpt lat="44.66453" lon="3.5593">
        <ele>1477.68</ele>
        <time>2025-07-13T14:29:41Z</time>
      </trkpt>
      <trkpt lat="44.66452" lon="3.55932">
        <ele>1477.68</ele>
        <time>2025-07-13T14:29:42Z</time>
      </trkpt>
      <trkpt lat="44.66452" lon="3.55934">
        <ele>1477.2</ele>
        <time>2025-07-13T14:29:43Z</time>
      </trkpt>
      <trkpt lat="44.66451" lon="3.55936">
        <ele>1477.2</ele>
        <time>2025-07-13T14:29:44Z</time>
      </trkpt>
      <trkpt lat="44.66451" lon="3.55938">
        <ele>1477.2</ele>
        <time>2025-07-13T14:29:45Z</time>
      </trkpt>
      <trkpt lat="44.66445" lon="3.55972">
        <ele>1475.76</ele>
        <time>2025-07-13T14:30:00Z</time>
      </trkpt>
      <trkpt lat="44.66435" lon="3.56012">
        <ele>1476.24</ele>
        <time>2025-07-13T14:30:19Z</time>
      </trkpt>
      <trkpt lat="44.66424" lon="3.56046">
        <ele>1476.24</ele>
        <time>2025-07-13T14:30:36Z</time>
      </trkpt>
      <trkpt lat="44.66423" lon="3.56048">
        <ele>1475.76</ele>
        <time>2025-07-13T14:30:37Z</time>
      </trkpt>
      <trkpt lat="44.66419" lon="3.56084">
        <ele>1473.84</ele>
        <time>2025-07-13T14:30:55Z</time>
      </trkpt>
      <trkpt lat="44.66434" lon="3.5611">
        <ele>1473.36</ele>
        <time>2025-07-13T14:31:11Z</time>
      </trkpt>
      <trkpt lat="44.66451" lon="3.5612">
        <ele>1473.36</ele>
        <time>2025-07-13T14:31:25Z</time>
      </trkpt>
      <trkpt lat="44.66469" lon="3.56119">
        <ele>1476.24</ele>
        <time>2025-07-13T14:31:39Z</time>
      </trkpt>
      <trkpt lat="44.66491" lon="3.56116">
        <ele>1478.65</ele>
        <time>2025-07-13T14:31:57Z</time>
      </trkpt>
      <trkpt lat="44.66509" lon="3.56117">
        <ele>1480.09</ele>
        <time>2025-07-13T14:32:11Z</time>
      </trkpt>
      <trkpt lat="44.66527" lon="3.56117">
        <ele>1478.65</ele>
        <time>2025-07-13T14:32:24Z</time>
      </trkpt>
      <trkpt lat="44.66531" lon="3.56117">
        <ele>1478.65</ele>
        <time>2025-07-13T14:32:28Z</time>
      </trkpt>
      <trkpt lat="44.66533" lon="3.56117">
        <ele>1478.65</ele>
        <time>2025-07-13T14:32:29Z</time>
      </trkpt>
      <trkpt lat="44.66534" lon="3.56118">
        <ele>1478.65</ele>
        <time>2025-07-13T14:32:30Z</time>
      </trkpt>
      <trkpt lat="44.66536" lon="3.56118">
        <ele>1478.65</ele>
        <time>2025-07-13T14:32:31Z</time>
      </trkpt>
      <trkpt lat="44.66538" lon="3.56118">
        <ele>1478.65</ele>
        <time>2025-07-13T14:32:32Z</time>
      </trkpt>
      <trkpt lat="44.66553" lon="3.56118">
        <ele>1477.2</ele>
        <time>2025-07-13T14:32:43Z</time>
      </trkpt>
      <trkpt lat="44.66575" lon="3.56124">
        <ele>1476.72</ele>
        <time>2025-07-13T14:32:57Z</time>
      </trkpt>
      <trkpt lat="44.6658" lon="3.56128">
        <ele>1476.24</ele>
        <time>2025-07-13T14:33:00Z</time>
      </trkpt>
      <trkpt lat="44.66581" lon="3.56129">
        <ele>1476.24</ele>
        <time>2025-07-13T14:33:01Z</time>
      </trkpt>
      <trkpt lat="44.66582" lon="3.5613">
        <ele>1476.24</ele>
        <time>2025-07-13T14:33:02Z</time>
      </trkpt>
      <trkpt lat="44.66584" lon="3.56131">
        <ele>1475.76</ele>
        <time>2025-07-13T14:33:03Z</time>
      </trkpt>
      <trkpt lat="44.66586" lon="3.56134">
        <ele>1474.8</ele>
        <time>2025-07-13T14:33:04Z</time>
      </trkpt>
      <trkpt lat="44.66589" lon="3.56134">
        <ele>1474.8</ele>
        <time>2025-07-13T14:33:05Z</time>
      </trkpt>
      <trkpt lat="44.66591" lon="3.56137">
        <ele>1473.84</ele>
        <time>2025-07-13T14:33:06Z</time>
      </trkpt>
      <trkpt lat="44.66592" lon="3.56139">
        <ele>1473.84</ele>
        <time>2025-07-13T14:33:07Z</time>
      </trkpt>
      <trkpt lat="44.66594" lon="3.56141">
        <ele>1473.36</ele>
        <time>2025-07-13T14:33:08Z</time>
      </trkpt>
      <trkpt lat="44.66595" lon="3.56144">
        <ele>1472.88</ele>
        <time>2025-07-13T14:33:09Z</time>
      </trkpt>
      <trkpt lat="44.66597" lon="3.56146">
        <ele>1472.88</ele>
        <time>2025-07-13T14:33:10Z</time>
      </trkpt>
      <trkpt lat="44.66605" lon="3.56183">
        <ele>1467.11</ele>
        <time>2025-07-13T14:33:25Z</time>
      </trkpt>
      <trkpt lat="44.66607" lon="3.56218">
        <ele>1463.74</ele>
        <time>2025-07-13T14:33:42Z</time>
      </trkpt>
      <trkpt lat="44.66608" lon="3.56246">
        <ele>1460.86</ele>
        <time>2025-07-13T14:33:56Z</time>
      </trkpt>
      <trkpt lat="44.66612" lon="3.56286">
        <ele>1457.02</ele>
        <time>2025-07-13T14:34:14Z</time>
      </trkpt>
      <trkpt lat="44.66613" lon="3.56314">
        <ele>1453.65</ele>
        <time>2025-07-13T14:34:27Z</time>
      </trkpt>
      <trkpt lat="44.66613" lon="3.56326">
        <ele>1452.21</ele>
        <time>2025-07-13T14:34:33Z</time>
      </trkpt>
      <trkpt lat="44.66613" lon="3.56328">
        <ele>1452.21</ele>
        <time>2025-07-13T14:34:34Z</time>
      </trkpt>
      <trkpt lat="44.66613" lon="3.56331">
        <ele>1452.21</ele>
        <time>2025-07-13T14:34:35Z</time>
      </trkpt>
      <trkpt lat="44.66614" lon="3.56333">
        <ele>1452.21</ele>
        <time>2025-07-13T14:34:36Z</time>
      </trkpt>
      <trkpt lat="44.66614" lon="3.56335">
        <ele>1451.73</ele>
        <time>2025-07-13T14:34:37Z</time>
      </trkpt>
      <trkpt lat="44.66617" lon="3.56363">
        <ele>1449.32</ele>
        <time>2025-07-13T14:34:51Z</time>
      </trkpt>
      <trkpt lat="44.66617" lon="3.5639">
        <ele>1446.44</ele>
        <time>2025-07-13T14:35:03Z</time>
      </trkpt>
      <trkpt lat="44.66611" lon="3.56406">
        <ele>1446.44</ele>
        <time>2025-07-13T14:35:16Z</time>
      </trkpt>
      <trkpt lat="44.6661" lon="3.56409">
        <ele>1446.44</ele>
        <time>2025-07-13T14:35:18Z</time>
      </trkpt>
      <trkpt lat="44.66593" lon="3.56433">
        <ele>1444.52</ele>
        <time>2025-07-13T14:35:34Z</time>
      </trkpt>
      <trkpt lat="44.66584" lon="3.56452">
        <ele>1446.44</ele>
        <time>2025-07-13T14:35:48Z</time>
      </trkpt>
      <trkpt lat="44.66576" lon="3.56467">
        <ele>1449.81</ele>
        <time>2025-07-13T14:36:02Z</time>
      </trkpt>
      <trkpt lat="44.66564" lon="3.56479">
        <ele>1450.77</ele>
        <time>2025-07-13T14:36:16Z</time>
      </trkpt>
      <trkpt lat="44.66552" lon="3.56489">
        <ele>1452.21</ele>
        <time>2025-07-13T14:36:29Z</time>
      </trkpt>
      <trkpt lat="44.66537" lon="3.56504">
        <ele>1453.65</ele>
        <time>2025-07-13T14:36:41Z</time>
      </trkpt>
      <trkpt lat="44.66519" lon="3.56516">
        <ele>1452.69</ele>
        <time>2025-07-13T14:36:53Z</time>
      </trkpt>
      <trkpt lat="44.66504" lon="3.56525">
        <ele>1453.65</ele>
        <time>2025-07-13T14:37:04Z</time>
      </trkpt>
      <trkpt lat="44.66491" lon="3.56533">
        <ele>1456.53</ele>
        <time>2025-07-13T14:37:15Z</time>
      </trkpt>
      <trkpt lat="44.6647" lon="3.56547">
        <ele>1454.13</ele>
        <time>2025-07-13T14:37:27Z</time>
      </trkpt>
      <trkpt lat="44.66449" lon="3.56558">
        <ele>1452.69</ele>
        <time>2025-07-13T14:37:41Z</time>
      </trkpt>
      <trkpt lat="44.66432" lon="3.56566">
        <ele>1450.77</ele>
        <time>2025-07-13T14:37:52Z</time>
      </trkpt>
      <trkpt lat="44.66411" lon="3.56576">
        <ele>1446.44</ele>
        <time>2025-07-13T14:38:06Z</time>
      </trkpt>
      <trkpt lat="44.66389" lon="3.56589">
        <ele>1443.56</ele>
        <time>2025-07-13T14:38:20Z</time>
      </trkpt>
      <trkpt lat="44.66372" lon="3.56599">
        <ele>1440.19</ele>
        <time>2025-07-13T14:38:33Z</time>
      </trkpt>
      <trkpt lat="44.66355" lon="3.56607">
        <ele>1437.79</ele>
        <time>2025-07-13T14:38:46Z</time>
      </trkpt>
      <trkpt lat="44.66334" lon="3.56618">
        <ele>1435.39</ele>
        <time>2025-07-13T14:39:01Z</time>
      </trkpt>
      <trkpt lat="44.66311" lon="3.56626">
        <ele>1432.5</ele>
        <time>2025-07-13T14:39:16Z</time>
      </trkpt>
      <trkpt lat="44.66286" lon="3.56637">
        <ele>1431.54</ele>
        <time>2025-07-13T14:39:32Z</time>
      </trkpt>
      <trkpt lat="44.66265" lon="3.56641">
        <ele>1429.62</ele>
        <time>2025-07-13T14:39:46Z</time>
      </trkpt>
      <trkpt lat="44.66246" lon="3.56632">
        <ele>1428.66</ele>
        <time>2025-07-13T14:40:02Z</time>
      </trkpt>
      <trkpt lat="44.66235" lon="3.56625">
        <ele>1426.73</ele>
        <time>2025-07-13T14:40:15Z</time>
      </trkpt>
      <trkpt lat="44.66213" lon="3.56608">
        <ele>1423.37</ele>
        <time>2025-07-13T14:40:32Z</time>
      </trkpt>
      <trkpt lat="44.6619" lon="3.56588">
        <ele>1423.37</ele>
        <time>2025-07-13T14:40:51Z</time>
      </trkpt>
      <trkpt lat="44.66179" lon="3.56578">
        <ele>1423.85</ele>
        <time>2025-07-13T14:41:07Z</time>
      </trkpt>
      <trkpt lat="44.6617" lon="3.56571">
        <ele>1425.29</ele>
        <time>2025-07-13T14:41:18Z</time>
      </trkpt>
      <trkpt lat="44.66148" lon="3.56559">
        <ele>1426.73</ele>
        <time>2025-07-13T14:41:34Z</time>
      </trkpt>
      <trkpt lat="44.6612" lon="3.56534">
        <ele>1423.85</ele>
        <time>2025-07-13T14:41:55Z</time>
      </trkpt>
      <trkpt lat="44.66103" lon="3.56526">
        <ele>1420.97</ele>
        <time>2025-07-13T14:42:05Z</time>
      </trkpt>
      <trkpt lat="44.66098" lon="3.5652">
        <ele>1420.49</ele>
        <time>2025-07-13T14:42:09Z</time>
      </trkpt>
      <trkpt lat="44.66082" lon="3.56498">
        <ele>1416.64</ele>
        <time>2025-07-13T14:42:24Z</time>
      </trkpt>
      <trkpt lat="44.66076" lon="3.56492">
        <ele>1414.72</ele>
        <time>2025-07-13T14:42:30Z</time>
      </trkpt>
      <trkpt lat="44.66075" lon="3.56492">
        <ele>1414.72</ele>
        <time>2025-07-13T14:42:31Z</time>
      </trkpt>
      <trkpt lat="44.66073" lon="3.56492">
        <ele>1414.24</ele>
        <time>2025-07-13T14:42:32Z</time>
      </trkpt>
      <trkpt lat="44.66073" lon="3.56497">
        <ele>1413.76</ele>
        <time>2025-07-13T14:42:37Z</time>
      </trkpt>
      <trkpt lat="44.66074" lon="3.56498">
        <ele>1413.76</ele>
        <time>2025-07-13T14:42:38Z</time>
      </trkpt>
      <trkpt lat="44.66075" lon="3.56499">
        <ele>1413.76</ele>
        <time>2025-07-13T14:42:39Z</time>
      </trkpt>
      <trkpt lat="44.66078" lon="3.56504">
        <ele>1414.72</ele>
        <time>2025-07-13T14:42:43Z</time>
      </trkpt>
      <trkpt lat="44.66079" lon="3.56505">
        <ele>1414.72</ele>
        <time>2025-07-13T14:42:44Z</time>
      </trkpt>
      <trkpt lat="44.6608" lon="3.56506">
        <ele>1415.2</ele>
        <time>2025-07-13T14:42:45Z</time>
      </trkpt>
      <trkpt lat="44.66081" lon="3.56508">
        <ele>1415.2</ele>
        <time>2025-07-13T14:42:46Z</time>
      </trkpt>
      <trkpt lat="44.66082" lon="3.5651">
        <ele>1415.2</ele>
        <time>2025-07-13T14:42:47Z</time>
      </trkpt>
      <trkpt lat="44.66083" lon="3.56511">
        <ele>1415.2</ele>
        <time>2025-07-13T14:42:48Z</time>
      </trkpt>
      <trkpt lat="44.66084" lon="3.56513">
        <ele>1415.2</ele>
        <time>2025-07-13T14:42:49Z</time>
      </trkpt>
      <trkpt lat="44.661" lon="3.56536">
        <ele>1415.68</ele>
        <time>2025-07-13T14:43:06Z</time>
      </trkpt>
      <trkpt lat="44.66116" lon="3.56562">
        <ele>1416.64</ele>
        <time>2025-07-13T14:43:24Z</time>
      </trkpt>
      <trkpt lat="44.6613" lon="3.56582">
        <ele>1416.64</ele>
        <time>2025-07-13T14:43:39Z</time>
      </trkpt>
      <trkpt lat="44.66141" lon="3.56607">
        <ele>1415.68</ele>
        <time>2025-07-13T14:43:54Z</time>
      </trkpt>
      <trkpt lat="44.66144" lon="3.56625">
        <ele>1415.68</ele>
        <time>2025-07-13T14:44:03Z</time>
      </trkpt>
      <trkpt lat="44.66131" lon="3.56646">
        <ele>1412.31</ele>
        <time>2025-07-13T14:44:19Z</time>
      </trkpt>
      <trkpt lat="44.66113" lon="3.56646">
        <ele>1408.47</ele>
        <time>2025-07-13T14:44:32Z</time>
      </trkpt>
      <trkpt lat="44.66109" lon="3.56647">
        <ele>1407.99</ele>
        <time>2025-07-13T14:44:35Z</time>
      </trkpt>
      <trkpt lat="44.66108" lon="3.56648">
        <ele>1407.99</ele>
        <time>2025-07-13T14:44:36Z</time>
      </trkpt>
      <trkpt lat="44.66106" lon="3.56648">
        <ele>1407.99</ele>
        <time>2025-07-13T14:44:37Z</time>
      </trkpt>
      <trkpt lat="44.66103" lon="3.56649">
        <ele>1407.51</ele>
        <time>2025-07-13T14:44:39Z</time>
      </trkpt>
      <trkpt lat="44.66102" lon="3.56649">
        <ele>1407.51</ele>
        <time>2025-07-13T14:44:40Z</time>
      </trkpt>
      <trkpt lat="44.6608" lon="3.56656">
        <ele>1404.14</ele>
        <time>2025-07-13T14:44:55Z</time>
      </trkpt>
      <trkpt lat="44.66075" lon="3.56659">
        <ele>1404.14</ele>
        <time>2025-07-13T14:44:59Z</time>
      </trkpt>
      <trkpt lat="44.66074" lon="3.56659">
        <ele>1404.14</ele>
        <time>2025-07-13T14:45:00Z</time>
      </trkpt>
      <trkpt lat="44.66072" lon="3.56659">
        <ele>1404.14</ele>
        <time>2025-07-13T14:45:01Z</time>
      </trkpt>
      <trkpt lat="44.66048" lon="3.56667">
        <ele>1402.22</ele>
        <time>2025-07-13T14:45:19Z</time>
      </trkpt>
      <trkpt lat="44.66041" lon="3.56676">
        <ele>1402.22</ele>
        <time>2025-07-13T14:45:27Z</time>
      </trkpt>
      <trkpt lat="44.66041" lon="3.56678">
        <ele>1401.74</ele>
        <time>2025-07-13T14:45:28Z</time>
      </trkpt>
      <trkpt lat="44.66036" lon="3.56694">
        <ele>1398.37</ele>
        <time>2025-07-13T14:45:38Z</time>
      </trkpt>
      <trkpt lat="44.66036" lon="3.56696">
        <ele>1398.37</ele>
        <time>2025-07-13T14:45:39Z</time>
      </trkpt>
      <trkpt lat="44.66036" lon="3.56699">
        <ele>1398.37</ele>
        <time>2025-07-13T14:45:41Z</time>
      </trkpt>
      <trkpt lat="44.66036" lon="3.56701">
        <ele>1398.37</ele>
        <time>2025-07-13T14:45:42Z</time>
      </trkpt>
      <trkpt lat="44.66036" lon="3.56702">
        <ele>1398.37</ele>
        <time>2025-07-13T14:45:43Z</time>
      </trkpt>
      <trkpt lat="44.66036" lon="3.56704">
        <ele>1398.37</ele>
        <time>2025-07-13T14:45:44Z</time>
      </trkpt>
      <trkpt lat="44.66036" lon="3.56705">
        <ele>1397.89</ele>
        <time>2025-07-13T14:45:45Z</time>
      </trkpt>
      <trkpt lat="44.66032" lon="3.56728">
        <ele>1398.86</ele>
        <time>2025-07-13T14:46:00Z</time>
      </trkpt>
      <trkpt lat="44.66031" lon="3.56762">
        <ele>1400.78</ele>
        <time>2025-07-13T14:46:19Z</time>
      </trkpt>
      <trkpt lat="44.66028" lon="3.56787">
        <ele>1403.18</ele>
        <time>2025-07-13T14:46:37Z</time>
      </trkpt>
      <trkpt lat="44.66014" lon="3.5682">
        <ele>1409.91</ele>
        <time>2025-07-13T14:46:58Z</time>
      </trkpt>
      <trkpt lat="44.65996" lon="3.56843">
        <ele>1412.31</ele>
        <time>2025-07-13T14:47:17Z</time>
      </trkpt>
      <trkpt lat="44.6597" lon="3.56869">
        <ele>1421.45</ele>
        <time>2025-07-13T14:47:41Z</time>
      </trkpt>
      <trkpt lat="44.65947" lon="3.56887">
        <ele>1424.33</ele>
        <time>2025-07-13T14:48:02Z</time>
      </trkpt>
      <trkpt lat="44.65923" lon="3.56914">
        <ele>1420.49</ele>
        <time>2025-07-13T14:48:22Z</time>
      </trkpt>
      <trkpt lat="44.65906" lon="3.56943">
        <ele>1421.45</ele>
        <time>2025-07-13T14:48:45Z</time>
      </trkpt>
      <trkpt lat="44.65885" lon="3.56977">
        <ele>1422.89</ele>
        <time>2025-07-13T14:49:09Z</time>
      </trkpt>
      <trkpt lat="44.65872" lon="3.57013">
        <ele>1420.49</ele>
        <time>2025-07-13T14:49:28Z</time>
      </trkpt>
      <trkpt lat="44.65859" lon="3.57037">
        <ele>1421.45</ele>
        <time>2025-07-13T14:49:43Z</time>
      </trkpt>
      <trkpt lat="44.65848" lon="3.5707">
        <ele>1420.97</ele>
        <time>2025-07-13T14:50:02Z</time>
      </trkpt>
      <trkpt lat="44.65842" lon="3.57097">
        <ele>1420.49</ele>
        <time>2025-07-13T14:50:17Z</time>
      </trkpt>
      <trkpt lat="44.65834" lon="3.57121">
        <ele>1420.49</ele>
        <time>2025-07-13T14:50:31Z</time>
      </trkpt>
      <trkpt lat="44.65827" lon="3.5714">
        <ele>1417.6</ele>
        <time>2025-07-13T14:50:44Z</time>
      </trkpt>
      <trkpt lat="44.65818" lon="3.57156">
        <ele>1413.76</ele>
        <time>2025-07-13T14:50:57Z</time>
      </trkpt>
      <trkpt lat="44.65817" lon="3.57158">
        <ele>1413.28</ele>
        <time>2025-07-13T14:50:58Z</time>
      </trkpt>
      <trkpt lat="44.65816" lon="3.5716">
        <ele>1413.28</ele>
        <time>2025-07-13T14:50:59Z</time>
      </trkpt>
      <trkpt lat="44.65815" lon="3.57162">
        <ele>1413.28</ele>
        <time>2025-07-13T14:51:00Z</time>
      </trkpt>
      <trkpt lat="44.6581" lon="3.57176">
        <ele>1413.76</ele>
        <time>2025-07-13T14:51:08Z</time>
      </trkpt>
      <trkpt lat="44.658" lon="3.57199">
        <ele>1411.83</ele>
        <time>2025-07-13T14:51:22Z</time>
      </trkpt>
      <trkpt lat="44.65793" lon="3.57216">
        <ele>1408.95</ele>
        <time>2025-07-13T14:51:34Z</time>
      </trkpt>
      <trkpt lat="44.65784" lon="3.57234">
        <ele>1402.7</ele>
        <time>2025-07-13T14:51:47Z</time>
      </trkpt>
      <trkpt lat="44.65775" lon="3.57258">
        <ele>1397.41</ele>
        <time>2025-07-13T14:52:01Z</time>
      </trkpt>
      <trkpt lat="44.65768" lon="3.57291">
        <ele>1403.18</ele>
        <time>2025-07-13T14:52:16Z</time>
      </trkpt>
      <trkpt lat="44.65764" lon="3.57309">
        <ele>1406.55</ele>
        <time>2025-07-13T14:52:28Z</time>
      </trkpt>
      <trkpt lat="44.6576" lon="3.5734">
        <ele>1410.87</ele>
        <time>2025-07-13T14:52:42Z</time>
      </trkpt>
      <trkpt lat="44.6576" lon="3.57366">
        <ele>1412.31</ele>
        <time>2025-07-13T14:52:56Z</time>
      </trkpt>
      <trkpt lat="44.65764" lon="3.57393">
        <ele>1411.83</ele>
        <time>2025-07-13T14:53:10Z</time>
      </trkpt>
      <trkpt lat="44.65768" lon="3.5742">
        <ele>1410.39</ele>
        <time>2025-07-13T14:53:24Z</time>
      </trkpt>
      <trkpt lat="44.65769" lon="3.5745">
        <ele>1409.43</ele>
        <time>2025-07-13T14:53:37Z</time>
      </trkpt>
      <trkpt lat="44.65768" lon="3.57456">
        <ele>1409.91</ele>
        <time>2025-07-13T14:53:40Z</time>
      </trkpt>
      <trkpt lat="44.65769" lon="3.57458">
        <ele>1409.91</ele>
        <time>2025-07-13T14:53:41Z</time>
      </trkpt>
      <trkpt lat="44.65769" lon="3.57464">
        <ele>1409.91</ele>
        <time>2025-07-13T14:53:44Z</time>
      </trkpt>
      <trkpt lat="44.65768" lon="3.57466">
        <ele>1410.39</ele>
        <time>2025-07-13T14:53:45Z</time>
      </trkpt>
      <trkpt lat="44.65768" lon="3.57468">
        <ele>1410.39</ele>
        <time>2025-07-13T14:53:46Z</time>
      </trkpt>
      <trkpt lat="44.65766" lon="3.57484">
        <ele>1410.87</ele>
        <time>2025-07-13T14:53:54Z</time>
      </trkpt>
      <trkpt lat="44.65765" lon="3.57493">
        <ele>1409.91</ele>
        <time>2025-07-13T14:53:59Z</time>
      </trkpt>
      <trkpt lat="44.65765" lon="3.57494">
        <ele>1409.91</ele>
        <time>2025-07-13T14:54:00Z</time>
      </trkpt>
      <trkpt lat="44.65764" lon="3.57496">
        <ele>1409.43</ele>
        <time>2025-07-13T14:54:01Z</time>
      </trkpt>
      <trkpt lat="44.65764" lon="3.57498">
        <ele>1408.95</ele>
        <time>2025-07-13T14:54:02Z</time>
      </trkpt>
      <trkpt lat="44.65764" lon="3.575">
        <ele>1408.47</ele>
        <time>2025-07-13T14:54:03Z</time>
      </trkpt>
      <trkpt lat="44.6576" lon="3.57532">
        <ele>1405.58</ele>
        <time>2025-07-13T14:54:18Z</time>
      </trkpt>
      <trkpt lat="44.65758" lon="3.57541">
        <ele>1404.14</ele>
        <time>2025-07-13T14:54:23Z</time>
      </trkpt>
      <trkpt lat="44.65757" lon="3.57542">
        <ele>1403.66</ele>
        <time>2025-07-13T14:54:24Z</time>
      </trkpt>
      <trkpt lat="44.65757" lon="3.57544">
        <ele>1403.66</ele>
        <time>2025-07-13T14:54:25Z</time>
      </trkpt>
      <trkpt lat="44.65756" lon="3.57546">
        <ele>1403.18</ele>
        <time>2025-07-13T14:54:26Z</time>
      </trkpt>
      <trkpt lat="44.65755" lon="3.57548">
        <ele>1403.18</ele>
        <time>2025-07-13T14:54:27Z</time>
      </trkpt>
      <trkpt lat="44.65755" lon="3.5755">
        <ele>1402.7</ele>
        <time>2025-07-13T14:54:28Z</time>
      </trkpt>
      <trkpt lat="44.65755" lon="3.57553">
        <ele>1402.7</ele>
        <time>2025-07-13T14:54:29Z</time>
      </trkpt>
      <trkpt lat="44.65754" lon="3.57555">
        <ele>1402.7</ele>
        <time>2025-07-13T14:54:30Z</time>
      </trkpt>
      <trkpt lat="44.65754" lon="3.57558">
        <ele>1402.7</ele>
        <time>2025-07-13T14:54:31Z</time>
      </trkpt>
      <trkpt lat="44.65753" lon="3.5756">
        <ele>1402.7</ele>
        <time>2025-07-13T14:54:32Z</time>
      </trkpt>
      <trkpt lat="44.65753" lon="3.57562">
        <ele>1403.18</ele>
        <time>2025-07-13T14:54:33Z</time>
      </trkpt>
      <trkpt lat="44.65753" lon="3.57564">
        <ele>1403.18</ele>
        <time>2025-07-13T14:54:34Z</time>
      </trkpt>
      <trkpt lat="44.65752" lon="3.57566">
        <ele>1403.66</ele>
        <time>2025-07-13T14:54:35Z</time>
      </trkpt>
      <trkpt lat="44.65748" lon="3.57599">
        <ele>1405.58</ele>
        <time>2025-07-13T14:54:53Z</time>
      </trkpt>
      <trkpt lat="44.65747" lon="3.57605">
        <ele>1407.99</ele>
        <time>2025-07-13T14:55:07Z</time>
      </trkpt>
      <trkpt lat="44.65748" lon="3.57607">
        <ele>1407.99</ele>
        <time>2025-07-13T14:55:11Z</time>
      </trkpt>
      <trkpt lat="44.65765" lon="3.57616">
        <ele>1409.91</ele>
        <time>2025-07-13T14:55:25Z</time>
      </trkpt>
      <trkpt lat="44.65771" lon="3.57618">
        <ele>1410.39</ele>
        <time>2025-07-13T14:55:32Z</time>
      </trkpt>
      <trkpt lat="44.65773" lon="3.57618">
        <ele>1410.39</ele>
        <time>2025-07-13T14:55:33Z</time>
      </trkpt>
      <trkpt lat="44.65774" lon="3.57618">
        <ele>1410.39</ele>
        <time>2025-07-13T14:55:34Z</time>
      </trkpt>
      <trkpt lat="44.65776" lon="3.57619">
        <ele>1410.39</ele>
        <time>2025-07-13T14:55:35Z</time>
      </trkpt>
      <trkpt lat="44.65777" lon="3.57619">
        <ele>1410.39</ele>
        <time>2025-07-13T14:55:36Z</time>
      </trkpt>
      <trkpt lat="44.65779" lon="3.5762">
        <ele>1410.87</ele>
        <time>2025-07-13T14:55:37Z</time>
      </trkpt>
      <trkpt lat="44.6578" lon="3.57622">
        <ele>1410.87</ele>
        <time>2025-07-13T14:55:38Z</time>
      </trkpt>
      <trkpt lat="44.65797" lon="3.57628">
        <ele>1411.83</ele>
        <time>2025-07-13T14:55:52Z</time>
      </trkpt>
      <trkpt lat="44.65829" lon="3.57638">
        <ele>1413.76</ele>
        <time>2025-07-13T14:56:10Z</time>
      </trkpt>
      <trkpt lat="44.65846" lon="3.57653">
        <ele>1413.76</ele>
        <time>2025-07-13T14:56:25Z</time>
      </trkpt>
      <trkpt lat="44.65867" lon="3.57686">
        <ele>1411.35</ele>
        <time>2025-07-13T14:56:43Z</time>
      </trkpt>
      <trkpt lat="44.65885" lon="3.5772">
        <ele>1407.99</ele>
        <time>2025-07-13T14:57:02Z</time>
      </trkpt>
      <trkpt lat="44.65902" lon="3.57753">
        <ele>1404.62</ele>
        <time>2025-07-13T14:57:22Z</time>
      </trkpt>
      <trkpt lat="44.65924" lon="3.57791">
        <ele>1404.62</ele>
        <time>2025-07-13T14:57:43Z</time>
      </trkpt>
      <trkpt lat="44.65939" lon="3.57828">
        <ele>1406.55</ele>
        <time>2025-07-13T14:58:03Z</time>
      </trkpt>
      <trkpt lat="44.65955" lon="3.5787">
        <ele>1407.03</ele>
        <time>2025-07-13T14:58:24Z</time>
      </trkpt>
      <trkpt lat="44.65971" lon="3.57914">
        <ele>1406.55</ele>
        <time>2025-07-13T14:58:45Z</time>
      </trkpt>
      <trkpt lat="44.65995" lon="3.57933">
        <ele>1406.55</ele>
        <time>2025-07-13T14:59:04Z</time>
      </trkpt>
      <trkpt lat="44.65996" lon="3.57934">
        <ele>1406.07</ele>
        <time>2025-07-13T14:59:06Z</time>
      </trkpt>
      <trkpt lat="44.66016" lon="3.57944">
        <ele>1406.07</ele>
        <time>2025-07-13T14:59:23Z</time>
      </trkpt>
      <trkpt lat="44.66051" lon="3.57955">
        <ele>1408.95</ele>
        <time>2025-07-13T14:59:45Z</time>
      </trkpt>
      <trkpt lat="44.66081" lon="3.57969">
        <ele>1409.43</ele>
        <time>2025-07-13T15:00:04Z</time>
      </trkpt>
      <trkpt lat="44.66112" lon="3.57993">
        <ele>1405.1</ele>
        <time>2025-07-13T15:00:25Z</time>
      </trkpt>
      <trkpt lat="44.66138" lon="3.58026">
        <ele>1401.26</ele>
        <time>2025-07-13T15:00:44Z</time>
      </trkpt>
      <trkpt lat="44.66163" lon="3.58053">
        <ele>1395.01</ele>
        <time>2025-07-13T15:01:04Z</time>
      </trkpt>
      <trkpt lat="44.66182" lon="3.5808">
        <ele>1391.65</ele>
        <time>2025-07-13T15:01:22Z</time>
      </trkpt>
      <trkpt lat="44.66205" lon="3.58107">
        <ele>1388.76</ele>
        <time>2025-07-13T15:01:41Z</time>
      </trkpt>
      <trkpt lat="44.66231" lon="3.5814">
        <ele>1386.84</ele>
        <time>2025-07-13T15:02:01Z</time>
      </trkpt>
      <trkpt lat="44.6625" lon="3.58174">
        <ele>1384.92</ele>
        <time>2025-07-13T15:02:20Z</time>
      </trkpt>
      <trkpt lat="44.66262" lon="3.58219">
        <ele>1382.99</ele>
        <time>2025-07-13T15:02:41Z</time>
      </trkpt>
      <trkpt lat="44.66267" lon="3.58257">
        <ele>1378.19</ele>
        <time>2025-07-13T15:03:00Z</time>
      </trkpt>
      <trkpt lat="44.66275" lon="3.58293">
        <ele>1378.19</ele>
        <time>2025-07-13T15:03:17Z</time>
      </trkpt>
      <trkpt lat="44.66283" lon="3.58332">
        <ele>1374.34</ele>
        <time>2025-07-13T15:03:36Z</time>
      </trkpt>
      <trkpt lat="44.6629" lon="3.5835">
        <ele>1373.38</ele>
        <time>2025-07-13T15:03:45Z</time>
      </trkpt>
      <trkpt lat="44.66313" lon="3.58359">
        <ele>1371.46</ele>
        <time>2025-07-13T15:04:02Z</time>
      </trkpt>
      <trkpt lat="44.6634" lon="3.58355">
        <ele>1367.61</ele>
        <time>2025-07-13T15:04:21Z</time>
      </trkpt>
      <trkpt lat="44.66368" lon="3.58347">
        <ele>1364.25</ele>
        <time>2025-07-13T15:04:39Z</time>
      </trkpt>
      <trkpt lat="44.66394" lon="3.58343">
        <ele>1364.25</ele>
        <time>2025-07-13T15:04:55Z</time>
      </trkpt>
      <trkpt lat="44.66424" lon="3.58336">
        <ele>1362.33</ele>
        <time>2025-07-13T15:05:15Z</time>
      </trkpt>
      <trkpt lat="44.66452" lon="3.58332">
        <ele>1360.4</ele>
        <time>2025-07-13T15:05:33Z</time>
      </trkpt>
      <trkpt lat="44.66478" lon="3.58319">
        <ele>1358.96</ele>
        <time>2025-07-13T15:05:52Z</time>
      </trkpt>
      <trkpt lat="44.66494" lon="3.58308">
        <ele>1357.04</ele>
        <time>2025-07-13T15:06:05Z</time>
      </trkpt>
      <trkpt lat="44.66496" lon="3.58307">
        <ele>1357.04</ele>
        <time>2025-07-13T15:06:06Z</time>
      </trkpt>
      <trkpt lat="44.6652" lon="3.58322">
        <ele>1364.73</ele>
        <time>2025-07-13T15:06:24Z</time>
      </trkpt>
      <trkpt lat="44.66535" lon="3.58349">
        <ele>1366.17</ele>
        <time>2025-07-13T15:06:40Z</time>
      </trkpt>
      <trkpt lat="44.66551" lon="3.5838">
        <ele>1364.73</ele>
        <time>2025-07-13T15:06:59Z</time>
      </trkpt>
      <trkpt lat="44.66566" lon="3.5841">
        <ele>1361.84</ele>
        <time>2025-07-13T15:07:17Z</time>
      </trkpt>
      <trkpt lat="44.66584" lon="3.58449">
        <ele>1360.4</ele>
        <time>2025-07-13T15:07:38Z</time>
      </trkpt>
      <trkpt lat="44.66598" lon="3.58472">
        <ele>1358.96</ele>
        <time>2025-07-13T15:07:53Z</time>
      </trkpt>
      <trkpt lat="44.66599" lon="3.58474">
        <ele>1358.96</ele>
        <time>2025-07-13T15:07:54Z</time>
      </trkpt>
      <trkpt lat="44.6662" lon="3.58498">
        <ele>1354.63</ele>
        <time>2025-07-13T15:08:12Z</time>
      </trkpt>
      <trkpt lat="44.66641" lon="3.58527">
        <ele>1348.87</ele>
        <time>2025-07-13T15:08:31Z</time>
      </trkpt>
      <trkpt lat="44.66662" lon="3.58541">
        <ele>1343.58</ele>
        <time>2025-07-13T15:08:46Z</time>
      </trkpt>
      <trkpt lat="44.66664" lon="3.58542">
        <ele>1343.1</ele>
        <time>2025-07-13T15:08:47Z</time>
      </trkpt>
      <trkpt lat="44.66665" lon="3.58543">
        <ele>1343.1</ele>
        <time>2025-07-13T15:08:48Z</time>
      </trkpt>
      <trkpt lat="44.66666" lon="3.58545">
        <ele>1342.62</ele>
        <time>2025-07-13T15:08:49Z</time>
      </trkpt>
      <trkpt lat="44.66667" lon="3.58546">
        <ele>1342.14</ele>
        <time>2025-07-13T15:08:50Z</time>
      </trkpt>
      <trkpt lat="44.66668" lon="3.58548">
        <ele>1341.66</ele>
        <time>2025-07-13T15:08:51Z</time>
      </trkpt>
      <trkpt lat="44.66689" lon="3.58574">
        <ele>1338.29</ele>
        <time>2025-07-13T15:09:10Z</time>
      </trkpt>
      <trkpt lat="44.66695" lon="3.58611">
        <ele>1334.45</ele>
        <time>2025-07-13T15:09:29Z</time>
      </trkpt>
      <trkpt lat="44.66706" lon="3.58643">
        <ele>1335.41</ele>
        <time>2025-07-13T15:09:45Z</time>
      </trkpt>
      <trkpt lat="44.66707" lon="3.58675">
        <ele>1334.45</ele>
        <time>2025-07-13T15:10:02Z</time>
      </trkpt>
      <trkpt lat="44.66706" lon="3.5871">
        <ele>1330.6</ele>
        <time>2025-07-13T15:10:19Z</time>
      </trkpt>
      <trkpt lat="44.66707" lon="3.58749">
        <ele>1324.35</ele>
        <time>2025-07-13T15:10:37Z</time>
      </trkpt>
      <trkpt lat="44.66704" lon="3.58793">
        <ele>1316.66</ele>
        <time>2025-07-13T15:10:57Z</time>
      </trkpt>
      <trkpt lat="44.66704" lon="3.58803">
        <ele>1313.78</ele>
        <time>2025-07-13T15:11:03Z</time>
      </trkpt>
      <trkpt lat="44.66706" lon="3.5882">
        <ele>1310.9</ele>
        <time>2025-07-13T15:11:10Z</time>
      </trkpt>
      <trkpt lat="44.66706" lon="3.5886">
        <ele>1303.2</ele>
        <time>2025-07-13T15:11:29Z</time>
      </trkpt>
      <trkpt lat="44.6671" lon="3.58913">
        <ele>1299.84</ele>
        <time>2025-07-13T15:11:50Z</time>
      </trkpt>
      <trkpt lat="44.66707" lon="3.58927">
        <ele>1297.92</ele>
        <time>2025-07-13T15:11:58Z</time>
      </trkpt>
      <trkpt lat="44.66707" lon="3.58929">
        <ele>1297.44</ele>
        <time>2025-07-13T15:11:59Z</time>
      </trkpt>
      <trkpt lat="44.66706" lon="3.58931">
        <ele>1297.44</ele>
        <time>2025-07-13T15:12:00Z</time>
      </trkpt>
      <trkpt lat="44.66703" lon="3.58972">
        <ele>1295.51</ele>
        <time>2025-07-13T15:12:20Z</time>
      </trkpt>
      <trkpt lat="44.66705" lon="3.59022">
        <ele>1293.59</ele>
        <time>2025-07-13T15:12:41Z</time>
      </trkpt>
      <trkpt lat="44.66704" lon="3.59073">
        <ele>1290.23</ele>
        <time>2025-07-13T15:13:03Z</time>
      </trkpt>
      <trkpt lat="44.66705" lon="3.59101">
        <ele>1286.38</ele>
        <time>2025-07-13T15:13:18Z</time>
      </trkpt>
      <trkpt lat="44.66702" lon="3.59146">
        <ele>1283.5</ele>
        <time>2025-07-13T15:13:37Z</time>
      </trkpt>
      <trkpt lat="44.66702" lon="3.59192">
        <ele>1280.13</ele>
        <time>2025-07-13T15:13:57Z</time>
      </trkpt>
      <trkpt lat="44.66696" lon="3.59234">
        <ele>1278.21</ele>
        <time>2025-07-13T15:14:16Z</time>
      </trkpt>
      <trkpt lat="44.66702" lon="3.59262">
        <ele>1274.85</ele>
        <time>2025-07-13T15:14:31Z</time>
      </trkpt>
      <trkpt lat="44.66709" lon="3.59264">
        <ele>1273.4</ele>
        <time>2025-07-13T15:14:39Z</time>
      </trkpt>
      <trkpt lat="44.66735" lon="3.59274">
        <ele>1268.6</ele>
        <time>2025-07-13T15:14:56Z</time>
      </trkpt>
      <trkpt lat="44.66745" lon="3.5928">
        <ele>1269.08</ele>
        <time>2025-07-13T15:15:12Z</time>
      </trkpt>
      <trkpt lat="44.66756" lon="3.5929">
        <ele>1268.12</ele>
        <time>2025-07-13T15:15:29Z</time>
      </trkpt>
      <trkpt lat="44.66776" lon="3.59317">
        <ele>1264.27</ele>
        <time>2025-07-13T15:15:49Z</time>
      </trkpt>
      <trkpt lat="44.66775" lon="3.59322">
        <ele>1263.79</ele>
        <time>2025-07-13T15:15:52Z</time>
      </trkpt>
      <trkpt lat="44.66771" lon="3.59329">
        <ele>1262.35</ele>
        <time>2025-07-13T15:15:57Z</time>
      </trkpt>
      <trkpt lat="44.6677" lon="3.59331">
        <ele>1262.35</ele>
        <time>2025-07-13T15:15:58Z</time>
      </trkpt>
      <trkpt lat="44.66751" lon="3.5937">
        <ele>1258.5</ele>
        <time>2025-07-13T15:16:19Z</time>
      </trkpt>
      <trkpt lat="44.66741" lon="3.59404">
        <ele>1260.43</ele>
        <time>2025-07-13T15:16:36Z</time>
      </trkpt>
      <trkpt lat="44.66741" lon="3.59408">
        <ele>1260.43</ele>
        <time>2025-07-13T15:16:38Z</time>
      </trkpt>
      <trkpt lat="44.66746" lon="3.59452">
        <ele>1266.67</ele>
        <time>2025-07-13T15:16:58Z</time>
      </trkpt>
      <trkpt lat="44.66756" lon="3.59474">
        <ele>1269.56</ele>
        <time>2025-07-13T15:17:12Z</time>
      </trkpt>
      <trkpt lat="44.66762" lon="3.59482">
        <ele>1271.48</ele>
        <time>2025-07-13T15:17:28Z</time>
      </trkpt>
      <trkpt lat="44.66763" lon="3.59484">
        <ele>1271.48</ele>
        <time>2025-07-13T15:17:29Z</time>
      </trkpt>
      <trkpt lat="44.66763" lon="3.59485">
        <ele>1271.48</ele>
        <time>2025-07-13T15:17:30Z</time>
      </trkpt>
      <trkpt lat="44.66764" lon="3.59487">
        <ele>1271.48</ele>
        <time>2025-07-13T15:17:31Z</time>
      </trkpt>
      <trkpt lat="44.66764" lon="3.59489">
        <ele>1271.48</ele>
        <time>2025-07-13T15:17:32Z</time>
      </trkpt>
      <trkpt lat="44.6677" lon="3.59518">
        <ele>1270.52</ele>
        <time>2025-07-13T15:17:48Z</time>
      </trkpt>
      <trkpt lat="44.66774" lon="3.59525">
        <ele>1271.48</ele>
        <time>2025-07-13T15:18:02Z</time>
      </trkpt>
      <trkpt lat="44.66768" lon="3.59523">
        <ele>1271</ele>
        <time>2025-07-13T15:18:15Z</time>
      </trkpt>
      <trkpt lat="44.66773" lon="3.59527">
        <ele>1270.04</ele>
        <time>2025-07-13T15:18:28Z</time>
      </trkpt>
      <trkpt lat="44.66774" lon="3.59529">
        <ele>1270.04</ele>
        <time>2025-07-13T15:18:30Z</time>
      </trkpt>
      <trkpt lat="44.66774" lon="3.59531">
        <ele>1270.04</ele>
        <time>2025-07-13T15:18:31Z</time>
      </trkpt>
      <trkpt lat="44.66775" lon="3.59532">
        <ele>1270.04</ele>
        <time>2025-07-13T15:18:32Z</time>
      </trkpt>
      <trkpt lat="44.66775" lon="3.59534">
        <ele>1270.04</ele>
        <time>2025-07-13T15:18:33Z</time>
      </trkpt>
      <trkpt lat="44.66777" lon="3.59545">
        <ele>1270.52</ele>
        <time>2025-07-13T15:18:40Z</time>
      </trkpt>
      <trkpt lat="44.66776" lon="3.59569">
        <ele>1271</ele>
        <time>2025-07-13T15:18:54Z</time>
      </trkpt>
      <trkpt lat="44.66774" lon="3.59581">
        <ele>1271.48</ele>
        <time>2025-07-13T15:19:05Z</time>
      </trkpt>
      <trkpt lat="44.66759" lon="3.59579">
        <ele>1272.92</ele>
        <time>2025-07-13T15:19:20Z</time>
      </trkpt>
      <trkpt lat="44.66764" lon="3.59578">
        <ele>1272.92</ele>
        <time>2025-07-13T15:19:33Z</time>
      </trkpt>
      <trkpt lat="44.66768" lon="3.59579">
        <ele>1272.92</ele>
        <time>2025-07-13T15:19:37Z</time>
      </trkpt>
      <trkpt lat="44.66774" lon="3.59582">
        <ele>1272.92</ele>
        <time>2025-07-13T15:19:43Z</time>
      </trkpt>
      <trkpt lat="44.66771" lon="3.59615">
        <ele>1273.4</ele>
        <time>2025-07-13T15:20:00Z</time>
      </trkpt>
      <trkpt lat="44.66766" lon="3.59644">
        <ele>1272.92</ele>
        <time>2025-07-13T15:20:16Z</time>
      </trkpt>
      <trkpt lat="44.66767" lon="3.59647">
        <ele>1273.4</ele>
        <time>2025-07-13T15:20:19Z</time>
      </trkpt>
      <trkpt lat="44.66778" lon="3.59656">
        <ele>1273.88</ele>
        <time>2025-07-13T15:20:33Z</time>
      </trkpt>
      <trkpt lat="44.66789" lon="3.59662">
        <ele>1274.36</ele>
        <time>2025-07-13T15:20:50Z</time>
      </trkpt>
      <trkpt lat="44.66808" lon="3.59664">
        <ele>1274.36</ele>
        <time>2025-07-13T15:21:09Z</time>
      </trkpt>
      <trkpt lat="44.66816" lon="3.59673">
        <ele>1274.85</ele>
        <time>2025-07-13T15:21:22Z</time>
      </trkpt>
      <trkpt lat="44.66819" lon="3.59675">
        <ele>1275.33</ele>
        <time>2025-07-13T15:21:37Z</time>
      </trkpt>
      <trkpt lat="44.66818" lon="3.59672">
        <ele>1277.25</ele>
        <time>2025-07-13T15:21:55Z</time>
      </trkpt>
      <trkpt lat="44.66815" lon="3.59671">
        <ele>1280.13</ele>
        <time>2025-07-13T15:22:12Z</time>
      </trkpt>
      <trkpt lat="44.66813" lon="3.59667">
        <ele>1283.02</ele>
        <time>2025-07-13T15:22:30Z</time>
      </trkpt>
      <trkpt lat="44.66812" lon="3.59664">
        <ele>1283.98</ele>
        <time>2025-07-13T15:22:44Z</time>
      </trkpt>
      <trkpt lat="44.6681" lon="3.59664">
        <ele>1284.94</ele>
        <time>2025-07-13T15:23:04Z</time>
      </trkpt>
      <trkpt lat="44.66807" lon="3.59664">
        <ele>1284.94</ele>
        <time>2025-07-13T15:23:12Z</time>
      </trkpt>
      <trkpt lat="44.66795" lon="3.59666">
        <ele>1283.5</ele>
        <time>2025-07-13T15:23:28Z</time>
      </trkpt>
      <trkpt lat="44.66792" lon="3.59665">
        <ele>1284.46</ele>
        <time>2025-07-13T15:23:32Z</time>
      </trkpt>
      <trkpt lat="44.66774" lon="3.59654">
        <ele>1280.13</ele>
        <time>2025-07-13T15:23:53Z</time>
      </trkpt>
      <trkpt lat="44.66768" lon="3.59656">
        <ele>1280.13</ele>
        <time>2025-07-13T15:24:00Z</time>
      </trkpt>
      <trkpt lat="44.66762" lon="3.59679">
        <ele>1278.21</ele>
        <time>2025-07-13T15:24:16Z</time>
      </trkpt>
      <trkpt lat="44.66758" lon="3.59696">
        <ele>1276.29</ele>
        <time>2025-07-13T15:24:30Z</time>
      </trkpt>
      <trkpt lat="44.66753" lon="3.59724">
        <ele>1274.85</ele>
        <time>2025-07-13T15:24:50Z</time>
      </trkpt>
      <trkpt lat="44.66756" lon="3.59751">
        <ele>1274.36</ele>
        <time>2025-07-13T15:25:10Z</time>
      </trkpt>
      <trkpt lat="44.66759" lon="3.59767">
        <ele>1274.36</ele>
        <time>2025-07-13T15:25:24Z</time>
      </trkpt>
      <trkpt lat="44.66761" lon="3.59769">
        <ele>1274.85</ele>
        <time>2025-07-13T15:25:39Z</time>
      </trkpt>
      <trkpt lat="44.66759" lon="3.59771">
        <ele>1275.33</ele>
        <time>2025-07-13T15:25:56Z</time>
      </trkpt>
      <trkpt lat="44.66761" lon="3.59769">
        <ele>1275.33</ele>
        <time>2025-07-13T15:26:12Z</time>
      </trkpt>
      <trkpt lat="44.66763" lon="3.59765">
        <ele>1275.33</ele>
        <time>2025-07-13T15:26:27Z</time>
      </trkpt>
      <trkpt lat="44.66761" lon="3.59768">
        <ele>1273.88</ele>
        <time>2025-07-13T15:26:49Z</time>
      </trkpt>
      <trkpt lat="44.6677" lon="3.59769">
        <ele>1273.4</ele>
        <time>2025-07-13T15:27:08Z</time>
      </trkpt>
      <trkpt lat="44.66767" lon="3.59772">
        <ele>1274.36</ele>
        <time>2025-07-13T15:27:32Z</time>
      </trkpt>
      <trkpt lat="44.66769" lon="3.59762">
        <ele>1274.85</ele>
        <time>2025-07-13T15:27:55Z</time>
      </trkpt>
      <trkpt lat="44.66773" lon="3.59759">
        <ele>1275.33</ele>
        <time>2025-07-13T15:28:21Z</time>
      </trkpt>
      <trkpt lat="44.66767" lon="3.59763">
        <ele>1271.48</ele>
        <time>2025-07-13T15:28:45Z</time>
      </trkpt>
      <trkpt lat="44.66771" lon="3.59765">
        <ele>1271.96</ele>
        <time>2025-07-13T15:29:09Z</time>
      </trkpt>
      <trkpt lat="44.66769" lon="3.59765">
        <ele>1275.81</ele>
        <time>2025-07-13T15:29:31Z</time>
      </trkpt>
      <trkpt lat="44.66765" lon="3.59766">
        <ele>1277.73</ele>
        <time>2025-07-13T15:29:54Z</time>
      </trkpt>
      <trkpt lat="44.66763" lon="3.59764">
        <ele>1277.25</ele>
        <time>2025-07-13T15:30:23Z</time>
      </trkpt>
      <trkpt lat="44.66761" lon="3.59761">
        <ele>1275.33</ele>
        <time>2025-07-13T15:30:47Z</time>
      </trkpt>
      <trkpt lat="44.66766" lon="3.5976">
        <ele>1275.33</ele>
        <time>2025-07-13T15:31:18Z</time>
      </trkpt>
      <trkpt lat="44.6677" lon="3.59755">
        <ele>1278.21</ele>
        <time>2025-07-13T15:31:38Z</time>
      </trkpt>
      <trkpt lat="44.66768" lon="3.5976">
        <ele>1278.69</ele>
        <time>2025-07-13T15:31:43Z</time>
      </trkpt>
      <trkpt lat="44.66763" lon="3.59768">
        <ele>1280.13</ele>
        <time>2025-07-13T15:32:14Z</time>
      </trkpt>
      <trkpt lat="44.66765" lon="3.59766">
        <ele>1278.69</ele>
        <time>2025-07-13T15:32:30Z</time>
      </trkpt>
      <trkpt lat="44.66756" lon="3.59766">
        <ele>1281.09</ele>
        <time>2025-07-13T15:32:52Z</time>
      </trkpt>
      <trkpt lat="44.66758" lon="3.59766">
        <ele>1277.73</ele>
        <time>2025-07-13T15:33:16Z</time>
      </trkpt>
      <trkpt lat="44.66755" lon="3.59769">
        <ele>1280.61</ele>
        <time>2025-07-13T15:33:39Z</time>
      </trkpt>
      <trkpt lat="44.66755" lon="3.59761">
        <ele>1285.42</ele>
        <time>2025-07-13T15:34:01Z</time>
      </trkpt>
      <trkpt lat="44.66756" lon="3.59751">
        <ele>1280.13</ele>
        <time>2025-07-13T15:34:19Z</time>
      </trkpt>
      <trkpt lat="44.66752" lon="3.59738">
        <ele>1275.33</ele>
        <time>2025-07-13T15:34:31Z</time>
      </trkpt>
      <trkpt lat="44.66757" lon="3.5971">
        <ele>1275.81</ele>
        <time>2025-07-13T15:34:48Z</time>
      </trkpt>
      <trkpt lat="44.66761" lon="3.59668">
        <ele>1277.25</ele>
        <time>2025-07-13T15:35:08Z</time>
      </trkpt>
      <trkpt lat="44.66767" lon="3.59657">
        <ele>1276.29</ele>
        <time>2025-07-13T15:35:23Z</time>
      </trkpt>
      <trkpt lat="44.66769" lon="3.59652">
        <ele>1276.29</ele>
        <time>2025-07-13T15:35:27Z</time>
      </trkpt>
      <trkpt lat="44.66783" lon="3.5966">
        <ele>1274.85</ele>
        <time>2025-07-13T15:35:42Z</time>
      </trkpt>
      <trkpt lat="44.66801" lon="3.59666">
        <ele>1272.92</ele>
        <time>2025-07-13T15:36:00Z</time>
      </trkpt>
      <trkpt lat="44.66805" lon="3.59673">
        <ele>1270.04</ele>
        <time>2025-07-13T15:36:16Z</time>
      </trkpt>
      <trkpt lat="44.66812" lon="3.59663">
        <ele>1271.48</ele>
        <time>2025-07-13T15:36:33Z</time>
      </trkpt>
      <trkpt lat="44.66808" lon="3.59671">
        <ele>1274.85</ele>
        <time>2025-07-13T15:36:50Z</time>
      </trkpt>
      <trkpt lat="44.66808" lon="3.59673">
        <ele>1279.65</ele>
        <time>2025-07-13T15:37:07Z</time>
      </trkpt>
      <trkpt lat="44.66809" lon="3.5968">
        <ele>1280.61</ele>
        <time>2025-07-13T15:37:13Z</time>
      </trkpt>
      <trkpt lat="44.66811" lon="3.59696">
        <ele>1279.17</ele>
        <time>2025-07-13T15:37:26Z</time>
      </trkpt>
      <trkpt lat="44.66818" lon="3.59709">
        <ele>1276.77</ele>
        <time>2025-07-13T15:37:41Z</time>
      </trkpt>
      <trkpt lat="44.66824" lon="3.5972">
        <ele>1276.29</ele>
        <time>2025-07-13T15:37:56Z</time>
      </trkpt>
      <trkpt lat="44.6683" lon="3.59707">
        <ele>1278.21</ele>
        <time>2025-07-13T15:38:11Z</time>
      </trkpt>
      <trkpt lat="44.66831" lon="3.59693">
        <ele>1282.54</ele>
        <time>2025-07-13T15:38:27Z</time>
      </trkpt>
      <trkpt lat="44.66837" lon="3.59681">
        <ele>1284.94</ele>
        <time>2025-07-13T15:38:41Z</time>
      </trkpt>
      <trkpt lat="44.66845" lon="3.59676">
        <ele>1287.82</ele>
        <time>2025-07-13T15:38:56Z</time>
      </trkpt>
      <trkpt lat="44.66846" lon="3.59675">
        <ele>1289.27</ele>
        <time>2025-07-13T15:39:14Z</time>
      </trkpt>
      <trkpt lat="44.66844" lon="3.59679">
        <ele>1290.23</ele>
        <time>2025-07-13T15:39:28Z</time>
      </trkpt>
      <trkpt lat="44.66843" lon="3.59678">
        <ele>1290.71</ele>
        <time>2025-07-13T15:39:46Z</time>
      </trkpt>
      <trkpt lat="44.66844" lon="3.59676">
        <ele>1292.15</ele>
        <time>2025-07-13T15:40:04Z</time>
      </trkpt>
      <trkpt lat="44.66841" lon="3.59676">
        <ele>1295.03</ele>
        <time>2025-07-13T15:40:21Z</time>
      </trkpt>
      <trkpt lat="44.66842" lon="3.59676">
        <ele>1295.51</ele>
        <time>2025-07-13T15:40:36Z</time>
      </trkpt>
      <trkpt lat="44.66841" lon="3.59678">
        <ele>1296.96</ele>
        <time>2025-07-13T15:40:55Z</time>
      </trkpt>
      <trkpt lat="44.66836" lon="3.59689">
        <ele>1293.59</ele>
        <time>2025-07-13T15:41:09Z</time>
      </trkpt>
      <trkpt lat="44.66832" lon="3.59709">
        <ele>1289.75</ele>
        <time>2025-07-13T15:41:26Z</time>
      </trkpt>
      <trkpt lat="44.66821" lon="3.59723">
        <ele>1288.78</ele>
        <time>2025-07-13T15:41:42Z</time>
      </trkpt>
      <trkpt lat="44.66814" lon="3.59705">
        <ele>1286.86</ele>
        <time>2025-07-13T15:41:59Z</time>
      </trkpt>
      <trkpt lat="44.66809" lon="3.59691">
        <ele>1285.42</ele>
        <time>2025-07-13T15:42:12Z</time>
      </trkpt>
      <trkpt lat="44.66807" lon="3.5967">
        <ele>1283.98</ele>
        <time>2025-07-13T15:42:28Z</time>
      </trkpt>
      <trkpt lat="44.66813" lon="3.59662">
        <ele>1285.9</ele>
        <time>2025-07-13T15:42:41Z</time>
      </trkpt>
      <trkpt lat="44.66821" lon="3.59667">
        <ele>1288.3</ele>
        <time>2025-07-13T15:42:53Z</time>
      </trkpt>
      <trkpt lat="44.66825" lon="3.59663">
        <ele>1286.86</ele>
        <time>2025-07-13T15:43:10Z</time>
        <extensions>
          <visugpx:TrkExtension xmlns:visugpx="https://www.visugpx.com/editgpx/">
            <visugpx:node>7</visugpx:node>
            </visugpx:TrkExtension>
        </extensions>
      </trkpt>
    </trkseg>
  </trk>
</gpx>